     2              OBSERVATION DATA    GPS                 RINEX VERSION / TYPE
ASRINEXO V2.4.4 UX USGS 18-DEC-96 11:07                     PGM / RUN BY / DATE
                                                            COMMENT
Original Marker Name: ch33 Chatsworth_RE62_No1_1933_LA      COMMENT
Campaign Name: usgs.northridge                              COMMENT
4-Character Station Name: CH33                              COMMENT
6-Character Antenna Code: ASHP12                            COMMENT
Vertical Measurement Point: EGP                             COMMENT
Vertical Offset to Rinex Ref. Point: 0.0593                 COMMENT
Radial Measurement Point: EGP                               COMMENT
Radial Offset to Rinex Ref. Point: 0.1425                   COMMENT
Antenna Height from Field Measurement: 1.3225 m             COMMENT
Additional Antenna Identification Info.:                    COMMENT
Ashtech L1/L2 Revision B                                    COMMENT
Original XYZ: -2529768.3183 -4632064.0776 3570424.4922      COMMENT
New XYZ position is based on association with SCEC monument COMMENT
E1E9I1E1+0111. Position of that monument is believed to be  COMMENT
valid to within 1 m horizontally; vertical accuracy         COMMENT
should be no worse than 3-times this value.                 COMMENT
                                                            COMMENT
Revised Rinex header created by UCSD GPS archive for        COMMENT
GSAC on 10-Nov-1999 (1999:314) 21:43:44 GMT                 COMMENT
For assistance contact dagnew@ucsd.edu or hjohnson@ucsd.edu COMMENT
                                                            COMMENT
CH33 CHATSWORTH_RE62_NO1_1933_LA                            MARKER NAME
JMS US GEOLOGICAL SURVEY                                    OBSERVER / AGENCY
600 ASHTECH Z-XII3 1E95                                     REC # / TYPE / VERS
36 ASHTECH GEODETIC P                                       ANT # / TYPE
 -2529751.0000 -4632032.0000  3570417.0000                  APPROX POSITION XYZ
        1.2555        0.0000        0.0000                  ANTENNA: DELTA H/E/N
     1     1     0                                          WAVELENGTH FACT L1/2
     5    C1    L1    L2    P1    P2                        # / TYPES OF OBSERV
    30                                                      INTERVAL
  1996    12     9    16    34    0.000000                  TIME OF FIRST OBS
  1996    12     9    23    59    0.000000                  TIME OF LAST OBS
                                                            END OF HEADER
 96 12  9 16 34  0.0000000  0  8 21 29 25 31  1 15 23  3
  21910688.404      940529.34849    718967.27949  21910688.3664   21910693.8014
  24388805.441     -401707.33449   -308265.68949  24388804.7824   24388811.2994
  21922075.501     -277373.69449   -166381.20749  21922075.2334   21922080.5534
  23903686.717      969884.92949    736015.38749  23903686.8624   23903691.6944
  21312317.629      882957.50349    670382.49749  21312317.1304   21312322.1564
  22271383.058     -470778.45949   -361116.50449  22271381.8934   22271388.1784
  24806071.846     1200407.96849    904922.58349  24806071.7244   24806079.4994
  24724198.057      822829.21349    608589.02549  24724197.7444   24724204.2654
 96 12  9 16 34 30.0000000  0  8 21 29 25 31  1 15 23  3
  21926401.462     1023101.91649    783309.53949  21926401.3284   21926406.8204
  24380263.600     -446593.92149   -343242.19049  24380263.2454   24380269.8784
  21915963.925     -309491.00249   -191407.65249  21915963.8444   21915968.5094
  23923786.537     1075509.67949    818320.33049  23923787.3474   23923791.1204
  21330054.054      976162.78949    743010.00249  21330053.5114   21330058.5364
  22262741.420     -516190.42249   -396502.43249  22262740.9454   22262746.3944
  24826503.641     1307776.91349    988586.61749  24826503.8394   24826510.9134
  24748528.250      950686.07349    708217.68249  24748528.0614   24748535.0234
 96 12  9 16 35  0.0000000  0  7 21 29 25 31  1 15  3
  21941921.270     1104659.40449    846860.82849  21941920.4754   21941926.7954
  24371523.262     -492523.51249   -379031.43049  24371522.5864   24371529.2584
  21909692.635     -342446.80349   -217087.47449  21909692.2764   21909697.2554
  23943699.142     1180151.40849    899859.30149  23943699.1124   23943703.7894
  21347604.424     1068390.64149    814875.86549  21347603.9914   21347609.2374
  22253931.742     -562485.54149   -432576.53549  22253931.4544   22253937.4324
  24772610.070     1077237.22549    806828.95649  24772608.3804   24772616.4944
 96 12  9 16 35 30.0000000  0  7 21 29 25 31  1 15  3
  21957260.247     1185266.58749    909671.61849  21957259.6254   21957265.9664
  24362595.757     -539436.43949   -415586.91549  24362595.1564   24362602.5114
  21903275.548     -376167.69449   -243363.47949  21903274.9184   21903280.5614
  23963436.791     1283873.68849    980681.81649  23963436.2184   23963442.7034
  21364982.797     1159714.54949    886037.35149  21364982.0614   21364987.4944
  22244967.423     -609593.86849   -469284.30849  22244966.8504   22244972.6514
  24796453.015     1202534.45849    904463.07849  24796452.8834   24796460.7374
 96 12  9 16 36  0.0000000  0  7 21 29 25 31  1 15  3
  21972416.091     1264910.98849    971732.18549  21972415.6934   21972421.6524
  24353478.116     -587349.57449   -452921.77849  24353478.6184   24353485.5294
  21896705.140     -410694.50249   -270267.47749  21896704.9374   21896709.8774
  23982993.875     1386647.24849   1060765.05449  23982993.5694   23983000.1114
  21382184.774     1250111.76549    956476.74349  21382183.8824   21382189.4284
  22235845.367     -657530.49749   -506637.49949  22235844.2854   22235851.0614
  24820054.862     1326562.31649   1001108.11249  24820055.9034   24820061.7694
 96 12  9 16 36 30.0000000  0  7 21 29 25 31  1 15  3
  21987392.648     1343613.06549   1033058.49349  21987392.2754   21987397.9954
  24344172.680     -636250.78049   -491026.58649  24344172.0404   24344178.9554
  21889979.168     -446039.52049   -297809.04449  21889979.0934   21889984.0044
  24002371.597     1488477.95749   1140113.61249  24002371.2244   24002377.3894
  21399210.016     1339580.67849   1026192.79949  21399209.8154   21399214.7234
  22226567.931     -706282.59049   -544626.10649  22226566.9684   22226573.2024
  24843418.364     1449337.41349   1096776.97749  24843418.6094   24843426.0274
 96 12  9 16 37  0.0000000  0  7 21 29 25 31  1 15  3
  22002215.010     1421504.96849   1093753.45249  22002213.8344   22002220.7344
  24334700.116     -686031.05849   -529816.32849  24334700.6974   24334706.0004
  21883119.863     -482085.43849   -325896.76549  21883119.4824   21883124.6164
  24021593.043     1589486.43849   1218821.48449  24021593.6774   24021599.4594
  21416080.056     1428233.15649   1095272.64549  21416079.6474   21416084.7674
  22217158.428     -755729.71349   -583156.33749  22217158.0424   22217163.2034
  24866565.645     1570976.80249   1191560.85349  24866565.7654   24866571.8154
 96 12  9 16 37 30.0000000  0  7 21 29 25 31  1 15  3
  22016901.795     1498684.91549   1153893.65949  22016900.8174   22016908.1024
  24325079.454     -736588.47149   -569211.66049  24325079.8484   24325085.3134
  21876144.535     -518740.99649   -354459.54249  21876144.6004   21876149.5024
  24040671.655     1689744.05149   1296944.27549  24040671.8394   24040677.1074
  21432809.524     1516147.06549   1163776.99149  21432808.8154   21432814.3324
  22207634.604     -805778.33649   -622155.26349  22207634.2654   22207640.1574
  24889513.977     1691569.93149   1285529.50249  24889514.7874   24889521.3964
 96 12  9 16 38  0.0000000  0  7 21 29 25 31  1 15  3
  22031455.918     1575167.86349   1213490.74549  22031455.5614   22031461.9864
  24315315.192     -787898.83849   -609193.72249  24315315.0084   24315320.9614
  21869060.087     -555970.13049   -383469.26049  21869059.9054   21869065.1764
  24059608.140     1789255.47749   1374485.62049  24059608.2304   24059614.2454
  21449396.696     1603313.63449   1231698.99249  21449396.2424   21449401.4244
  22197999.291     -856412.28049   -661610.27749  22197998.5454   22198005.1074
  24912267.290     1811138.28449   1378699.57949  24912267.3864   24912274.3314
 96 12  9 16 38 30.0000000  0  7 21 29 25 31  1 15  3
  22045876.012     1650945.22049   1272538.00849  22045875.7584   22045882.0394
  24305403.893     -839981.92049   -649777.85749  24305402.9104   24305409.4964
  21861869.777     -593755.15249   -412912.15149  21861869.5334   21861875.3334
  24078399.873     1888006.04849   1451434.10249  24078399.7014   24078405.8204
  21465840.500     1689726.41449   1299033.62349  21465840.3084   21465845.3044
  22188250.580     -907642.21549   -701529.69849  22188250.1644   22188255.6044
  24934820.984     1929658.37749   1471052.84849  24934821.4624   24934828.8284
 96 12  9 16 39  0.0000000  0  6 21 29 25 31  1 15
  22060166.174     1726040.79749   1331054.01949  22060165.2454   22060172.0454
  24295349.683     -892817.00249   -690947.96849  24295349.1004   24295356.1094
  21854581.094     -632057.26749   -442757.96049  21854580.9184   21854586.5484
  24097050.770     1986016.37349   1527805.74449  24097050.8994   24097056.1884
  21482147.842     1775421.79949   1365809.23849  21482147.3994   21482152.5474
  22178393.106     -959443.18049   -741894.08049  22178392.4184   22178398.1214
 96 12  9 16 39 30.0010000  0  6 21 29 25 31  1 15
  22074331.723     1800481.18249   1389059.48549  22074331.3984   22074337.4964
  24285156.236     -946383.66449   -732688.15249  24285155.3774   24285162.0294
  21847201.025     -670839.87049   -472978.17749  21847200.8384   21847206.3394
  24115567.263     2083320.97149   1603627.46149  24115567.2204   24115573.5294
  21498325.622     1860436.55049   1432054.49249  21498325.1594   21498330.2814
  22168432.951    -1011784.22949   -782679.29749  22168432.3544   22168438.8754
 96 12  9 16 40  0.0010000  0  6 21 29 25 31  1 15
  22088375.092     1874279.29149   1446564.48449  22088374.7264   22088380.5844
  24274823.721    -1000681.20349   -774997.86749  24274823.6294   24274829.9524
  21839732.176     -710088.79049   -503561.75349  21839731.9884   21839737.3584
  24133953.127     2179938.99049   1678914.21149  24133952.6224   24133958.9134
  21514378.781     1944796.54249   1497789.54649  21514378.2064   21514383.7234
  22158374.261    -1064643.39749   -823868.24049  22158373.8974   22158380.0734
 96 12  9 16 40 30.0010000  0  6 21 29 25 31  1 15
  22102302.906     1947470.36449   1503596.45649  22102303.0244   22102308.1134
  24264357.884    -1055679.82949   -817853.89449  24264357.4854   24264363.6004
  21832174.758     -749803.30449   -534508.13049  21832175.1204   21832180.1324
  24152216.250     2275911.23449   1753697.74849  24152216.1594   24152220.4264
  21530318.705     2028561.48049   1563060.91349  21530318.2014   21530323.8964
  22148223.354    -1117987.49149   -865435.05749  22148223.4044   22148228.4064
 96 12  9 16 41  0.0010000  0  6 21 29 25 31  1 15
  22116108.395     2020017.89549   1560126.98349  22116108.2874   22116113.0634
  24253755.720    -1111394.84749   -861268.16149  24253755.8044   24253761.3064
  21824521.884     -790020.09149   -565845.89149  21824521.9884   21824527.0534
  24170350.247     2371205.63249   1827953.08249  24170349.4954   24170356.5174
  21546137.254     2111688.57949   1627835.26649  21546136.9904   21546142.2734
  22137975.779    -1171839.69449   -907397.82149  22137975.6884   22137980.2894
 96 12  9 16 41 30.0010000  0  6 21 29 25 31  1 15
  22129794.716     2091939.35649   1616169.65749  22129794.7424   22129800.1734
  24243024.935    -1167785.79249   -905209.13549  24243024.9134   24243030.5934
  21816779.999     -830704.63949   -597548.14249  21816779.8184   21816785.0334
  24188360.273     2465849.11349   1901701.17749  24188359.4074   24188365.1754
  21561836.864     2194190.08349   1692122.13849  21561836.5514   21561841.7344
  22127638.015    -1226165.01649   -949729.24149  22127637.0164   22127642.9354
 96 12  9 16 42  0.0010000  0  6 21 29 25 31  1 15
  22143364.831     2163250.90749   1671737.08449  22143364.3384   22143369.7274
  24232174.460    -1224805.57949   -949640.13949  24232174.5554   24232179.7864
  21808952.964     -871835.65049   -629598.28749  21808952.7164   21808957.8474
  24206250.593     2559863.99449   1974959.48249  24206248.7734   24206256.6774
  21577420.201     2276080.99949   1755933.22649  21577419.8534   21577425.2604
  22117214.195    -1280941.36049   -992412.09649  22117213.5624   22117219.3004
 96 12  9 16 42 30.0010000  0  6 21 29 25 31  1 15
  22156824.372     2233981.01549   1726851.44049  22156824.3004   22156829.3554
  24221214.085    -1282402.92549   -994521.15749  24221215.2524   24221219.2614
  21801049.540     -913368.25749   -661961.36649  21801049.3784   21801054.8014
  24224026.293     2653276.95949   2047748.76949  24224025.1464   24224031.0204
  21592891.698     2357384.24149   1819286.39149  21592891.3624   21592896.3224
  22106712.076    -1336129.90749  -1035416.16249  22106711.7724   22106717.4744
 96 12  9 16 43  0.0010000  0  6 21 29 25 31  1 15
  22170176.504     2304146.85749   1781526.11349  22170176.6064   22170181.7794
  24210145.904    -1340567.34149  -1039844.06449  24210145.8354   24210151.4024
  21793077.094     -955263.69649   -694607.15249  21793076.9374   21793082.2494
  24241688.895     2746094.48349   2120074.07049  24241687.0594   24241695.0964
  21608252.225     2438104.03549   1882184.92449  21608251.7094   21608257.0664
  22096135.344    -1391711.37549  -1078726.39949  22096134.5844   22096140.7244
 96 12  9 16 43 30.0010000  0  6 21 29 25 31  1 15
  22183465.647     2373981.10749   1835942.40749  22183465.0874   22183471.2474
  24199010.367    -1399085.22749  -1085442.38549  24199010.2844   24199016.6134
  21785075.626     -997311.97349   -727372.02749  21785075.5064   21785080.7584
  24259281.326     2838543.27449   2192112.04849  24259281.6094   24259286.6494
  21623546.292     2518474.88349   1944811.54849  21623545.9514   21623551.3184
  22085525.851    -1447464.77249  -1122170.59449  22085525.3494   22085531.0824
 96 12  9 16 44  0.0010000  0  6 21 29 25 31  1 15
  22196746.277     2443771.44449   1890324.48049  22196745.5034   22196752.0154
  24187856.892    -1457696.89049  -1131113.80349  24187857.0454   24187862.3294
  21777097.007    -1039239.72649   -760042.98849  21777097.0094   21777102.0114
  24276854.109     2930888.26349   2264069.14249  24276854.4534   24276858.6784
  21638829.084     2598786.28649   2007391.84649  21638828.8904   21638834.0834
  22074936.015    -1503115.22049  -1165534.58349  22074935.5404   22074941.4804
 96 12  9 16 44 30.0010000  0  6 21 29 25 31  1 15
  22209998.531     2513413.23449   1944590.80349  22209998.1284   22210004.7594
  24176661.681    -1516527.28549  -1176955.69149  24176660.3964   24176667.4384
  21769122.965    -1081143.82749   -792695.51549  21769122.9504   21769128.5734
  24294383.927     3023007.80549   2335850.57249  24294383.2884   24294389.8774
  21654080.094     2678930.62749   2069841.98249  21654079.5734   21654084.9374
  22064347.291    -1558759.34749  -1208893.62749  22064346.4214   22064353.0064
 96 12  9 16 45  0.0010000  0  6 21 29 25 31  1 15
  22223205.952     2582818.53849   1998672.84949  22223205.6954   22223211.4254
  24165409.444    -1575658.21949  -1223031.73949  24165410.5344   24165415.2334
  21761138.617    -1123101.85349   -825390.06349  21761138.5774   21761144.0854
  24311854.756     3114817.98949   2407390.92549  24311853.6644   24311861.1824
  21669280.834     2758810.91149   2132086.36449  21669280.6994   21669285.8554
  22053744.145    -1614479.27949  -1252311.74249  22053743.6914   22053750.4644
 96 12  9 16 45 30.0010000  0  6 21 29 25 31  1 15
  22236382.494     2652061.82849   2052628.65449  22236382.1134   22236388.3734
  24154115.879    -1635006.72249  -1269277.31949  24154115.1944   24154120.5404
  21753157.783    -1165041.02649   -858069.92049  21753157.9524   21753163.0664
  24329281.173     3206394.57849   2478749.27049  24329280.5404   24329287.8694
  21684444.944     2838498.17749   2194180.33849  21684444.8614   21684449.8984
  22043141.559    -1670196.34449  -1295727.62449  22043140.7814   22043147.0444
 96 12  9 16 46  0.0010000  0  6 21 29 25 31  1 15
  22249573.294     2721379.74349   2106642.60149  22249572.7714   22249579.0264
  24142827.329    -1694327.36949  -1315501.22649  24142826.7794   24142832.2954
  21745230.416    -1206699.88349   -890531.35049  21745230.2704   21745235.7704
  24346707.534     3297970.09349   2550106.77049  24346707.8354   24346713.7454
  21699614.376     2918213.80749   2256296.41749  21699614.0904   21699619.2444
  22032585.931    -1725666.58149  -1338951.17949  22032585.1794   22032591.1254
 96 12  9 16 46 30.0010000  0  6 21 29 25 31  1 15
  22262749.294     2790620.19249   2160596.18749  22262748.8904   22262755.2204
  24131518.697    -1753753.70249  -1361807.47549  24131518.9674   24131525.2524
  21737328.587    -1248224.40749   -922888.10549  21737328.7604   21737333.3384
  24364106.732     3389403.02849   2621353.16749  24364106.5004   24364113.4834
  21714759.248     2997800.89549   2318312.34049  21714758.6454   21714763.9724
  22022050.359    -1781031.55449  -1382092.73149  22022050.2024   22022055.2564
 96 12  9 16 47  0.0010000  0  6 21 29 25 31  1 15
  22275878.079     2859611.33649   2214355.50549  22275877.7314   22275884.0194
  24120156.028    -1813465.25449  -1408335.94449  24120155.6644   24120161.6784
  21729413.876    -1289816.83149   -955297.77249  21729413.8804   21729419.0704
  24381443.801     3480509.04949   2692344.81849  24381443.3484   24381449.2934
  21729845.118     3077077.85449   2380086.60149  21729844.6524   21729850.2254
  22011498.030    -1836484.51949  -1425302.83649  22011497.2984   22011503.3634
 96 12  9 16 47 30.0010000  0  6 21 29 25 31  1 15
  22288959.991     2928357.10549   2267923.63249  22288959.1754   22288965.8044
  24108734.755    -1873485.09049  -1455104.61649  24108734.7404   24108740.0884
  21721484.151    -1331487.96849   -987768.77549  21721484.1594   21721488.7644
  24398718.159     3571286.58149   2763080.52049  24398717.6894   24398724.1404
  21744872.614     3156048.22849   2441621.96249  21744872.1984   21744877.7834
  22000927.789    -1892031.09749  -1468585.88149  22000926.7354   22000933.1104
 96 12  9 16 48  0.0010000  0  6 21 29 25 31  1 15
  22302002.036     2996893.85349   2321328.89049  22302001.3764   22302008.1354
  24097260.694    -1933782.16849  -1502089.33249  24097260.8434   24097267.5844
  21713547.091    -1373197.97549  -1020270.05749  21713547.3044   21713552.1184
  24415934.874     3661761.40749   2833580.34849  24415934.9504   24415941.2954
  21759849.514     3234751.62049   2502949.28549  21759849.2604   21759854.5194
  21990347.406    -1947631.18749  -1511910.62049  21990346.9704   21990352.6444
 96 12  9 16 48 30.0010000  0  6 21 29 25 31  1 15
  22315023.043     3065320.49549   2374648.35349  22315022.2324   22315029.2174
  24085751.103    -1994265.15849  -1549218.88349  24085751.2414   24085756.7794
  21705618.613    -1414862.54649  -1052735.94749  21705618.7534   21705623.9254
  24433111.101     3752021.78149   2903913.05049  24433111.6194   24433116.4694
  21774795.096     3313290.70349   2564148.57549  21774794.7234   21774799.7624
  21979775.998    -2003184.29349  -1555198.74549  21979775.6584   21979781.3624
 96 12  9 16 49  0.0010000  0  6 21 29 25 31  1 15
  22328053.401     3133795.83549   2428005.74849  22328052.5314   22328059.6674
  24074233.243    -2054791.98849  -1596382.61049  24074233.3354   24074238.6554
  21697728.562    -1456325.31749  -1085044.58649  21697728.6954   21697733.6644
  24450273.361     3842207.82249   2974187.83749  24450273.5684   24450279.0724
  21789738.386     3391817.99949   2625338.66849  21789737.7884   21789743.1694
  21969242.997    -2058536.31549  -1598330.19749  21969242.3904   21969248.0344
 96 12  9 16 49 30.0010000  0  6 21 29 25 31  1 15
  22341068.107     3202189.04349   2481299.14149  22341067.9604   22341074.7474
  24062686.496    -2115471.00149  -1643664.89149  24062686.1094   24062692.0834
  21689857.153    -1497690.22149  -1117276.96149  21689857.0444   21689861.9734
  24467398.114     3932198.75849   3044310.60049  24467397.6234   24467403.3034
  21804655.707     3470209.64949   2686423.06749  21804655.2514   21804660.6954
  21958727.970    -2113793.41049  -1641387.66549  21958726.9304   21958732.4994
 96 12  9 16 50  0.0010000  0  6 21 29 25 31  1 15
  22354060.281     3270462.96849   2534499.59249  22354060.1864   22354066.4304
  24051107.938    -2176317.04449  -1691077.32249  24051106.9254   24051113.6764
  21681997.981    -1538990.05649  -1149458.63449  21681997.5954   21682002.9034
  24484474.819     4021938.70549   3114237.78649  24484474.2514   24484480.7554
  21819540.240     3548428.16349   2747372.55649  21819539.8574   21819545.3044
  21948225.128    -2168985.77149  -1684394.70149  21948224.6004   21948230.2874
 96 12  9 16 50 30.0010000  0  6 21 29 25 31  1 15
  22367025.257     3338593.66049   2587588.43249  22367025.2514   22367031.0664
  24039493.608    -2237348.29949  -1738634.09349  24039492.3364   24039498.7924
  21674149.024    -1580236.26949  -1181598.52249  21674148.6094   21674154.0284
  24501502.252     4111419.35049   3183962.91049  24501501.4734   24501508.9214
  21834385.985     3626443.21949   2808163.50349  21834385.5194   21834391.2574
  21937730.569    -2224135.01049  -1727368.11749  21937730.1254   21937736.4714
 96 12  9 16 51  0.0010000  0  6 21 29 25 31  1 15
  22379942.232     3406472.12349   2640480.73249  22379942.3184   22379948.1654
  24027828.541    -2298646.89749  -1786399.20449  24027828.1914   24027834.3904
  21666292.274    -1621523.45749  -1213770.34349  21666292.0684   21666297.5044
  24518462.753     4200546.63549   3253412.71749  24518463.1014   24518469.0374
  21849175.287     3704161.78049   2868723.41949  21849174.7914   21849180.2254
  21927225.237    -2279341.07249  -1770385.81749  21927224.8284   21927230.8914
 96 12  9 16 51 30.0010000  0  6 21 29 25 31  1 15
  22392837.837     3474239.13649   2693286.19249  22392837.1714   22392843.3974
  24016142.835    -2360055.34649  -1834249.92149  24016143.1504   24016148.6764
  21658456.905    -1662698.42149  -1245854.71849  21658456.8124   21658462.2304
  24535384.520     4289470.07949   3322703.67249  24535384.1374   24535390.3544
  21863935.638     3781728.25549   2929164.82549  21863935.2534   21863940.3764
  21916737.541    -2334454.40249  -1813331.26249  21916736.9794   21916742.7354
 96 12  9 16 52  0.0010000  0  6 21 29 25 31  1 15
  22405702.264     3541841.81149   2745963.58649  22405702.7954   22405707.8264
  24004423.563    -2421640.81149  -1882238.57649  24004422.5544   24004429.7224
  21650633.874    -1703808.42849  -1277888.46649  21650633.5184   21650639.1824
  24552256.124     4378131.00149   3391790.05949  24552256.1274   24552261.1384
  21878656.201     3859085.58749   2989443.26349  21878655.6624   21878661.0504
  21906257.476    -2389527.54749  -1856245.39049  21906257.0744   21906262.8734
 96 12  9 16 52 30.0010000  0  6 21 29 25 31  1 15
  22418569.663     3609460.32849   2798653.32649  22418568.8984   22418575.3074
  23992704.007    -2483228.06849  -1930228.62949  23992704.7764   23992710.2354
  21642856.100    -1744680.50449  -1309736.81749  21642855.7334   21642861.3054
  24569113.789     4466718.95149   3460819.58449  24569113.7264   24569119.0314
  21893370.348     3936409.43949   3049695.59949  21893369.7754   21893375.8724
  21895820.474    -2444375.27249  -1898983.86749  21895820.0394   21895825.8654
 96 12  9 16 53  0.0010000  0  6 21 29 25 31  1 15
  22431447.145     3677131.66149   2851384.21049  22431446.6634   22431452.8084
  23980990.694    -2544781.95249  -1978192.65449  23980989.7564   23980995.8764
  21635126.492    -1785299.78849  -1341388.18949  21635126.6334   21635131.5414
  24585959.967     4555245.73349   3529801.47349  24585959.7244   24585966.4414
  21908083.831     4013729.39649   3109944.89749  21908083.6494   21908089.3904
  21885433.577    -2498959.21949  -1941516.80649  21885432.8904   21885438.6964
 96 12  9 16 53 30.0010000  0  6 21 29 25 31  1 15
  22444305.655     3744703.40549   2904037.49849  22444305.4814   22444311.8904
  23969249.184    -2606483.53149  -2026271.76949  23969249.5244   23969255.0044
  21627417.255    -1825812.04049  -1372956.15149  21627417.5004   21627422.0524
  24602763.653     4643549.29249   3598609.40749  24602763.8114   24602769.8634
  21922763.899     4090873.40849   3170057.10149  21922763.7664   21922768.7884
  21875067.702    -2553432.24149  -1983963.30549  21875066.8164   21875072.8994
 96 12  9 16 54  0.0010000  0  6 21 29 25 31  1 15
  22457162.563     3812267.18149   2956684.57049  22457162.1404   22457168.5084
  23957495.557    -2668249.47949  -2074401.10349  23957495.8614   23957500.8454
  21619743.513    -1866137.98549  -1404378.94849  21619743.5334   21619748.4384
  24619542.501     4731722.06949   3667315.43349  24619542.3554   24619548.4904
  21937426.157     4167923.48249   3230096.12149  21937425.9264   21937430.8444
  21864739.959    -2607704.95249  -2026253.72849  21864739.2064   21864744.8674
 96 12  9 16 54 30.0010000  0  6 21 29 25 31  1 15
  22470011.418     3879788.00549   3009298.17149  22470010.6454   22470017.0854
  23945723.436    -2730113.04749  -2122606.49349  23945723.1614   23945728.5464
  21612097.118    -1906320.21549  -1435689.75849  21612097.2664   21612101.8764
  24636289.753     4819729.16149   3735892.36449  24636288.6724   24636295.7364
  21952064.506     4244848.09649   3290037.37449  21952064.1024   21952069.8394
  21854442.497    -2661818.16149  -2068419.86349  21854441.4854   21854447.2344
 96 12  9 16 55  0.0010000  0  6 21 29 25 31  1 15
  22482830.392     3947152.18349   3061789.71249  22482829.7414   22482836.0294
  23933907.851    -2792204.37349  -2170989.37249  23933907.8604   23933914.0044
  21604458.896    -1946459.69049  -1466967.25149  21604458.8844   21604463.6364
  24652982.379     4907451.35349   3804247.29449  24652980.9364   24652989.2484
  21966657.125     4321532.80649   3349791.68349  21966656.5304   21966662.3104
  21844152.733    -2715891.03549  -2110554.57049  21844152.0384   21844157.4254
 96 12  9 16 55 30.0010000  0  6 21 29 25 31  1 15
  22495650.089     4014520.77249   3114284.69949  22495649.7964   22495655.7304
  23922078.223    -2854369.24649  -2219429.54249  23922078.0504   23922084.7964
  21596861.601    -1986383.73049  -1498076.87749  21596861.2744   21596866.2654
  24669652.930     4995058.05649   3872512.21849  24669651.5564   24669660.5144
  21981235.410     4398142.68349   3409487.67349  21981234.9584   21981240.0584
  21833901.434    -2769761.57449  -2152531.61349  21833900.8154   21833906.2554
 96 12  9 16 56  0.0010000  0  7 21 29 25 31  1 15 14
  22508453.914     4081804.64349   3166713.66749  22508453.8424   22508459.3664
  23910220.015    -2916684.53349  -2267986.88749  23910220.6894   23910226.7034
  21589286.777    -2026189.61449  -1529094.43149  21589286.5984   21589291.2474
  24686284.759     5082459.22549   3940616.98249  24686283.4424   24686290.3494
  21995784.077     4474596.40049   3469061.98549  21995784.0064   21995788.7274
  21823671.961    -2823517.58149  -2194419.41249  21823671.1774   21823677.2434
  25153164.203    -2791291.48749  -2083634.07649  25153164.3274   25153170.4764
 96 12  9 16 56 30.0010000  0  7 21 29 25 31  1 15 14
  22521222.820     4148906.44149   3219000.77149  22521222.2424   22521228.4514
  23898315.727    -2979243.72649  -2316734.31349  23898315.5704   23898321.0894
  21581718.278    -2065962.26149  -1560086.08649  21581718.1574   21581722.8034
  24702857.558     5169549.79949   4008479.72049  24702857.4384   24702863.5744
  22010286.145     4550804.48549   3528444.90549  22010286.1664   22010291.0594
  21813446.860    -2877250.49049  -2236289.19449  21813446.1254   21813452.0934
  25139775.556    -2861649.03649  -2138458.14949  25139775.1764   25139781.1724
 96 12  9 16 57  0.0010000  0  7 21 29 25 31  1 15 14
  22533963.537     4215859.68349   3271172.10849  22533962.7924   22533969.1984
  23886370.899    -3042014.36749  -2365646.49049  23886370.6704   23886376.2054
  21574165.115    -2105654.30849  -1591014.94049  21574165.0064   21574169.7734
  24719375.448     5256350.73449   4076116.76349  24719376.7224   24719382.7544
  22024747.290     4626798.12249   3587660.72049  22024746.7454   22024752.2424
  21803233.809    -2930919.74349  -2278109.38849  21803233.4864   21803238.7554
  25126296.574    -2932480.59649  -2193651.59849  25126296.0574   25126303.0614
 96 12  9 16 57 30.0010000  0  7 21 29 25 31  1 15 14
  22546697.602     4282778.16349   3323316.36349  22546697.3164   22546703.1554
  23874410.401    -3104865.94249  -2414621.75549  23874409.0114   23874416.1624
  21566650.645    -2145143.05649  -1621785.37749  21566650.5584   21566655.3774
  24735859.401     5342972.33649   4143614.05849  24735859.2814   24735866.0514
  22039188.752     4702688.52049   3646796.07849  22039188.1084   22039193.5794
  21793055.461    -2984407.72649  -2319788.34249  21793054.9024   21793060.2984
  25112753.386    -3003650.51249  -2249108.67749  25112753.4434   25112760.5214
 96 12  9 16 58  0.0010000  0  7 21 29 25 31  1 15 14
  22559430.057     4349687.20049   3375453.25749  22559430.1914   22559436.1624
  23862439.404    -3167773.59249  -2463640.71349  23862439.0474   23862444.6344
  21559179.705    -2184403.26349  -1652377.73349  21559180.0004   21559184.5154
  24752308.883     5429414.11449   4210971.24749  24752308.3244   24752315.1144
  22053612.743     4778487.16549   3705859.94449  22053612.5624   22053617.2624
  21782915.168    -3037695.11449  -2361310.97649  21782914.6924   21782921.1214
  25099150.536    -3075133.71449  -2304809.86849  25099149.7604   25099156.7574
 96 12  9 16 58 30.0010000  0  7 21 29 25 31  1 15 14
  22572150.727     4416534.38749   3427541.96249  22572150.8954   22572156.2964
  23850445.617    -3230801.53349  -2512753.38749  23850446.0904   23850451.4164
  21551740.349    -2223497.62749  -1682840.86049  21551740.3814   21551744.9454
  24768707.683     5515590.90149   4278121.94749  24768707.7504   24768714.4124
  22068005.748     4854122.03249   3764796.20449  22068005.5084   22068010.3794
  21772801.642    -3090841.68649  -2402723.87949  21772800.8944   21772807.5854
  25085478.326    -3146980.65749  -2360794.46549  25085477.8754   25085485.4274
 96 12  9 16 59  0.0010000  0  7 21 29 25 31  1 15 14
  22584868.592     4483367.45249   3479619.66049  22584868.2414   22584874.1144
  23838440.094    -3293890.69549  -2561913.77449  23838439.7324   23838446.1994
  21544341.666    -2262377.95749  -1713137.20349  21544341.3234   21544346.1944
  24785063.773     5601542.55949   4345097.21049  24785064.5474   24785070.9934
  22082374.215     4929628.59449   3823632.47349  22082373.5414   22082378.9874
  21762724.948    -3143794.69549  -2443985.95949  21762724.6894   21762730.1984
  25071749.831    -3219125.04149  -2417010.84549  25071749.8394   25071755.5424
 96 12  9 16 59 30.0010000  0  7 21 29 25 31  1 15 14
  22597571.595     4550122.20049   3531636.33349  22597571.3174   22597577.9954
  23826413.346    -3357091.24549  -2611160.95849  23826413.5874   23826419.4484
  21536968.452    -2301123.92249  -1743328.85649  21536968.1374   21536973.3794
  24801366.905     5687214.36249   4411854.40549  24801367.9804   24801372.8894
  22096704.093     5004933.72049   3882311.77449  22096703.4114   22096709.0394
  21752674.421    -3196611.06749  -2485141.57649  21752674.2974   21752679.1784
  25057950.668    -3291640.57249  -2473516.42449  25057949.7624   25057956.9234
 96 12  9 17  0  0.0010000  0  7 21 29 25 31  1 15 14
  22610225.685     4616619.45449   3583452.35149  22610225.8564   22610231.8334
  23814332.590    -3420576.40049  -2660629.91949  23814332.3714   23814338.6714
  21529584.723    -2339925.40049  -1773563.76949  21529584.4894   21529589.9384
  24817582.729     5772428.54349   4478254.98849  24817583.6344   24817588.3204
  22110962.628     5079862.75549   3940698.02649  22110962.5594   22110967.5704
  21742618.482    -3249456.34249  -2526319.71849  21742617.9994   21742623.0644
  25044046.600    -3364706.79949  -2530451.10749  25044046.5274   25044052.8514
 96 12  9 17  0 30.0010000  0  7 21 29 25 31  1 15 14
  22622804.073     4682718.81049   3634958.31849  22622803.8894   22622810.4054
  23802174.569    -3484466.94349  -2710414.74549  23802174.5574   23802179.8874
  21522168.340    -2378898.56949  -1803932.46749  21522168.3134   21522173.1284
  24833691.090     5857078.79349   4544216.18849  24833690.3444   24833696.9894
  22125127.012     5154296.64749   3998698.47249  22125127.0634   22125131.8614
  21732535.832    -3302441.08649  -2567606.53049  21732535.4094   21732540.7124
  25030017.525    -3438430.25449  -2587897.92849  25030018.1894   25030024.0504
 96 12  9 17  1  0.0010000  0  7 21 29 25 31  1 15 14
  22635326.709     4748525.85449   3686236.51549  22635326.5204   22635332.8394
  23789962.297    -3548643.20549  -2760422.20549  23789962.7224   23789967.0454
  21514743.567    -2417916.11749  -1834335.74149  21514743.5034   21514748.3954
  24849718.411     5941303.70749   4609845.94149  24849717.6684   24849725.4534
  22139219.452     5228353.20349   4056404.88349  22139218.6584   22139224.4064
  21722450.081    -3355442.59849  -2608906.41749  21722449.7614   21722455.1604
  25015885.226    -3512696.65549  -2645767.80049  25015885.0734   25015891.3974
 96 12  9 17  1 30.0010000  0  7 21 29 25 31  1 15 14
  22647834.474     4814254.32049   3737453.47349  22647834.1314   22647840.3514
  23777730.175    -3612924.57049  -2810511.55549  23777729.6604   23777735.6834
  21507348.513    -2456777.14049  -1864617.05049  21507348.3134   21507353.0814
  24865704.944     6025313.53349   4675308.06849  24865704.5514   24865712.2624
  22153279.878     5302241.67949   4113980.29649  22153279.2844   22153285.0934
  21712399.614    -3408258.28649  -2650061.50249  21712398.8894   21712404.3034
  25001683.370    -3587328.39049  -2703922.35049  25001684.2344   25001688.9324
 96 12  9 17  2  0.0010000  0  7 21 29 25 31  1 15 14
  22660319.643     4879864.22549   3788578.05049  22660319.1084   22660325.3674
  23765465.752    -3677374.34549  -2860732.15449  23765464.5814   23765471.3964
  21499976.843    -2495515.07349  -1894802.45149  21499976.8364   21499981.6134
  24881640.586     6109054.85949   4740561.01249  24881640.7094   24881646.3764
  22167301.019     5375923.64449   4171394.80749  22167300.5174   22167305.9234
  21702376.104    -3460932.14249  -2691106.06149  21702375.5684   21702381.2694
  24987402.510    -3662374.48449  -2762399.76349  24987402.1514   24987407.9324
 96 12  9 17  2 30.0010000  0  7 21 29 25 31  1 15 14
  22672806.342     4945482.27549   3839708.97449  22672806.0934   22672812.7474
  23753188.620    -3741890.21849  -2911004.24049  23753187.8704   23753194.3334
  21492649.463    -2534020.40549  -1924806.60649  21492649.1894   21492654.3664
  24897547.116     6192642.98749   4805694.57549  24897547.3374   24897552.1834
  22181303.212     5449506.12249   4228731.80949  22181302.6244   22181308.0694
  21692399.947    -3513357.34049  -2731956.86049  21692399.2844   21692405.1044
  24973060.655    -3737741.03849  -2821126.93749  24973060.4704   24973066.7204
 96 12  9 17  3  0.0010000  0  7 21 29 25 31  1 15 14
  22685321.240     5011248.75949   3890955.56449  22685321.0194   22685327.3504
  23740921.814    -3806352.40149  -2961234.44849  23740920.7834   23740927.6684
  21485387.750    -2572181.10249  -1954542.21749  21485387.6464   21485392.9044
  24913446.703     6276195.99349   4870800.77049  24913447.0404   24913454.3094
  22195309.658     5523110.86949   4286086.15249  22195309.2274   22195314.9434
  21682493.224    -3565417.42249  -2772523.14649  21682492.4934   21682498.3504
  24958678.944    -3813317.76549  -2880017.88349  24958678.5864   24958684.0314
 96 12  9 17  3 30.0010000  0  7 21 29 25 31  1 15 14
  22697828.089     5076972.72749   3942169.03049  22697827.7014   22697834.0934
  23728629.997    -3870945.68749  -3011566.82949  23728630.1914   23728636.0934
  21478156.068    -2610184.12249  -1984154.96049  21478156.1124   21478160.8794
  24929301.914     6359516.26249   4935725.60449  24929302.2234   24929308.2994
  22209284.410     5596548.51449   4343310.28549  22209284.1734   22209289.7584
  21672619.781    -3617302.33749  -2812952.94149  21672619.1884   21672624.8384
  24944222.985    -3889284.22549  -2939212.49549  24944222.8044   24944229.9064
 96 12  9 17  4  0.0010000  0  7 21 29 25 31  1 15 14
  22710348.443     5142767.58949   3993437.73549  22710348.3534   22710354.4254
  23716341.701    -3935520.20649  -3061884.58749  23716341.5484   23716347.1614
  21470980.093    -2647893.96049  -2013539.24449  21470979.8304   21470984.9704
  24945135.315     6442721.95049   5000561.14649  24945133.5734   24945141.4554
  22223250.730     5669942.14449   4400500.12849  22223250.3944   22223255.9014
  21662804.292    -3668883.66149  -2853146.17449  21662804.0434   21662809.1014
  24929721.542    -3965489.08749  -2998592.86649  24929721.7534   24929727.5544
 96 12  9 17  4 30.0010000  0  7 21 29 25 31  1 15 14
  22722897.194     5208711.65749   4044822.70549  22722897.0664   22722903.3584
  23704075.741    -3999978.26249  -3112111.63749  23704075.7204   23704080.9014
  21463877.272    -2685219.20149  -2042623.84149  21463877.1774   21463882.0344
  24960961.378     6525889.73649   5065367.14949  24960962.0464   24960969.9434
  22237223.704     5743370.57649   4457717.08749  22237223.4214   22237228.6834
  21653062.103    -3720079.49049  -2893039.02749  21653061.4184   21653066.6324
  24915193.252    -4041836.17149  -3058084.12149  24915193.6304   24915199.4594
 96 12  9 17  5  0.0010000  0  7 21 29 25 31  1 15 14
  22735441.865     5274633.41849   4096190.30549  22735442.1514   22735448.1334
  23691803.982    -4064466.89849  -3162362.49449  23691803.8354   23691809.5444
  21456821.210    -2722299.32249  -2071517.42549  21456821.0824   21456825.7934
  24976747.975     6608848.93949   5130010.62749  24976747.9474   24976754.8974
  22251174.962     5816684.81549   4514845.07349  22251174.6824   22251180.2114
  21643364.905    -3771038.45349  -2932747.30549  21643363.9114   21643369.1704
  24900610.057    -4118471.40749  -3117799.86849  24900610.2564   24900616.8464
 96 12  9 17  5 30.0010000  0  7 21 29 25 31  1 15 14
  22747999.734     5340625.15449   4147612.41949  22747999.1684   22748005.7904
  23679543.845    -4128893.96949  -3212565.38949  23679543.7634   23679550.0334
  21449830.738    -2759034.17549  -2100141.98049  21449830.6714   21449835.6984
  24992510.216     6691679.30649   5194553.72449  24992510.0754   24992516.7064
  22265123.122     5889982.83949   4571960.40249  22265122.8864   22265128.0824
  21633729.698    -3821671.57949  -2972201.68849  21633729.0914   21633733.9124
  24885986.868    -4195316.38249  -3177679.03549  24885986.5004   24885994.9234
 96 12  9 17  6  0.0010000  0  7 21 29 25 31  1 15 14
  22760552.605     5406590.31849   4199013.82949  22760552.5574   22760558.1334
  23667272.543    -4193380.06649  -3262814.27149  23667272.3284   23667278.4384
  21442883.674    -2795541.31149  -2128589.09049  21442883.7904   21442888.3934
  25008223.614     6774253.43449   5258897.18149  25008222.9184   25008231.0534
  22279046.783     5963152.02949   4628975.34549  22279046.6574   22279051.6554
  21624136.081    -3872086.32249  -3011485.89749  21624135.3734   21624141.2114
  24871300.923    -4272490.87449  -3237814.97449  24871300.7174   24871306.9404
 96 12  9 17  6 30.0010000  0  7 21 29 25 31  1 15 14
  22773097.810     5472515.89149   4250384.38449  22773096.9234   22773103.5994
  23654985.078    -4257951.72849  -3313129.81749  23654985.5144   23654991.0684
  21435976.350    -2831839.84549  -2156873.64249  21435976.3324   21435981.4294
  25023885.056     6856554.68049   5323027.97149  25023885.1854   25023891.5814
  22292942.862     6036176.06449   4685877.17349  22292942.6074   22292948.0574
  21614581.645    -3922294.93049  -3050609.47949  21614580.8674   21614587.0094
  24856548.111    -4350018.03349  -3298225.77549  24856548.5304   24856554.7964
 96 12  9 17  7  0.0010000  0  7 21 29 25 31  1 15 14
  22785647.555     5538465.73849   4301773.84749  22785647.1354   22785653.1684
  23642691.695    -4322554.34749  -3363469.49649  23642691.8954   23642697.5554
  21429118.485    -2867878.27249  -2184955.52249  21429118.4004   21429123.4854
  25039507.750     6938651.20249   5386999.23049  25039507.7004   25039514.2364
  22306821.969     6109111.03149   4742709.60149  22306821.6194   22306826.7124
  21605078.764    -3972232.64149  -3089521.96149  21605078.0464   21605084.3064
  24841740.094    -4427835.19449  -3358862.50949  24841739.5024   24841746.6944
 96 12  9 17  7 30.0010000  0  7 21 29 25 31  1 15 14
  22798221.151     5604540.83649   4353260.91949  22798220.3104   22798226.5314
  23630408.804    -4387101.41849  -3413765.89449  23630408.7984   23630414.9104
  21422328.082    -2903562.14949  -2212761.12949  21422328.0414   21422332.9714
  25055110.032     7020641.42249   5450887.65649  25055110.4284   25055116.7164
  22320697.400     6182026.69149   4799526.99049  22320697.2434   22320702.4274
  21595646.356    -4021800.21849  -3128146.03449  21595645.4364   21595651.5624
  24826897.827    -4505830.40349  -3419637.95649  24826897.0774   24826904.0924
 96 12  9 17  8  0.0010000  0  7 21 29 25 31  1 15 14
  22810810.423     5670698.21749   4404812.08449  22810810.0354   22810816.8124
  23618129.536    -4451628.82049  -3464046.97149  23618128.6704   23618135.5844
  21415597.458    -2938931.55649  -2240321.70349  21415597.4604   21415602.4314
  25070687.280     7102499.19549   5514672.89949  25070688.0044   25070694.9834
  22334561.038     6254880.81649   4856296.43949  22334560.6954   22334565.8844
  21586281.342    -4071013.29149  -3166493.86849  21586280.9994   21586286.7344
  24812020.279    -4584012.25349  -3480558.86549  24812019.8464   24812027.0804
 96 12  9 17  8 30.0010000  0  7 21 29 25 31  1 15 14
  22823401.196     5736862.64549   4456368.74749  22823401.1984   22823407.6294
  23605841.321    -4516203.04349  -3514364.50849  23605840.3874   23605847.8444
  21408913.855    -2974053.82549  -2267689.70049  21408913.7974   21408918.9594
  25086228.682     7184169.45049   5578311.97449  25086228.7054   25086235.3164
  22348402.676     6327618.94549   4912975.48249  22348402.1734   22348407.7814
  21576972.212    -4119933.08349  -3204613.17549  21576971.5734   21576978.1804
  24797095.587    -4662442.05449  -3541672.95149  24797095.5784   24797102.2874
 96 12  9 17  9  0.0010000  0  7 21 29 25 31  1 15 14
  22836006.476     5803103.22449   4507984.74149  22836006.0924   22836012.3654
  23593555.654    -4580764.20949  -3564671.85049  23593556.0614   23593562.1274
  21402289.721    -3008863.71249  -2294814.28649  21402289.8234   21402295.0724
  25101744.704     7265706.67349   5641847.42349  25101744.3744   25101751.6424
  22362232.566     6400295.69349   4969606.70049  22362232.3194   22362238.0354
  21567731.242    -4168494.52449  -3242453.24349  21567730.3214   21567736.7154
  24782135.653    -4741056.87949  -3602931.22049  24782135.3954   24782141.2624
 96 12  9 17  9 30.0010000  0  7 21 29 25 31  1 15 14
  22848628.853     5869434.35449   4559671.29349  22848628.8834   22848635.2134
  23581276.109    -4645294.64049  -3614955.27549  23581276.6824   23581282.6144
  21395729.141    -3043340.30249  -2321679.16849  21395729.2254   21395734.2694
  25117236.763     7347119.02849   5705285.56149  25117236.4494   25117243.7804
  22376056.954     6472942.75349   5026214.77349  22376056.7684   22376062.0964
  21558562.158    -4216677.91449  -3279998.73749  21558561.8284   21558567.3914
  24767141.211    -4819853.32249  -3664331.02649  24767140.6754   24767147.6824
 96 12  9 17 10  0.0010000  0  7 21 29 25 31  1 15 14
  22861267.717     5935852.00549   4611425.26449  22861268.0134   22861273.1214
  23569003.543    -4709788.22349  -3665209.97149  23569002.6094   23569009.6774
  21389230.811    -3077489.24649  -2348288.73449  21389230.5644   21389235.8754
  25132704.361     7428401.09749   5768622.18149  25132704.9004   25132711.3544
  22389881.892     6545593.37949   5082825.63749  22389881.4284   22389886.6634
  21549464.288    -4264487.80949  -3317253.19549  21549463.7574   21549469.2584
  24752109.709    -4898843.69049  -3725881.87049  24752109.0514   24752116.3784
 96 12  9 17 10 30.0010000  0  7 21 29 25 31  1 15 14
  22873959.407     6002546.48549   4663394.94549  22873959.1284   22873965.1084
  23556775.112    -4774048.30249  -3715282.71349  23556774.6144   23556781.7554
  21382833.135    -3111108.87849  -2374485.85849  21382832.9634   21382838.2644
  25148179.235     7509720.82949   5831988.12649  25148179.1984   25148186.3284
  22403740.318     6618419.69049   5139573.40649  22403739.7544   22403745.3914
  21540470.805    -4311748.67649  -3354079.83749  21540469.8334   21540476.4184
  24737073.820    -4977857.70449  -3787451.13249  24737073.5604   24737080.9014
 96 12  9 17 11  0.0010000  0  7 21 29 25 31  1 15 14
  22886698.188     6069488.76049   4715557.73249  22886697.9094   22886704.7624
  23544586.488    -4838098.99949  -3765192.30049  23544585.6534   23544592.3274
  21376531.586    -3144223.72149  -2400289.63849  21376531.5954   21376536.8264
  25163652.713     7591033.77049   5895348.77449  25163652.5364   25163659.0614
  22417621.465     6691365.88549   5196414.59949  22417621.1044   22417626.4724
  21531574.663    -4358497.12649  -3390507.19149  21531573.8224   21531580.0654
  24722024.358    -5056942.64949  -3849075.71149  24722023.4994   24722029.7394
 96 12  9 17 11 30.0010000  0  7 21 29 25 31  1 15 14
  22899475.406     6136633.41249   4767878.22549  22899475.0934   22899482.1684
  23532431.249    -4901974.98149  -3814965.76549  23532432.1864   23532436.9374
  21370318.154    -3176875.50749  -2425732.58749  21370318.3964   21370323.5504
  25179117.924     7672303.99749   5958676.15149  25179118.7394   25179123.7944
  22431518.599     6764395.50949   5253320.79949  22431518.2834   22431524.0494
  21522769.787    -4404766.88749  -3426561.54249  21522769.1574   21522775.3874
  24706953.856    -5136138.33849  -3910786.59249  24706954.0124   24706960.5774
 96 12  9 17 12  0.0010000  0  7 21 29 25 31  1 15 14
  22912278.634     6203914.37649   4820304.91349  22912278.4204   22912285.4924
  23520295.999    -4965746.19849  -3864657.58549  23520295.9584   23520302.5804
  21364181.559    -3209124.11249  -2450861.37449  21364181.9154   21364186.2114
  25194559.008     7753447.25049   6021904.59649  25194558.8604   25194564.7774
  22445414.435     6837418.31349   5310221.66749  22445414.0534   22445419.7534
  21514043.103    -4450626.05849  -3462295.95349  21514042.6184   21514048.4934
  24691850.005    -5215509.16349  -3972633.89349  24691848.9094   24691855.6804
 96 12  9 17 12 30.0010000  0  7 21 29 25 31  1 15 14
  22925133.697     6271468.91249   4872944.79149  22925132.3514   22925140.2674
  23508205.950    -5029280.77949  -3914164.98549  23508205.5084   23508210.8514
  21358147.423    -3240834.19949  -2475570.53249  21358147.4224   21358151.9674
  25210001.941     7834600.10749   6085140.53249  25210000.8104   25210009.1224
  22459328.136     6910535.55349   5367196.12149  22459327.7814   22459333.5514
  21505420.502    -4495937.98649  -3497603.94149  21505419.8984   21505426.1084
  24676735.263    -5294936.86849  -4034525.53349  24676735.6514   24676742.1484
 96 12  9 17 13  0.0010000  0  7 21 29 25 31  1 15 14
  22938037.060     6339276.58249   4925781.90949  22938036.2584   22938043.6914
  23496155.940    -5092604.19649  -3963507.85949  23496154.8704   23496160.6494
  21352212.012    -3272024.76149  -2499874.85949  21352212.1914   21352216.8014
  25225445.916     7915758.82049   6148381.02649  25225445.3384   25225452.2244
  22473260.138     6983749.01449   5424245.55449  22473259.7064   22473265.2914
  21496901.003    -4540707.82049  -3532489.51249  21496900.6954   21496906.8464
  24661611.001    -5374416.29849  -4096457.53949  24661610.7324   24661616.3824
 96 12  9 17 13 30.0010000  0  7 21 29 25 31  1 15 14
  22950977.704     6407280.60949   4978772.02049  22950976.7994   22950984.6964
  23484136.564    -5155765.95149  -4012724.78849  23484136.7904   23484141.4734
  21346365.665    -3302748.24349  -2523815.22649  21346365.8184   21346370.3934
  25240881.328     7996872.68049   6211586.57749  25240881.6814   25240889.2434
  22487202.655     7057017.88449   5481338.17949  22487202.6344   22487207.9794
  21488475.920    -4584982.36049  -3566989.14349  21488475.7484   21488481.4544
  24646471.802    -5453973.03949  -4158449.79149  24646470.5834   24646478.0034
 96 12  9 17 14  0.0010000  0  7 21 29 25 31  1 15 14
  22963958.303     6475494.23149   5031925.45649  22963957.6034   22963964.9554
  23472149.921    -5218756.95249  -4061808.65749  23472149.8594   23472155.0974
  21340610.002    -3332994.98449  -2547384.11449  21340609.7134   21340614.6834
  25256309.587     8077948.37049   6274762.35949  25256310.2304   25256315.7284
  22501155.288     7130339.18049   5538471.65249  22501155.3044   22501160.5314
  21480145.658    -4628758.88949  -3601100.71249  21480145.3854   21480150.9714
  24631318.656    -5533601.87649  -4220498.19449  24631318.4434   24631325.1374
 96 12  9 17 14 30.0010000  0  7 21 29 25 31  1 15 14
  22976969.554     6543868.87649   5085204.36149  22976969.1354   22976976.1544
  23460187.625    -5281618.98849  -4110792.02949  23460186.4014   23460193.5764
  21334935.093    -3362816.37449  -2570621.55149  21334934.8824   21334939.6764
  25271727.154     8158967.16149   6337893.81049  25271727.0574   25271733.6594
  22515110.556     7203674.17449   5595615.79549  22515110.0744   22515115.9794
  21471903.040    -4672074.61649  -3634853.21449  21471902.7714   21471907.8964
  24616145.926    -5613335.85549  -4282628.57149  24616145.9474   24616151.3654
 96 12  9 17 15  0.0010000  0  7 21 29 25 31  1 15 14
  22990010.424     6612398.95449   5138604.39349  22990010.5574   22990017.1874
  23448245.796    -5344371.49549  -4159690.03649  23448244.6784   23448251.5474
  21329339.955    -3392218.84949  -2593532.55649  21329340.0354   21329344.8134
  25287130.707     8239912.67149   6400968.13449  25287130.4844   25287137.8204
  22529068.154     7277021.71449   5652769.70449  22529067.6014   22529073.4054
  21463747.152    -4714934.38649  -3668250.43549  21463746.9174   21463752.0384
  24600956.823    -5693156.13049  -4344826.15849  24600957.2324   24600962.0244
 96 12  9 17 15 30.0010000  0  7 21 29 25 31  1 15 14
  23003090.048     6681132.93249   5192163.29949  23003090.8624   23003096.3304
  23436334.099    -5406967.58349  -4208466.17449  23436332.9944   23436339.6844
  21323831.771    -3421164.61049  -2616087.67549  21323831.8584   21323836.4424
  25302529.790     8320835.23049   6464024.57849  25302527.5254   25302537.1534
  22543035.279     7350419.73649   5709962.95849  22543035.1424   22543040.4634
  21455685.696    -4757297.81549  -3701260.90749  21455684.9884   21455690.8214
  24585757.173    -5773031.63149  -4407066.81149  24585756.8854   24585762.7104
 96 12  9 17 16  0.0010000  0  6 21 29 25  1 15 14
  23016170.009     6749867.80449   5245722.90749  23016170.3874   23016176.6464
  23424412.485    -5469615.35849  -4257282.58849  23424411.7174   23424418.0514
  21318372.501    -3449852.80249  -2638442.09849  21318372.3084   21318377.6664
  22556974.873     7423672.24049   5767042.83449  22556974.8614   22556979.8374
  21447680.865    -4799363.20749  -3734039.12949  21447679.8404   21447686.6074
  24570505.871    -5853176.50849  -4469517.31949  24570505.5734   24570512.0964
 96 12  9 17 16 30.0010000  0  6 21 29 25  1 15 14
  23029280.351     6818763.03249   5299407.46549  23029280.1314   23029286.8854
  23412510.475    -5532159.57849  -4306018.34349  23412511.2464   23412515.6524
  21312993.496    -3478119.08949  -2660467.75949  21312993.5224   21312998.7034
  22570919.766     7496952.51049   5824144.35849  22570919.6174   22570924.8194
  21439764.053    -4840965.77949  -3766456.71849  21439763.6114   21439769.7694
  24555235.194    -5933424.31049  -4532048.02749  24555236.3344   24555240.6814
 96 12  9 17 17  0.0010000  0  6 21 29 25  1 15 14
  23042410.728     6887763.58249   5353174.10549  23042410.2914   23042417.3124
  23400618.118    -5594654.62949  -4354715.76849  23400618.0894   23400623.6404
  21307683.158    -3506025.37749  -2682212.90049  21307683.5684   21307688.2174
  22584857.336     7570194.96549   5881216.38949  22584856.5794   22584862.3734
  21431922.559    -4882173.66049  -3798566.75749  21431922.2994   21431927.9104
  24539931.835    -6013845.04249  -4594713.51449  24539930.8794   24539937.8614
 96 12  9 17 17 30.0010000  0  6 21 29 25  1 15 14
  23055553.085     6956826.85649   5406989.61549  23055552.7734   23055558.7364
  23388733.077    -5657111.34649  -4403383.30349  23388733.5374   23388738.5134
  21302435.240    -3533603.91049  -2703702.64749  21302435.0714   21302439.8324
  22598783.020     7643375.56049   5938240.20249  22598782.6284   22598788.1644
  21424149.558    -4923022.08149  -3830396.69749  21424148.9504   21424154.6534
  24524583.662    -6094499.47949  -4657561.08749  24524584.2944   24524589.6784
 96 12  9 17 18  0.0010000  0  6 21 29 25  1 15 14
  23068732.633     7026085.69849   5460957.51049  23068732.5494   23068738.7494
  23376880.776    -5719395.36749  -4451916.27349  23376881.1524   23376886.7384
  21297276.108    -3560714.78349  -2724827.98949  21297275.8234   21297280.7264
  22612719.660     7716613.24749   5995308.52149  22612719.4404   22612724.5614
  21416470.575    -4963375.69449  -3861841.06449  21416470.1264   21416475.5054
  24509215.407    -6175259.89049  -4720491.22149  24509215.3734   24509221.7184
 96 12  9 17 18 30.0010000  0  6 21 29 25  1 15 14
  23081975.370     7095676.37049   5515183.96949  23081975.1914   23081981.0414
  23365085.844    -5781378.64149  -4500214.88149  23365086.0284   23365091.6914
  21292231.866    -3587221.78549  -2745482.77349  21292231.8454   21292236.4894
  22626689.948     7790026.90749   6052513.97149  22626689.9484   22626694.5464
  21408911.557    -5003098.77049  -3892794.10049  21408911.0994   21408916.7984
  24493852.851    -6255990.64549  -4783398.28049  24493853.3184   24493857.7394
 96 12  9 17 19  0.0010000  0  6 21 29 25  1 15 14
  23095235.440     7165358.77349   5569481.92249  23095235.2514   23095240.8384
  23353303.254    -5843296.71249  -4548462.69049  23353303.4944   23353308.6334
  21287256.759    -3613366.39749  -2765855.18149  21287256.9694   21287261.5074
  22640648.270     7863378.20449   6109670.81749  22640647.8364   22640652.9264
  21401428.628    -5042422.00749  -3923435.58049  21401427.8304   21401433.5024
  24478452.061    -6336923.29149  -4846462.64449  24478452.6804   24478459.0874
 96 12  9 17 19 30.0010000  0  6 21 29 25  1 15 14
  23108496.255     7235045.41149   5623783.17749  23108495.9114   23108502.3184
  23341510.593    -5905266.40549  -4596750.73849  23341511.0684   23341515.7754
  21282333.308    -3639239.39049  -2786015.93449  21282333.3274   21282338.0174
  22654575.929     7936568.49349   6166702.18449  22654575.3244   22654580.9334
  21394004.377    -5081436.40249  -3953836.40849  21394003.5004   21394009.6704
  24462995.988    -6418145.04849  -4909752.25049  24462994.9314   24463001.8604
 96 12  9 17 20  0.0010000  0  6 21 29 25  1 15 14
  23121775.950     7304830.34949   5678161.03349  23121776.4174   23121782.2304
  23329717.637    -5967239.12049  -4645041.10049  23329717.4134   23329723.0864
  21277476.294    -3664762.81449  -2805904.30049  21277476.1204   21277480.6754
  22668484.704     8009659.49649   6223656.17149  22668484.5554   22668489.5044
  21386654.913    -5120057.44649  -3983930.73749  21386654.5374   21386660.5874
  24447502.423    -6499563.54749  -4973195.21349  24447502.5564   24447507.8744
 96 12  9 17 20 30.0010000  0  6 21 29 25  1 15 14
  23135075.775     7374721.48649   5732621.65449  23135076.0504   23135082.6204
  23317923.389    -6029219.63649  -4693337.55149  23317923.3384   23317929.2024
  21272685.865    -3689936.62049  -2825520.22949  21272685.6764   21272690.3384
  22682375.776     8082657.00949   6280537.33649  22682375.7084   22682380.7034
  21379380.472    -5158285.34749  -4013718.71349  21379380.3134   21379386.3594
  24431971.824    -6581176.61049  -5036789.75549  24431970.9084   24431978.1014
 96 12  9 17 21  0.0010000  0  6 21 29 25  1 15 14
  23148382.706     7444649.25149   5787110.79749  23148383.0884   23148388.8504
  23306114.549    -6091274.63349  -4741692.04149  23306114.1534   23306121.1314
  21267947.349    -3714837.59249  -2844923.56349  21267946.7974   21267952.0804
  22696234.633     8155485.36049   6337286.68449  22696234.3644   22696239.4714
  21372166.751    -5196194.44349  -4043258.26749  21372166.4374   21372172.1744
  24416388.591    -6663066.88949  -5100600.30049  24416389.2254   24416395.2004
 96 12  9 17 21 30.0010000  0  6 21 29 25  1 15 14
  23161712.761     7514698.90149   5841694.92249  23161712.3404   23161719.3774
  23294308.704    -6153312.86649  -4790033.45249  23294308.2664   23294314.6724
  21263279.461    -3739366.80849  -2864037.22049  21263279.2984   21263284.4564
  22710077.059     8228227.97049   6393969.21749  22710076.8014   22710081.8004
  21365029.933    -5233698.68249  -4072482.34549  21365028.9484   21365035.1254
  24400767.222    -6745157.29349  -5164566.80049  24400766.5914   24400772.6274
 96 12  9 17 22  0.0010000  0  6 21 29 25  1 15 14
  23175077.212     7584929.62849   5896420.14749  23175076.4284   23175083.8734
  23282526.544    -6215229.45749  -4838280.10349  23282527.3824   23282532.4944
  21258699.749    -3763433.41049  -2882790.39949  21258699.8184   21258704.4994
  22723921.739     8300982.58349   6450661.09149  22723921.2174   22723926.7934
  21357987.515    -5270706.09449  -4101319.28049  21357986.6444   21357992.7694
  24385123.010    -6827367.49349  -5228626.65549  24385122.4614   24385129.1824
 96 12  9 17 22 30.0010000  0  6 21 29 25  1 15 14
  23188481.539     7655369.78149   5951308.55849  23188480.9594   23188488.5664
  23270781.523    -6276950.95749  -4886374.72649  23270781.1834   23270786.4874
  21254218.479    -3786982.75249  -2901140.51449  21254218.2814   21254223.4494
  22737780.573     8373810.99049   6507410.47149  22737780.4424   22737785.8164
  21351049.136    -5307166.95749  -4129730.33649  21351048.2474   21351054.5724
  24369468.466    -6909632.64349  -5292729.32049  24369468.1684   24369475.0934
 96 12  9 17 23  0.0010000  0  6 21 29 25  1 15 14
  23201915.658     7725966.22449   6006318.75649  23201915.8284   23201922.3044
  23259066.335    -6338513.65549  -4934345.60549  23259066.4634   23259072.2894
  21249826.321    -3810063.43149  -2919125.43849  21249825.9324   21249831.3104
  22751647.567     8446682.30549   6564193.29349  22751647.6124   22751653.1194
  21344207.854    -5343117.68749  -4157743.88549  21344207.0434   21344213.1424
  24353798.252    -6991980.42749  -5356896.41449  24353798.9164   24353803.6444
 96 12  9 17 23 30.0010000  0  6 21 29 25  1 15 14
  23215342.269     7796524.07549   6061298.88749  23215342.1834   23215349.4434
  23247348.471    -6400091.07749  -4982327.96449  23247348.3864   23247354.0784
  21245488.490    -3832858.68149  -2936887.95349  21245488.4744   21245493.2974
  22765488.281     8519415.53449   6620868.51849  22765487.9514   22765493.8334
  21337429.266    -5378738.88749  -4185500.66649  21337428.7654   21337434.3164
  24338079.881    -7074581.75949  -5421261.06149  24338080.3484   24338086.6694
 96 12  9 17 24  0.0010000  0  6 21 29 25  1 15 14
  23228776.435     7867121.33649   6116309.73549  23228776.6034   23228782.7644
  23235643.603    -6461600.89049  -5030257.64549  23235643.1394   23235649.3224
  21241217.398    -3855303.58149  -2954377.46849  21241217.6014   21241222.2664
  22779315.609     8592079.04049   6677489.40149  22779314.7094   22779320.8864
  21330728.483    -5413952.11049  -4212939.54849  21330728.2244   21330733.8414
  24322329.146    -7157351.80349  -5485757.17349  24322329.2824   24322335.0074
 96 12  9 17 24 30.0010000  0  6 21 29 25  1 15 14
  23242201.862     7937670.94449   6171283.43449  23242202.1484   23242207.7424
  23223928.666    -6523163.07649  -5078228.14949  23223928.9294   23223934.8874
  21236989.476    -3877521.26649  -2971689.92949  21236989.5384   21236994.4664
  22793106.105     8664549.51449   6733959.87249  22793105.3714   22793111.5084
  21324084.116    -5448868.55649  -4240147.17449  21324083.6244   21324089.6874
  24306523.995    -7240408.88849  -5550476.95749  24306524.1934   24306530.1894
 96 12  9 17 25  0.0010000  0  6 21 29 25  1 15 14
  23255623.383     8008200.17149   6226241.25149  23255622.6574   23255628.9334
  23212203.466    -6584779.13849  -5126240.61749  23212203.4764   23212208.6204
  21232805.968    -3899505.69549  -2988820.63249  21232805.9344   21232811.0134
  22806859.265     8736822.64349   6790276.58349  22806859.1604   22806864.3914
  21317498.803    -5483474.27449  -4267112.67149  21317497.9634   21317503.9434
  24290662.350    -7323762.93949  -5615428.11649  24290662.8644   24290668.2534
 96 12  9 17 25 30.0010000  0  6 21 29 25  1 15 14
  23269058.503     8078801.87449   6281255.53049  23269058.5164   23269064.3634
  23200483.411    -6646368.54149  -5174232.31349  23200483.6294   23200488.7364
  21228685.375    -3921159.85949  -3005694.00149  21228685.6174   21228690.5514
  22820587.884     8808965.89649   6846492.08049  22820587.6764   22820593.3764
  21310988.601    -5517684.94049  -4293770.34049  21310987.5204   21310993.8504
  24274757.258    -7407345.55749  -5680557.42349  24274755.9364   24274762.5254
 96 12  9 17 26  0.0010000  0  6 21 29 25  1 15 14
  23282476.823     8149315.13249   6336200.90149  23282475.3684   23282482.9614
  23188731.365    -6708126.31949  -5222355.21849  23188731.3154   23188736.3444
  21224595.818    -3942650.96249  -3022440.29749  21224596.0884   21224601.0404
  22834257.303     8880799.32049   6902466.15849  22834256.7734   22834262.9804
  21304521.221    -5551670.68749  -4320252.74749  21304520.9974   21304526.8494
  24258775.394    -7491330.34349  -5746000.07149  24258774.9004   24258781.6874
 96 12  9 17 26 30.0010000  0  6 21 29 25  1 15 14
  23295928.299     8220003.51949   6391282.74249  23295928.3744   23295934.4214
  23176994.158    -6769805.27949  -5270416.72949  23176993.9314   23176998.9634
  21220587.264    -3963716.48449  -3038854.97349  21220587.3534   21220592.2174
  22847918.620     8952590.27749   6958407.13949  22847918.0154   22847923.8794
  21298147.334    -5585166.10449  -4346353.06049  21298147.3194   21298152.5604
  24242767.322    -7575454.15049  -5811551.05349  24242767.8414   24242773.8434
 96 12  9 17 27  0.0010000  0  6 21 29 25  1 15 14
  23309408.224     8290841.42749   6446481.08749  23309407.6434   23309414.2144
  23165272.817    -6831400.59149  -5318413.07649  23165272.1064   23165278.8824
  21216661.665    -3984346.10749  -3054929.99249  21216661.7814   21216666.5214
  22861571.066     9024334.95149   7014312.04849  22861570.5344   22861576.3104
  21291865.865    -5618176.49449  -4372075.43049  21291865.5584   21291871.2134
  24226735.525    -7659701.60149  -5877198.39149  24226736.4394   24226740.6534
 96 12  9 17 27 30.0010000  0  6 21 29 25  1 15 14
  23322913.015     8361808.80849   6501780.31449  23322914.2824   23322919.0784
  23153568.058    -6892909.60349  -5366342.14949  23153567.8494   23153574.1494
  21212818.335    -4004543.25449  -3070668.01649  21212818.4114   21212823.2184
  22875215.825     9096038.58549   7070184.97449  22875216.0674   22875220.8654
  21285675.647    -5650707.22049  -4397424.04349  21285675.5334   21285681.1704
  24210682.028    -7744063.96749  -5942935.27149  24210682.3434   24210686.7124
 96 12  9 17 28  0.0010000  0  6 21 29 25  1 15 14
  23336418.906     8432781.72349   6557083.85149  23336418.3144   23336424.9104
  23141860.638    -6954433.00049  -5414282.42749  23141859.9044   23141866.3644
  21209033.375    -4024433.40749  -3086166.81649  21209033.4724   21209038.2794
  22888833.882     9167601.33849   7125948.13949  22888834.2004   22888839.1774
  21279555.539    -5682869.29849  -4422485.40649  21279554.9714   21279561.1074
  24194587.807    -7828638.85849  -6008837.72149  24194587.2064   24194593.2414
 96 12  9 17 28 30.0010000  0  6 21 29 25  1 15 14
  23349908.244     8503668.41949   6612320.20749  23349907.7154   23349913.9654
  23130137.359    -7016039.27749  -5462287.29649  23130137.3294   23130143.2174
  21205291.840    -4044095.22449  -3101487.69649  21205291.6424   21205296.5094
  22902410.844     9238947.77549   7181542.75349  22902410.9014   22902415.8694
  21273488.830    -5714749.95349  -4447327.47849  21273488.2214   21273494.2734
  24178437.995    -7913507.04149  -6074968.72549  24178437.3564   24178445.1154
 96 12  9 17 29  0.0010000  0  6 21 29 25  1 15 14
  23363395.391     8574545.02649   6667548.71349  23363395.2284   23363401.6434
  23118414.616    -7077643.10549  -5510290.27349  23118414.5454   23118419.7564
  21201609.578    -4063444.85649  -3116565.32249  21201609.2914   21201614.5464
  22915957.640     9310136.56749   7237014.51549  22915957.2634   22915963.1704
  21267488.852    -5746280.06049  -4471896.39049  21267488.3844   21267494.1294
  24162244.841    -7998601.94049  -6141276.36949  24162242.7474   24162250.0234
 96 12  9 17 29 30.0010000  0  6 21 29 25  1 15 14
  23376872.376     8645367.52649   6722735.05349  23376872.0384   23376878.5694
  23106678.296    -7139317.45249  -5558348.16149  23106678.2404   23106683.8164
  21197972.466    -4082557.65449  -3131458.39649  21197972.3294   21197977.4954
  22929460.763     9381096.07949   7292307.61649  22929460.0954   22929466.4824
  21261543.751    -5777522.02249  -4496240.76649  21261543.3204   21261548.8464
  24145992.954    -8084005.46249  -6207824.53749  24145991.9284   24145999.0484
 96 12  9 17 30  0.0010000  0  6 21 29 25  1 15 14
  23390357.621     8716232.62249   6777954.57849  23390356.5834   23390363.9404
  23094942.222    -7200990.37849  -5606404.95849  23094942.7144   23094948.2294
  21194397.538    -4101343.97649  -3146097.07749  21194396.9744   21194402.0944
  22942935.918     9451908.50249   7347486.10649  22942935.6764   22942942.1394
  21255670.553    -5808386.58649  -4520291.06349  21255670.0864   21255675.2224
  24129696.314    -8169643.52949  -6274555.45749  24129696.2894   24129701.8484
 96 12  9 17 30 30.0010000  0  6 21 29 25  1 15 14
  23403857.939     8787177.22749   6833236.03449  23403857.4974   23403864.2734
  23083207.665    -7262656.15449  -5654456.16849  23083208.1484   23083213.2124
  21190889.481    -4119778.16149  -3160461.36649  21190889.1034   21190894.2414
  22956385.093     9522584.12449   7402557.99349  22956384.7864   22956390.7444
  21249873.895    -5838847.99849  -4544027.22149  21249873.0294   21249878.8674
  24113357.577    -8255504.62149  -6341460.19249  24113357.5704   24113362.2544
 96 12  9 17 31  0.0010000  0  6 21 29 25  1 15 14
  23417345.514     8858054.90449   6888465.34949  23417345.8494   23417352.3094
  23071446.664    -7324461.30449  -5702615.99949  23071445.8504   23071451.0734
  21187417.211    -4138024.75849  -3174679.48549  21187417.4464   21187422.0804
  22969779.821     9592974.06449   7457407.27649  22969779.5724   22969785.2894
  21244126.909    -5869048.15649  -4567559.80949  21244126.2774   21244131.9084
  24096945.942    -8341748.27649  -6408663.00949  24096945.9414   24096951.3284
 96 12  9 17 31 30.0010000  0  6 21 29 25  1 15 14
  23430800.459     8928760.74249   6943560.76649  23430800.5344   23430806.2854
  23059639.066    -7386508.82649  -5750964.68449  23059638.2254   23059644.1034
  21183960.538    -4156190.51349  -3188834.61249  21183960.5694   21183965.4174
  22983106.355     9663005.77549   7511977.41749  22983106.0374   22983112.1724
  21238412.345    -5899078.25349  -4590959.87149  21238411.4844   21238417.3074
  24080445.000    -8428461.21649  -6476231.48649  24080444.9154   24080451.2724
 96 12  9 17 32  0.0010000  0  6 21 29 25  1 15 14
  23444239.244     8999382.28649   6998590.48249  23444239.5114   23444245.1964
  23047805.060    -7448696.20249  -5799422.34049  23047805.1474   23047810.7374
  21180541.120    -4174159.62749  -3202836.51949  21180540.4474   21180545.7244
  22996387.254     9732796.84649   7566360.05449  22996387.2924   22996392.7434
  21232749.559    -5928836.14149  -4614147.83249  21232749.0944   21232754.5094
  24063876.855    -8515527.30049  -6544075.13149  24063876.2554   24063882.9524
 96 12  9 17 32 30.0010000  0  6 21 29 25  1 15 14
  23457659.174     9069904.88949   7053543.12849  23457659.2104   23457665.3064
  23035944.961    -7511021.45949  -5847987.44249  23035944.8474   23035950.5524
  21177157.607    -4191939.24349  -3216690.76849  21177157.5894   21177162.6714
  23009618.149     9802324.97049   7620537.79849  23009617.7934   23009623.1224
  21227135.893    -5958336.46749  -4637135.08749  21227135.4804   21227140.8974
  24047241.729    -8602945.73749  -6612193.34549  24047241.7014   24047247.0124
 96 12  9 17 33  0.0010000  0  6 21 29 25  1 15 14
  23471063.349     9140344.33949   7108430.98049  23471063.6514   23471069.3534
  23024065.105    -7573449.62149  -5896632.71749  23024065.2714   23024070.6184
  21173816.529    -4209496.71349  -3230371.91449  21173816.5224   21173821.5714
  23022803.051     9871611.91349   7674527.61649  23022802.9054   23022808.7094
  21221575.825    -5987554.80349  -4659902.61049  21221575.1394   21221580.8554
  24030547.012    -8690677.36449  -6680555.62249  24030547.7284   24030552.0314
 96 12  9 17 33 30.0010000  0  6 21 29 25  1 15 14
  23484457.574     9210731.57949   7163278.15849  23484456.4894   23484463.9284
  23012168.980    -7635964.61749  -5945345.66849  23012169.6264   23012174.2354
  21170525.114    -4226793.37449  -3243849.83549  21170525.0404   21170530.0034
  23035945.708     9940676.94149   7728344.50149  23035945.0274   23035951.3454
  21216074.219    -6016465.31549  -4682430.26749  21216073.3784   21216079.3204
  24013799.395    -8778686.32849  -6749133.98749  24013799.3734   24013805.0014
 96 12  9 17 34  0.0010000  0  6 21 29 25  1 15 14
  23497845.583     9281085.71349   7218099.52749  23497845.2204   23497852.4594
  23000258.395    -7698555.93649  -5994118.11749  23000258.7824   23000263.4084
  21167284.553    -4243822.42149  -3257119.22949  21167284.6744   21167289.3164
  23049043.312    10009505.20549   7781976.88249  23049042.6304   23049049.1104
  21210633.448    -6045056.33249  -4704708.97449  21210633.0144   21210638.9924
  23997000.134    -8866966.72749  -6817923.86249  23996999.8434   23997006.3454
 96 12  9 17 34 30.0010000  0  6 21 29 25  1 15 14
  23511215.176     9351343.11549   7272845.52649  23511214.4054   23511221.8704
  22988318.970    -7761298.12449  -6043008.11649  22988318.7384   22988323.5934
  21164077.150    -4260677.40749  -3270252.98249  21164077.3444   21164082.0194
  23062078.886    10078008.52949   7835356.06249  23062077.9964   23062084.3894
  21205240.208    -6073398.28949  -4726793.60549  21205240.1084   21205245.7574
  23980136.075    -8955587.86449  -6886979.24249  23980134.8384   23980141.9304
 96 12  9 17 35  0.0010000  0  6 21 29 25  1 15 14
  23524602.419     9421692.89449   7327663.49349  23524602.8364   23524608.4044
  22976386.012    -7824005.90749  -6091871.30549  22976385.3194   22976392.1734
  21160938.006    -4277174.01149  -3283107.48249  21160938.0374   21160942.7934
  23075092.969    10146397.77349   7888646.34249  23075092.9164   23075098.4864
  21199932.265    -6101292.26549  -4748529.16649  21199931.7434   21199937.2204
  23963244.282    -9044354.43949  -6956147.98849  23963244.3214   23963251.3014
 96 12  9 17 35 30.0010000  0  6 21 29 25  1 15 14
  23537978.449     9491984.05849   7382435.78749  23537978.5574   23537984.3284
  22964430.260    -7886832.86949  -6140827.35149  22964430.9154   22964436.5644
  21157838.939    -4293459.98949  -3295797.85749  21157839.2034   21157843.8874
  23088058.366    10214530.85049   7941737.02549  23088058.1604   23088063.8374
  21194681.464    -6128885.18449  -4770030.13449  21194680.9084   21194686.8144
  23946296.082    -9133417.67549  -7025547.88049  23946295.6444   23946301.2174
 96 12  9 17 36  0.0010000  0  6 21 29 25  1 15 14
  23551350.854     9562256.00249   7437193.09749  23551350.6494   23551356.8834
  22952462.851    -7949723.38249  -6189832.94049  22952462.2714   22952468.4854
  21154790.232    -4309481.40449  -3308282.06949  21154790.3734   21154794.9324
  23100984.058    10282455.61249   7994665.39449  23100984.0424   23100989.3574
  21189498.513    -6156121.68549  -4791253.37349  21189497.8564   21189503.2824
  23929303.396    -9222714.17949  -7095129.53749  23929303.4384   23929309.6344
 96 12  9 17 36 30.0010000  0  6 21 29 25  1 15 14
  23564710.005     9632459.52749   7491897.09849  23564709.0414   23564716.4534
  22940476.867    -8012709.39749  -6238912.92749  22940476.3594   22940482.2054
  21151786.797    -4325264.65849  -3320580.70449  21151786.7234   21151791.6564
  23113863.302    10350136.23449   8047403.51449  23113862.9464   23113868.7334
  21184375.892    -6183041.33049  -4812229.71749  21184375.3024   21184380.7514
  23912259.113    -9312281.84849  -7164922.50149  23912259.0384   23912264.8014
 96 12  9 17 37  0.0010000  0  6 21 29 25  1 15 14
  23578062.183     9702627.45549   7546573.36049  23578061.2884   23578068.7894
  22928480.744    -8075749.26349  -6288034.89049  22928481.2434   22928486.3844
  21148838.710    -4340756.92949  -3332652.60649  21148838.8044   21148843.7154
  23126702.571    10417607.33249   8099978.35649  23126702.0674   23126708.0904
  21179320.343    -6209608.30949  -4832931.25249  21179319.3624   21179325.5514
  23895167.215    -9402100.12749  -7234910.78349  23895167.8704   23895172.6404
 96 12  9 17 37 30.0010000  0  6 21 29 25  1 15 14
  23591402.973     9772734.81849   7601202.42949  23591402.2624   23591410.3484
  22916467.541    -8138879.16849  -6337227.00149  22916467.2104   22916472.9204
  21145939.922    -4355990.39149  -3344522.83049  21145939.9904   21145944.7674
  23139493.794    10484825.74249   8152356.29449  23139493.7024   23139499.4404
  21174325.250    -6235857.08149  -4853384.82949  21174324.4904   21174330.5434
  23878020.183    -9492207.36249  -7305124.16749  23878019.9214   23878027.1304
 96 12  9 17 38  0.0010000  0  6 21 29 25  1 15 14
  23604728.412     9842759.66849   7655767.19149  23604728.6064   23604737.1734
  22904434.708    -8202111.32349  -6386498.79149  22904434.8904   22904439.9194
  21143084.459    -4370995.99049  -3356215.49549  21143084.5574   21143089.6164
  23152233.573    10551773.34949   8204523.22049  23152233.3224   23152239.2124
  21169385.768    -6261813.87149  -4873610.89449  21169385.1404   21169391.0364
  23860811.755    -9582638.11049  -7375589.64449  23860811.0244   23860817.0874
 96 12  9 17 38 30.0010000  0  6 21 29 25  1 15 14
  23618033.223     9912676.79349   7710248.01949  23618033.8154   23618041.1044
  22892376.087    -8265479.97449  -6435876.96349  22892376.3684   22892381.0884
  21140263.319    -4385820.89549  -3367767.35649  21140263.0004   21140268.4794
  23164916.539    10618422.20549   8256457.36649  23164916.5824   23164921.5334
  21164494.640    -6287516.85349  -4893639.19349  21164494.2954   21164499.6834
  23843531.532    -9673446.73449  -7446349.57249  23843532.2764   23843537.5094
 96 12  9 17 39  0.0010000  0  6 21 29 25  1 15 14
  23631339.572     9982602.20049   7764735.31649  23631339.6544   23631347.0834
  22880307.261    -8328902.03149  -6485296.70849  22880306.6034   22880312.2614
  21137496.738    -4400359.29749  -3379095.97749  21137496.7554   21137501.5964
  23177562.681    10684877.88949   8308240.99049  23177562.7274   23177567.9004
  21159672.342    -6312858.66849  -4913386.06649  21159671.7444   21159677.2994
  23826200.302    -9764522.73749  -7517317.83349  23826199.3554   23826206.2994
 96 12  9 17 39 30.0010000  0  6 21 29 25  1 15 14
  23644659.154    10052597.15449   7819276.79649  23644659.3734   23644667.1584
  22868241.056    -8392309.85049  -6534705.38449  22868241.4864   22868246.5104
  21134797.261    -4414545.37249  -3390150.04149  21134797.5144   21134802.0404
  23190186.943    10751218.74549   8359935.12849  23190187.0784   23190193.0494
  21154932.895    -6337764.65749  -4932793.33349  21154932.2954   21154938.3514
  23808834.302    -9855780.01949  -7588427.34949  23808834.4474   23808839.9844
 96 12  9 17 40  0.0010000  0  6 21 29 25  1 15 14
  23657967.862    10122534.15949   7873773.10849  23657967.9104   23657975.5574
  22856155.191    -8455822.28049  -6584195.56149  22856155.2034   22856160.7154
  21132142.715    -4428495.34749  -3401020.14149  21132143.0324   21132147.5064
  23202762.479    10817303.70649   8411429.86649  23202762.4724   23202767.8474
  21150252.669    -6362359.21949  -4951957.92949  21150252.2354   21150258.3454
  23791410.120    -9947345.38549  -7659776.96649  23791411.1394   23791417.4604
 96 12  9 17 40 30.0010000  0  6 21 29 25  1 15 14
  23671248.987    10192325.49149   7928155.92849  23671249.2854   23671255.2604
  22844026.394    -8519560.12849  -6633861.37249  22844026.9794   22844031.3044
  21129517.351    -4442292.07749  -3411770.82949  21129517.4794   21129522.2544
  23215268.417    10883023.06349   8462639.71049  23215268.4944   23215274.3494
  21145614.552    -6386732.87249  -4970950.38349  21145614.3864   21145620.1004
  23773910.806   -10039305.72349  -7731434.31749  23773911.1444   23773916.8524
 96 12  9 17 41  0.0010000  0  6 21 29 25  1 15 14
  23684508.219    10262003.08149   7982450.10549  23684508.3864   23684515.2994
  22831862.115    -8583483.97349  -6683672.14949  22831862.0914   22831867.1174
  21126929.430    -4455891.62449  -3422367.87449  21126929.5814   21126934.3444
  23227710.929    10948408.66949   8513589.48949  23227710.7504   23227716.8924
  21141025.112    -6410851.13749  -4989743.84449  21141024.7134   21141030.2824
  23756344.393   -10131617.82649  -7803365.78749  23756343.7554   23756350.0484
 96 12  9 17 41 30.0010000  0  6 21 29 25  1 15 14
  23697761.458    10331649.76649   8036720.19849  23697761.1914   23697768.5274
  22819683.407    -8647482.88549  -6733541.39649  22819683.7124   22819688.7294
  21124394.291    -4469214.25649  -3432749.13749  21124394.4464   21124399.0364
  23240107.062    11013550.37249   8564349.22849  23240107.1394   23240112.7414
  21136500.503    -6434628.53549  -5008271.69649  21136500.0364   21136505.8494
  23738727.282   -10224196.03149  -7875504.61149  23738727.2614   23738732.6544
 96 12  9 17 42  0.0010000  0  6 21 29 25  1 15 14
  23711034.222    10401398.70449   8091069.97149  23711032.6444   23711040.9074
  22807513.524    -8711435.55849  -6783374.60649  22807512.4984   22807519.3614
  21121937.955    -4482122.65049  -3442807.62349  21121937.7674   21121942.5804
  23252479.418    11078567.56849   8615011.95549  23252479.3934   23252485.1864
  21132064.584    -6457939.17549  -5026435.84449  21132063.9774   21132069.8304
  23721083.921   -10316912.36949  -7947751.08649  23721083.9654   23721089.6454
 96 12  9 17 42 30.0010000  0  6 21 29 25  1 15 14
  23724309.434    10471160.89049   8145430.07749  23724307.7834   23724316.4184
  22795338.238    -8775415.86649  -6833229.33649  22795338.0764   22795344.3074
  21119543.177    -4494706.97449  -3452613.58349  21119542.7254   21119547.8644
  23264816.086    11143396.32249   8665527.84749  23264816.2734   23264821.4974
  21127702.823    -6480859.66949  -5044295.97549  21127701.8164   21127708.0654
  23703400.382   -10409840.14549  -8020162.30249  23703399.9884   23703406.3164
 96 12  9 17 43  0.0010000  0  6 21 29 25  1 15 14
  23737579.275    10540894.68149   8199768.04049  23737579.2364   23737587.7524
  22783158.203    -8839423.07749  -6883105.05849  22783157.9284   22783163.5124
  21117201.439    -4507012.26849  -3462202.12449  21117201.3464   21117206.4224
  23277112.262    11208012.50249   8715878.08549  23277112.2614   23277117.4554
  21123410.241    -6503416.92549  -5061873.06649  21123409.9584   21123415.2904
  23685672.264   -10503001.96249  -8092755.90849  23685671.6714   23685678.5794
 96 12  9 17 43 30.0010000  0  6 21 29 25  1 15 14
  23750865.751    10610714.16649   8254172.79349  23750866.0084   23750873.7354
  22770993.452    -8903348.70849  -6932917.18049  22770993.2794   22770998.5784
  21114933.717    -4518929.13749  -3471487.99849  21114933.8054   21114938.5934
  23289389.799    11272531.36649   8766152.48649  23289389.5114   23289395.5474
  21119210.041    -6525489.73949  -5079072.66649  21119209.7454   21119215.1834
  23667922.381   -10596277.91849  -8165438.45249  23667921.5894   23667928.1554
 96 12  9 17 44  0.0010000  0  6 21 29 25  1 15 14
  23764176.326    10680660.50249   8308676.36049  23764176.2234   23764183.7034
  22758851.491    -8967154.47149  -6982635.91849  22758851.3854   22758857.2854
  21112746.316    -4530424.25249  -3480445.22849  21112746.2804   21112751.0984
  23301655.246    11336986.22949   8816377.01449  23301654.6804   23301660.8834
  21115110.563    -6547032.80749  -5095859.47549  21115109.9344   21115115.8314
  23650157.433   -10689633.10149  -8238182.72649  23650157.8364   23650162.9864
 96 12  9 17 44 30.0010000  0  6 21 29 25  1 15 14
  23777504.574    10750700.88249   8363253.21849  23777503.6174   23777511.5014
  22746727.424    -9030867.01349  -7032282.02649  22746727.1784   22746732.7394
  21110627.232    -4541560.13849  -3489122.54549  21110627.4074   21110631.9424
  23313902.150    11401344.17049   8866526.03649  23313901.9824   23313907.1874
  21111104.805    -6568083.05249  -5112262.26349  21111104.4074   21111109.8164
  23632369.810   -10783107.57149  -8311019.97449  23632368.9314   23632375.2184
 96 12  9 17 45  0.0010000  0  6 21 29 25  1 15 14
  23790834.609    10820752.14949   8417838.58449  23790833.7694   23790842.8424
  22734601.793    -9094586.94849  -7081933.89049  22734601.6834   22734607.7484
  21108559.044    -4552429.05849  -3497591.83349  21108559.1394   21108563.7374
  23326113.265    11465513.47749   8916528.06249  23326113.0084   23326118.6804
  21107175.452    -6588732.41349  -5128352.67949  21107175.2974   21107180.7894
  23614543.189   -10876786.48349  -8384016.49149  23614542.8224   23614549.8154
 96 12  9 17 45 30.0010000  0  6 21 29 25  1 15 14
  23804172.221    10890842.09449   8472454.08049  23804172.4044   23804179.3024
  22722477.318    -9158301.80849  -7131581.80949  22722477.9264   22722482.9014
  21106549.525    -4562989.26949  -3505820.57249  21106549.4504   21106554.3134
  23338293.292    11529519.62449   8966402.95249  23338292.7364   23338298.3544
  21103327.863    -6608952.27249  -5144108.41649  21103327.5204   21103332.8514
  23596682.295   -10970645.91649  -8457153.70449  23596682.5074   23596687.8894
 96 12  9 17 46  0.0010000  0  6 21 29 25  1 15 14
  23817517.620    10960971.86649   8527100.60449  23817518.5354   23817525.0274
  22710355.181    -9222004.57149  -7181220.30049  22710354.4394   22710360.0774
  21104599.932    -4573234.06049  -3513803.52749  21104599.9594   21104604.6634
  23350442.836    11593365.87049   9016153.23949  23350442.1854   23350448.0414
  21099561.724    -6628743.72349  -5159530.32349  21099560.9884   21099566.8904
  23578786.930   -11064686.31449  -8530431.90549  23578787.1154   23578793.9754
 96 12  9 17 46 30.0010000  0  6 21 29 25  1 15 14
  23830870.544    11031140.51449   8581777.42249  23830870.9914   23830877.3984
  22698232.682    -9285707.28949  -7230858.74149  22698233.2604   22698238.8554
  21102713.534    -4583146.81249  -3521527.75149  21102713.4854   21102718.3074
  23362563.863    11657062.54749   9065786.97949  23362563.3944   23362569.3124
  21095876.580    -6648109.02049  -5174620.16449  21095875.9094   21095882.3974
  23560859.305   -11158896.81849  -8603842.66949  23560858.8074   23560865.7714
 96 12  9 17 47  0.0010000  0  6 21 29 25  1 15 14
  23844245.344    11101425.59649   8636544.94749  23844244.6134   23844253.2164
  22686122.748    -9349345.92849  -7280447.27049  22686122.4244   22686128.2774
  21100911.839    -4592614.40749  -3528905.10349  21100911.7334   21100916.7164
  23374670.782    11720685.19449   9115363.02249  23374670.0634   23374676.5724
  21092287.704    -6666968.71249  -5189316.02949  21092287.3934   21092293.3794
  23542914.180   -11253198.82349  -8677324.73449  23542914.3704   23542920.3404
 96 12  9 17 47 30.0010000  0  6 21 29 25  1 15 14
  23857611.293    11171664.06949   8691276.19449  23857610.7104   23857618.5364
  22673991.157    -9413097.73249  -7330123.98549  22673991.1734   22673996.4924
  21099164.274    -4601797.73449  -3536060.94149  21099164.3924   21099168.7984
  23386731.430    11784064.97649   9164749.83749  23386731.4634   23386737.1294
  21088763.375    -6685489.37349  -5203747.71349  21088762.7634   21088768.6744
  23524918.624   -11347766.45549  -8751013.80049  23524918.4284   23524924.0854
 96 12  9 17 48  0.0010000  0  6 21 29 25  1 15 14
  23870977.311    11241902.82349   8746007.63849  23870977.1064   23870985.4104
  22661843.620    -9476934.07649  -7379866.54849  22661844.2124   22661849.3594
  21097476.682    -4610666.14349  -3542971.39749  21097476.6214   21097481.4894
  23398753.071    11847239.50349   9213976.72049  23398752.8114   23398759.0404
  21085310.082    -6703636.43749  -5217888.28849  21085309.8444   21085315.4914
  23506880.749   -11442556.17049  -8824875.90049  23506880.2454   23506886.9714
 96 12  9 17 48 30.0010000  0  6 21 29 25  1 15 14
  23884341.710    11312133.39849   8800732.73249  23884342.2744   23884349.3074
  22649676.001    -9540875.85749  -7429691.29349  22649675.9664   22649680.9974
  21095845.610    -4619237.28849  -3549650.21749  21095845.3904   21095850.3364
  23410732.583    11910192.81249   9263031.22749  23410732.1574   23410738.5794
  21081925.973    -6721419.97349  -5231745.59449  21081925.0974   21081931.3004
  23488799.166   -11537575.67749  -8898917.05749  23488799.0134   23488805.3104
 96 12  9 17 49  0.0010000  0  6 21 29 25  1 15 14
  23897698.055    11382320.50049   8855423.91849  23897698.3284   23897704.8514
  22637484.364    -9604942.45649  -7479613.30249  22637484.6354   22637489.8134
  21094263.143    -4627553.33849  -3556130.26249  21094263.3854   21094267.8124
  23422663.566    11972890.59649   9311886.60749  23422663.2384   23422669.5374
  21078605.667    -6738868.16949  -5245341.59649  21078605.0154   21078610.9964
  23470666.595   -11632862.93649  -8973166.85649  23470666.9354   23470671.9604
 96 12  9 17 49 30.0010000  0  6 21 29 25  1 15 14
  23911084.745    11452667.14149   8910239.41449  23911085.1104   23911091.6754
  22625314.035    -9668897.81049  -7529448.60749  22625313.3914   22625319.5094
  21092765.096    -4635426.19149  -3562264.95049  21092765.3524   21092769.7914
  23434584.605    12035536.16749   9360701.31649  23434584.8154   23434591.0474
  21075390.202    -6755765.56249  -5258508.39349  21075389.8014   21075395.2134
  23452526.270   -11728191.38149  -9047448.75949  23452526.2244   23452533.0334
 96 12  9 17 50  0.0010000  0  6 21 29 25  1 15 14
  23924473.097    11523022.61149   8965061.79449  23924473.1524   23924481.0954
  22613143.665    -9732853.31449  -7579284.04749  22613143.7364   22613148.9654
  21091325.642    -4642991.21649  -3568159.77649  21091325.5694   21091330.3484
  23446467.727    12097981.51249   9409359.99449  23446467.4784   23446473.8604
  21072252.804    -6772253.05849  -5271355.79849  21072252.4134   21072257.8264
  23434353.082   -11823691.94149  -9121864.74549  23434353.2854   23434358.4364
 96 12  9 17 50 30.0010000  0  6 21 29 25  1 15 14
  23937843.611    11593284.98849   9019811.63049  23937844.4354   23937850.8494
  22600959.542    -9796881.19849  -7629175.88749  22600959.7814   22600965.2984
  21089927.178    -4650340.04349  -3573886.13849  21089927.0374   21089931.7734
  23458293.875    12160128.03249   9457785.82849  23458293.6914   23458300.7614
  21069175.785    -6788422.96549  -5283955.73549  21069174.9844   21069181.0924
  23416129.083   -11919459.45249  -9196488.77949  23416128.4824   23416134.8804
 96 12  9 17 51  0.0010000  0  6 21 29 25  1 15 14
  23951220.184    11663578.80849   9074585.98849  23951220.6354   23951226.6014
  22588787.745    -9860845.05849  -7679017.83649  22588788.3874   22588792.9724
  21088595.530    -4657337.92549  -3579339.02949  21088595.6894   21088600.2144
  23470086.668    12222099.02149   9506074.88649  23470086.4174   23470092.5064
  21066184.752    -6804140.39349  -5296203.07849  21066183.7744   21066189.9664
  23397880.572   -12015355.12249  -9271212.65849  23397880.6544   23397888.1994
 96 12  9 17 51 30.0010000  0  6 21 29 25  1 15 14
  23964589.170    11733832.62549   9129329.17049  23964588.8604   23964595.6764
  22576611.870    -9924830.25249  -7728876.41349  22576611.9274   22576616.1934
  21087316.744    -4664058.19449  -3584575.59949  21087316.8644   21087321.2004
  23481829.805    12283808.91849   9554160.50949  23481829.9174   23481835.8744
  21063264.274    -6819487.15549  -5308161.60549  21063264.0064   21063269.7054
  23379594.183   -12111451.26449  -9346092.76149  23379593.6744   23379600.7324
 96 12  9 17 52  0.0010000  0  6 21 29 25  1 15 14
  23977980.172    11804202.61349   9184162.86749  23977980.2304   23977987.6094
  22564455.069    -9988714.57049  -7778656.38949  22564455.8524   22564460.2804
  21086120.347    -4670345.33249  -3589474.66049  21086120.2434   21086125.0274
  23493554.603    12345422.50449   9602171.07249  23493554.6814   23493560.6724
  21060442.782    -6834314.38149  -5319715.28949  21060442.0594   21060448.1994
  23361294.742   -12207615.54049  -9421025.96249  23361295.0924   23361300.4704
 96 12  9 17 52 30.0010000  0  6 21 29 25  1 15 14
  23991401.239    11874731.15949   9239120.11949  23991400.3194   23991408.9124
  22552319.104   -10052490.39849  -7828351.81049  22552319.3244   22552323.6764
  21085010.320    -4676178.53649  -3594020.00149  21085010.3214   21085014.9804
  23505269.093    12406982.69249   9650140.02649  23505268.4114   23505274.6464
  21057728.073    -6848579.65749  -5330831.09049  21057727.4094   21057733.6734
  23342989.963   -12303807.88049  -9495981.00449  23342989.6454   23342996.6484
 96 12  9 17 53  0.0010000  0  6 21 29 25  1 15 14
  24004818.232    11945238.42349   9294060.77449  24004819.0304   24004825.5354
  22540167.503   -10116346.99749  -7878110.18449  22540167.4774   22540172.1724
  21083951.314    -4681743.47149  -3598356.30249  21083951.3644   21083956.1144
  23516941.260    12468319.70149   9697935.06149  23516940.6514   23516947.0054
  21055086.801    -6862459.51849  -5341646.57949  21055086.7774   21055092.3404
  23324646.724   -12400202.66349  -9571093.80649  23324647.3834   23324652.5464
 96 12  9 17 53 30.0010000  0  6 21 29 25  1 15 14
  24018228.101    12015707.83849   9348971.92749  24018227.7574   24018234.8694
  22527998.872   -10180293.66849  -7927938.76949  22527999.5304   22528003.7074
  21082940.951    -4687052.83149  -3602493.45849  21082941.1544   21082945.7074
  23528571.037    12529434.68449   9745557.11449  23528570.1104   23528576.9574
  21052516.654    -6875966.31849  -5352171.36349  21052516.2064   21052522.5804
  23306262.816   -12496811.00949  -9646373.01649  23306262.2204   23306268.5224
 96 12  9 17 54  0.0010000  0  6 21 29 25  1 15 14
  24031621.532    12086089.38349   9403814.63849  24031621.3754   24031627.6994
  22515805.405   -10244371.17149  -7977869.26449  22515804.7234   22515809.9574
  21081967.735    -4692167.49649  -3606478.90949  21081967.9674   21081972.7034
  23540151.034    12590288.09149   9792975.32649  23540151.0934   23540155.9814
  21050009.225    -6889142.83149  -5362438.77549  21050008.8024   21050014.7914
  23287830.763   -12593672.07549  -9721849.15949  23287830.6204   23287837.5994
 96 12  9 17 54 30.0010000  0  6 21 29 25  1 15 14
  24045026.916    12156534.43249   9458706.83349  24045026.6244   24045034.3864
  22503619.751   -10308406.15049  -8027766.65849  22503619.6284   22503624.4284
  21081058.870    -4696943.69049  -3610200.61549  21081058.9074   21081063.6484
  23551708.577    12651023.34249   9840301.48749  23551708.3924   23551713.9034
  21047593.343    -6901838.89949  -5372331.82049  21047593.2544   21047598.8554
  23269381.239   -12690624.92749  -9797396.80049  23269380.6734   23269387.4224
 96 12  9 17 55  0.0010000  0  6 21 29 25  1 15 14
  24058428.762    12226961.67949   9513585.16649  24058428.2174   24058435.3774
  22491428.536   -10372471.11949  -8077687.41149  22491428.7784   22491433.7674
  21080201.059    -4701451.64149  -3613713.31249  21080200.9914   21080205.9284
  23563227.193    12711554.44749   9887468.55649  23563226.9574   23563232.6334
  21045252.261    -6914141.86349  -5381918.55249  21045251.5764   21045257.6364
  23250895.375   -12787768.67549  -9873093.20849  23250895.6204   23250901.4604
 96 12  9 17 55 30.0010000  0  6 21 29 25  1 15 14
  24071845.451    12297466.94149   9568524.26649  24071844.8594   24071854.4544
  22479244.697   -10436497.97149  -8127578.44849  22479244.8234   22479249.7244
  21079410.366    -4705606.37549  -3616950.77249  21079410.1684   21079415.3064
  23574720.506    12771952.67149   9934532.07649  23574720.1914   23574726.4124
  21043000.505    -6925974.46849  -5391138.76349  21042999.8944   21043005.7214
  23232386.200   -12885035.37749  -9948885.43049  23232386.4944   23232391.6604
 96 12  9 17 56  0.0010000  0  6 21 29 25  1 15 14
  24085280.923    12368069.82149   9623539.43649  24085281.0174   24085287.9414
  22467067.892   -10500487.57449  -8177440.47649  22467067.4934   22467073.2074
  21078689.748    -4709393.10149  -3619901.47549  21078689.7374   21078694.8004
  23586186.938    12832208.93149   9981484.96549  23586186.2334   23586192.8594
  21040838.110    -6937337.47249  -5399993.05849  21040837.7614   21040843.7284
  23213852.862   -12982428.36549 -10024776.04749  23213852.2154   23213858.7384
 96 12  9 17 56 30.0010000  0  6 21 29 25  1 15 14
  24098727.540    12438731.12349   9678600.11749  24098727.3084   24098734.8324
  22454888.317   -10564491.09249  -8227313.32049  22454888.4544   22454893.4284
  21078034.506    -4712836.82749  -3622584.90249  21078033.8214   21078038.9834
  23597616.551    12892271.16749  10028286.66049  23597616.5404   23597622.6094
  21038756.443    -6948277.16849  -5408517.50849  21038756.1224   21038761.9104
  23195285.357   -13080001.44049 -10100807.00849  23195285.6184   23195291.0404
 96 12  9 17 57  0.0010000  0  6 21 29 25  1 15 14
  24112181.468    12509432.02549   9733691.66449  24112180.7354   24112188.7484
  22442700.400   -10628538.66149  -8277220.51749  22442700.3324   22442705.2494
  21077443.944    -4715939.68249  -3625002.71849  21077443.8294   21077448.8264
  23609006.853    12952127.33349  10074927.80049  23609006.4954   23609012.5764
  21036752.142    -6958810.11749  -5416725.01149  21036751.8904   21036756.9654
  23176681.500   -13177765.89549 -10176987.09249  23176680.8284   23176688.2174
 96 12  9 17 57 30.0010000  0  6 21 29 25  1 15 14
  24125665.993    12580292.99049   9788907.93249  24125665.7894   24125672.2744
  22430530.135   -10692493.83349  -8327055.71549  22430530.2574   22430535.1354
  21076942.901    -4718572.64949  -3627054.38049  21076943.3864   21076947.7464
  23620381.971    13011903.13949  10121506.32549  23620382.1504   23620387.2054
  21034849.299    -6968809.78149  -5424516.96449  21034848.8974   21034854.3864
  23158068.536   -13275576.46549 -10253203.08449  23158067.9134   23158075.2424
 96 12  9 17 58  0.0010000  0  6 21 29 25  1 15 14
  24139158.957    12651197.86949   9844158.42249  24139158.4284   24139166.1634
  22418362.510   -10756435.20849  -8376880.16349  22418363.2404   22418367.6714
  21076512.681    -4720833.89449  -3628816.39349  21076512.8544   21076517.4004
  23631724.680    13071509.49849  10167952.81049  23631724.1684   23631730.1614
  21033029.700    -6978372.30849  -5431968.29449  21033029.1874   21033035.2254
  23139432.151   -13373511.44549 -10329516.06649  23139431.6154   23139438.0104
 96 12  9 17 58 30.0010000  0  6 21 29 25  1 15 14
  24152651.801    12722102.62249   9899408.79949  24152650.5884   24152658.4434
  22406196.197   -10820370.26649  -8426699.68149  22406196.4634   22406201.7764
  21076145.378    -4722763.93849  -3630320.32049  21076145.1584   21076149.9354
  23643032.845    13130934.36749  10214257.87049  23643032.1594   23643038.8534
  21031290.615    -6987511.13449  -5439089.46149  21031290.1214   21031296.1074
  23120770.537   -13471578.16849 -10405931.66849  23120770.7334   23120776.9044
 96 12  9 17 59  0.0010000  0  6 21 29 25  1 15 14
  24166191.143    12793253.00449   9954850.57149  24166190.4444   24166198.3644
  22394080.028   -10884041.77349  -8476313.84349  22394080.2314   22394084.6944
  21075890.136    -4724104.88749  -3631365.22549  21075890.4254   21075894.8654
  23654356.186    13190439.90349  10260625.78749  23654356.0404   23654361.9664
  21029682.570    -6995961.22749  -5445673.96049  21029682.0344   21029687.8964
  23102135.487   -13569506.61149 -10482239.54449  23102135.2754   23102141.3214
 96 12  9 17 59 30.0010000  0  6 21 29 25  1 15 14
  24179763.272    12864575.28649  10010426.30349  24179763.9684   24179771.7154
  22382001.447   -10947515.83949  -8525774.14749  22382001.6234   22382005.8714
  21075729.585    -4724949.29949  -3632023.21949  21075729.8564   21075734.3034
  23665678.704    13249939.77649  10306989.28449  23665678.8714   23665684.4944
  21028192.118    -7003793.55649  -5451777.07949  21028191.7064   21028197.8164
  23083510.961   -13667378.91949 -10558503.67349  23083511.0284   23083516.7954
 96 12  9 18  0  0.0010000  0  6 21 29 25  1 15 14
  24193378.585    12936124.81949  10066179.11449  24193378.8024   24193387.3594
  22369969.145   -11010745.92049  -8575044.33849  22369968.7934   22369974.2544
  21075670.742    -4725258.87749  -3632264.45749  21075670.5574   21075675.0804
  23677009.165    13309481.25249  10353385.19849  23677008.8084   23677015.2494
  21026830.806    -7010947.65149  -5457351.71149  21026830.3484   21026836.2484
  23064908.047   -13765138.33049 -10634679.83349  23064907.8274   23064913.4914
 96 12  9 18  0 30.0010000  0  6 21 29 25  1 15 14
  24207033.935    13007884.06049  10122095.34949  24207034.5294   24207041.4294
  22357974.887   -11073775.59349  -8624158.35949  22357974.9364   22357980.5054
  21075708.600    -4725059.38949  -3632109.01849  21075708.6614   21075713.3884
  23688338.556    13369017.45949  10399777.01949  23688338.1754   23688345.6744
  21025593.040    -7017452.39349  -5462420.35349  21025592.4754   21025598.6864
  23046317.891   -13862830.18449 -10710803.35949  23046318.0564   23046323.5504
 96 12  9 18  1  0.0010000  0  6 21 29 25  1 15 14
  24220742.895    13079925.10949  10178231.12649  24220741.4004   24220749.8754
  22346025.751   -11136568.79149  -8673088.12049  22346025.8384   22346030.4884
  21075853.643    -4724297.30549  -3631515.19649  21075853.6404   21075858.1974
  23699674.703    13428589.97549  10446197.12549  23699674.3474   23699680.6854
  21024485.719    -7023271.20849  -5466954.51049  21024484.8324   21024491.4714
  23027746.456   -13960424.14749 -10786850.60549  23027746.6634   23027752.5564
 96 12  9 18  1 30.0010000  0  6 21 29 25  1 15 14
  24234470.029    13152062.00949  10234441.63949  24234471.2654   24234476.5254
  22334087.269   -11199305.72849  -8721974.03449  22334087.1434   22334092.7784
  21076067.867    -4723171.67849  -3630638.08749  21076067.9924   21076072.4454
  23710981.649    13488008.43449  10492497.19549  23710981.5894   23710987.8004
  21023470.544    -7028605.56649  -5471111.17749  21023470.4544   21023476.0654
  23009156.949   -14058112.71449 -10862971.56849  23009156.2034   23009162.4854
 96 12  9 18  2  0.0010000  0  6 21 29 25  1 15 14
  24248187.138    13224146.12649  10290610.99249  24248187.5794   24248195.3524
  22322130.158   -11262140.89449  -8770936.50149  22322130.1314   22322135.5554
  21076325.816    -4721816.34849  -3629581.99049  21076325.6334   21076330.3404
  23722233.494    13547137.10849  10538571.46449  23722233.4604   23722239.5004
  21022519.147    -7033605.95249  -5475007.60549  21022518.8234   21022524.6844
  22990523.639   -14156031.24949 -10939271.72349  22990523.8624   22990529.4814
 96 12  9 18  2 30.0010000  0  6 21 29 25  1 15 14
  24261954.076    13296491.46149  10346983.91849  24261953.9294   24261960.4074
  22310213.987   -11324760.80649  -8819731.22549  22310213.8904   22310218.9644
  21076688.803    -4719908.48149  -3628095.33949  21076688.9824   21076693.3644
  23733493.177    13606307.08449  10584677.93849  23733492.7954   23733499.7894
  21021689.701    -7037964.78849  -5478404.11849  21021688.9384   21021695.1084
  22971905.381   -14253871.36749 -11015510.76849  22971905.6114   22971909.9304
 96 12  9 18  3  0.0010000  0  6 21 29 25  1 15 14
  24275739.466    13368933.14349  10403431.90249  24275739.1064   24275747.1604
  22298310.008   -11387315.89349  -8868475.43449  22298310.1514   22298315.1814
  21077124.818    -4717617.54049  -3626310.19749  21077124.9404   21077129.6044
  23744733.086    13665373.87649  10630703.98149  23744732.6444   23744739.4224
  21020952.173    -7041839.92249  -5481423.72149  21020951.8084   21020958.2394
  22953275.108   -14351774.26649 -11091798.73849  22953275.6384   22953280.5834
 96 12  9 18  3 30.0010000  0  6 21 29 25  1 15 14
  24289573.350    13441630.31149  10460078.98949  24289572.6394   24289581.5084
  22286452.255   -11449629.19449  -8917031.26649  22286451.9504   22286456.8594
  21077666.208    -4714772.35049  -3624093.17249  21077666.1854   21077671.2734
  23755987.081    13724513.46649  10676786.73749  23755986.7334   23755993.1764
  21020342.028    -7045046.65249  -5483922.49049  21020341.7304   21020347.4474
  22934670.458   -14449542.99149 -11167982.16849  22934670.7584   22934675.7494
 96 12  9 18  4  0.0010000  0  6 21 29 25  1 15 14
  24303470.729    13514661.94349  10516986.69549  24303470.2984   24303479.1844
  22274655.608   -11511621.03149  -8965336.58249  22274655.2674   22274660.7834
  21078327.914    -4711294.73749  -3621383.34249  21078327.6474   21078332.7084
  23767270.592    13783808.87249  10722990.92249  23767270.2914   23767276.8594
  21019875.918    -7047496.17249  -5485831.21449  21019875.0734   21019881.2094
  22916107.608   -14547091.34149 -11243993.85749  22916107.4894   22916113.1164
 96 12  9 18  4 30.0010000  0  6 21 29 25  1 15 14
  24317422.476    13587978.70149  10574116.55449  24317422.7894   24317429.6994
  22262911.686   -11573335.87849  -9013426.07149  22262911.5874   22262917.0274
  21079099.383    -4707240.74749  -3618224.39249  21079099.3734   21079104.1034
  23778572.711    13843201.37049  10769270.74749  23778573.1264   23778579.3404
  21019544.851    -7049235.54249  -5487186.58349  21019544.3724   21019550.4684
  22897577.017   -14644470.18949 -11319873.47549  22897577.0474   22897583.2414
 96 12  9 18  5  0.0010000  0  6 21 29 25  1 15 14
  24331404.062    13661451.47049  10631367.96449  24331404.8694   24331412.4434
  22251196.719   -11634898.11449  -9061396.65449  22251196.8974   22251202.1914
  21079955.878    -4702739.77249  -3614717.14149  21079956.0604   21079960.6254
  23789867.434    13902554.54149  10815519.93049  23789867.0284   23789873.9994
  21019325.938    -7050386.42849  -5488083.39549  21019325.7344   21019331.5634
  22879056.737   -14741794.56449 -11395710.63149  22879056.7394   22879062.0634
 96 12  9 18  5 30.0010000  0  7 21 29 25  1 22 15 14
  24345402.944    13735014.76749  10688689.96649  24345402.4194   24345410.5594
  22239498.348   -11696373.26149  -9109299.37949  22239498.3964   22239503.5874
  21080887.090    -4697846.51249  -3610904.21549  21080887.0064   21080892.2634
  23801143.908    13961811.99849  10861694.52549  23801144.0214   23801149.9864
  24719354.474    -6886845.41949  -5159651.88549  24719354.2074   24719362.1494
  21019207.360    -7051010.32049  -5488569.55849  21019206.9264   21019212.9184
  22860535.120   -14839126.03149 -11471553.31249  22860534.7814   22860540.5004
 96 12  9 18  6  0.0010000  0  7 21 29 25  1 22 15 14
  24359439.769    13808778.93349  10746168.47049  24359439.4814   24359448.0024
  22227837.367   -11757652.04749  -9157049.08649  22227837.3084   22227842.8824
  21081916.929    -4692434.71849  -3606687.24049  21081916.8834   21081921.6554
  23812424.607    14021092.94949  10907887.44649  23812423.9224   23812431.1054
  24698928.287    -6994185.11349  -5243293.11449  24698928.2684   24698935.6444
  21019210.173    -7050995.65449  -5488558.14549  21019209.4744   21019215.5514
  22842032.038   -14936360.44749 -11547320.38149  22842032.0104   22842037.8314
 96 12  9 18  6 30.0010000  0  7 21 29 25  1 22 15 14
  24373519.525    13882769.08049  10803823.09349  24373518.1844   24373526.5544
  22216214.310   -11818731.32149  -9204643.32849  22216214.4754   22216219.6834
  21083050.033    -4686480.03249  -3602047.22749  21083050.1284   21083054.8214
  23823712.914    14080414.67449  10954112.14049  23823712.6674   23823719.3664
  24678493.505    -7101571.01449  -5326970.34549  24678492.7654   24678499.5124
  21019336.499    -7050331.51049  -5488040.64649  21019335.9574   21019341.8774
  22823548.283   -15033492.68149 -11623007.81449  22823548.9964   22823553.9554
 96 12  9 18  7  0.0010000  0  7 21 29 25  1 22 15 14
  24387641.176    13956978.53349  10861648.56649  24387641.9174   24387649.9254
  22204626.686   -11879624.75949  -9252092.74849  22204626.5374   22204632.0714
  21084283.672    -4679996.84649  -3596995.39749  21084283.6844   21084288.5404
  23835008.816    14139774.52449  11000366.54549  23835008.1274   23835015.2624
  24658049.473    -7209005.61349  -5410685.44649  24658048.1484   24658056.2314
  21019583.597    -7049032.62149  -5487028.54349  21019583.0454   21019589.3974
  22805081.429   -15130537.27649 -11698626.96649  22805080.7914   22805086.8594
 96 12  9 18  7 30.0010000  0  7 21 29 25  1 22 15 14
  24401785.698    14031308.28249  10919567.76849  24401784.3564   24401794.6664
  22193052.347   -11940448.18549  -9299487.63949  22193051.7604   22193057.1634
  21085597.394    -4673092.88349  -3591615.69149  21085597.3454   21085602.2684
  23846290.337    14199059.11249  11046562.29549  23846289.4974   23846297.6024
  24637579.092    -7316578.75349  -5494508.48449  24637578.8894   24637586.1704
  21019929.767    -7047213.86749  -5485611.35049  21019929.2764   21019935.0914
  22786608.169   -15227614.08249 -11774271.22449  22786608.0004   22786613.2414
 96 12  9 18  8  0.0010000  0  7 21 29 25  1 22 15 14
  24415962.502    14105807.95749  10977619.39349  24415962.6814   24415970.6744
  22181497.476   -12001168.94549  -9346802.52049  22181497.7894   22181502.8314
  21086996.382    -4665741.33449  -3585887.21749  21086996.6564   21087001.2894
  23857562.613    14258296.01049  11092720.88749  23857562.1134   23857569.6574
  24617087.120    -7424265.03249  -5578419.70849  24617085.8864   24617093.2464
  21020381.354    -7044841.11149  -5483762.47449  21020381.1534   21020386.6764
  22768136.222   -15324684.28149 -11849910.31449  22768135.8684   22768142.5604
 96 12  9 18  8 30.0010000  0  7 21 29 25  1 22 15 14
  24430154.783    14180388.38249  11035733.95049  24430154.0464   24430163.9554
  22169944.620   -12061879.80749  -9394109.68649  22169944.4474   22169950.1704
  21088458.120    -4658060.23649  -3579901.94949  21088458.1744   21088463.0354
  23868804.820    14317373.73549  11138755.42149  23868805.8904   23868810.7814
  24596550.723    -7532183.81849  -5662512.10149  24596549.0534   24596557.5904
  21020918.722    -7042017.44549  -5481562.22849  21020918.1114   21020924.1404
  22749649.357   -15421833.30949 -11925610.84149  22749648.4764   22749655.2064
 96 12  9 18  9  0.0010000  0  7 21 29 25  1 22 15 14
  24444373.591    14255108.53049  11093957.34449  24444374.0424   24444381.7734
  22158409.565   -12122496.44749  -9441343.43449  22158410.1424   22158415.3034
  21089992.771    -4649995.54649  -3573617.78049  21089993.0524   21089997.5174
  23880028.370    14376352.59649  11184712.93749  23880028.9504   23880035.3834
  24575983.950    -7640261.83749  -5746728.59249  24575982.1824   24575990.4074
  21021555.874    -7038669.30849  -5478953.30649  21021555.6204   21021561.6284
  22731165.055   -15518968.27449 -12001300.39949  22731165.4024   22731171.2174
 96 12  9 18  9 30.0010000  0  7 21 29 25  1 22 15 14
  24458623.374    14329992.15149  11152308.12949  24458622.0684   24458631.3394
  22146899.978   -12182980.27349  -9488473.70649  22146900.2104   22146905.1784
  21091609.049    -4641502.09549  -3566999.51649  21091609.4134   21091613.7514
  23891240.874    14435272.99749  11230624.89549  23891240.3784   23891246.3914
  24555393.756    -7748462.23449  -5831040.47449  24555392.5254   24555399.8194
  21022301.501    -7034751.41649  -5475900.42449  21022301.2944   21022306.9994
  22712694.463   -15616032.31649 -12076934.71149  22712694.0494   22712699.8364
 96 12  9 18 10  0.0010000  0  7 21 29 25  1 22 15 14
  24472893.431    14404981.67149  11210741.42849  24472894.1384   24472900.8874
  22135408.519   -12243368.74149  -9535529.67549  22135408.4764   22135413.7144
  21093299.416    -4632619.90149  -3560078.34249  21093299.8224   21093304.2004
  23902433.497    14494091.20949  11276457.23849  23902432.9804   23902439.5384
  24534771.711    -7856830.82549  -5915483.42349  24534770.5524   24534778.5954
  21023147.420    -7030306.32049  -5472436.72149  21023146.7984   21023152.9624
  22694231.319   -15713056.40349 -12152537.88049  22694231.4214   22694237.7214
 96 12  9 18 10 30.0000000  0  7 21 29 25  1 22 15 14
  24487188.226    14480100.54649  11269275.52749  24487187.9134   24487196.6344
  22123945.677   -12303606.59549  -9582468.26149  22123945.4314   22123950.7284
  21095072.609    -4623302.15649  -3552817.77249  21095072.8854   21095077.1454
  23913615.003    14552850.05849  11322243.30749  23913614.5794   23913621.1164
  24514131.064    -7965298.22149  -6000003.37349  24514130.5014   24514138.5464
  21024102.093    -7025289.20249  -5468527.29249  21024101.6674   21024107.7954
  22675782.381   -15810006.45249 -12228083.36449  22675782.2834   22675787.8944
 96 12  9 18 11  0.0000000  0  7 21 29 25  1 22 15 14
  24501496.261    14555289.15249  11327863.97149  24501496.3174   24501503.6504
  22112500.316   -12363752.12549  -9629334.91349  22112500.7344   22112505.0564
  21096922.717    -4613580.06649  -3545242.13049  21096922.7244   21096927.5684
  23924777.663    14611510.79449  11367952.93149  23924776.9024   23924783.8774
  24493462.918    -8073909.79549  -6084635.67449  24493462.3294   24493470.7314
  21025156.205    -7019749.72149  -5464210.82649  21025155.7984   21025161.9424
  22657335.479   -15906945.74549 -12303620.47049  22657335.6634   22657341.3894
 96 12  9 18 11 30.0000000  0  7 21 29 25  1 22 15 14
  24515818.392    14630552.38049  11386510.56149  24515818.6624   24515825.4264
  22101072.795   -12423804.72049  -9676129.13449  22101072.6164   22101078.1384
  21098854.197    -4603429.97149  -3537332.98849  21098854.1374   21098858.9754
  23935922.353    14670076.43049  11413588.45549  23935921.9264   23935928.5604
  24472769.380    -8182654.27949  -6169371.55649  24472767.9554   24472776.5024
  21026309.973    -7013687.20749  -5459486.80349  21026309.6394   21026315.3604
  22638889.879   -16003877.97649 -12379152.06449  22638889.7334   22638895.8554
 96 12  9 18 12  0.0000000  0  7 21 29 25  1 22 15 14
  24530157.388    14705904.28249  11445226.24849  24530158.3954   24530164.6724
  22089664.018   -12483759.12049  -9722846.85849  22089664.2544   22089668.7144
  21100866.370    -4592855.94049  -3529093.51049  21100866.4044   21100871.0684
  23947046.231    14728532.28249  11459138.43249  23947045.8754   23947053.4104
  24452050.930    -8291529.21349  -6254209.11649  24452048.8494   24452057.7544
  21027562.081    -7007107.54349  -5454359.81149  21027561.6024   21027567.6224
  22620442.195   -16100821.58149 -12454692.53649  22620442.3044   22620448.2224
 96 12  9 18 12 30.0000000  0  7 21 29 25  1 22 15 14
  24544457.406    14781050.21749  11503781.46649  24544457.4764   24544465.2974
  22078216.935   -12543913.27349  -9769720.20549  22078216.9784   22078222.6954
  21102903.029    -4582153.17449  -3520753.70749  21102902.8044   21102907.4314
  23958093.761    14786587.54249  11504376.25749  23958093.0774   23958099.7984
  24431250.989    -8400832.35949  -6339380.35049  24431249.9084   24431258.0704
  21028855.785    -7000309.12949  -5449062.35549  21028855.2064   21028861.1544
  22601934.938   -16198077.79149 -12530476.57349  22601934.2274   22601940.9344
 96 12  9 18 13  0.0000000  0  7 21 29 25  1 22 15 14
  24558761.064    14856214.95549  11562351.30149  24558761.0244   24558770.1984
  22066769.506   -12604069.90249  -9816595.49549  22066768.9244   22066774.3274
  21105004.776    -4571108.48049  -3512147.46449  21105004.8594   21105009.6354
  23969103.645    14844444.28949  11549459.39949  23969103.4354   23969109.6214
  24410408.024    -8510362.41949  -6424728.41249  24410406.8074   24410414.2484
  21030229.771    -6993088.47849  -5443435.88449  21030229.0054   21030235.5984
  22583410.114   -16295426.10049 -12606332.38449  22583410.0814   22583415.9504
 96 12  9 18 13 30.0000000  0  7 21 29 25  1 22 15 14
  24573086.296    14931493.69849  11621009.98649  24573086.4264   24573094.3744
  22055337.294   -12664145.57249  -9863407.70249  22055337.1784   22055341.8164
  21107184.361    -4559654.84049  -3503222.56749  21107184.3204   21107189.0494
  23980093.251    14902194.16949  11594459.27549  23980093.1974   23980099.1704
  24389539.047    -8620030.28949  -6510183.87249  24389538.9444   24389546.3494
  21031701.443    -6985354.50049  -5437409.43049  21031700.9564   21031707.0274
  22564884.395   -16392779.13349 -12682191.87049  22564883.8364   22564890.5054
 96 12  9 18 14  0.0000000  0  7 21 29 25  1 22 15 14
  24587416.846    15006801.01149  11679690.94749  24587415.2474   24587423.7924
  22043903.097   -12724232.90949  -9910228.98949  22043903.3634   22043908.3894
  21109422.080    -4547895.41549  -3494059.39649  21109422.1514   21109426.7344
  23991048.140    14959762.02649  11639317.31149  23991048.1834   23991054.1064
  24368629.778    -8729909.89849  -6595804.36249  24368628.9894   24368636.6474
  21033255.114    -6977189.84549  -5431047.37649  21033254.5114   21033260.7184
  22546342.994   -16490214.37049 -12758115.40749  22546342.8724   22546348.1984
 96 12  9 18 14 30.0000000  0  7 21 29 25  1 22 15 14
  24601734.113    15082038.97549  11738317.87349  24601733.1554   24601741.9114
  22032447.168   -12784434.69349  -9957139.45749  22032447.0644   22032452.0984
  21111697.627    -4535937.26649  -3484741.36349  21111697.4264   21111702.0454
  24001949.989    15017052.37549  11683959.11749  24001948.9374   24001956.7024
  24347660.898    -8840101.83749  -6681668.23549  24347659.3764   24347666.9684
  21034871.737    -6968694.58249  -5424427.69949  21034871.2924   21034877.4894
  22527769.940   -16587816.54249 -12834169.02349  22527770.3094   22527776.1134
 96 12  9 18 15  0.0000000  0  6 29 25  1 22 15 14
  22020958.918   -12844805.49149 -10004181.63449  22020959.2574   22020964.3304
  21113996.009    -4523859.10449  -3475329.81549  21113996.0854   21114000.9494
  24012787.617    15074005.12249  11728337.86349  24012787.0034   24012793.8124
  24326622.509    -8950658.49349  -6767816.31049  24326621.4104   24326630.5494
  21036540.487    -6959925.20849  -5417594.43349  21036539.9964   21036545.9874
  22509155.739   -16685635.53649 -12910391.59649  22509155.7464   22509160.5774
 96 12  9 18 15 30.0000000  0  6 29 25  1 22 15 14
  22009455.875   -12905254.49149 -10051284.73449  22009456.1614   22009460.6634
  21116330.680    -4511590.35549  -3465769.75849  21116330.7484   21116335.7454
  24023576.663    15130700.78749  11772516.28149  24023576.2044   24023582.7094
  24305530.705    -9061496.33249  -6854183.46949  24305529.6924   24305537.5984
  21038276.457    -6950802.20249  -5410485.60549  21038275.8554   21038282.6154
  22490515.399   -16783591.28249 -12986720.72349  22490515.0704   22490521.5034
 96 12  9 18 16  0.0000000  0  6 29 25  1 22 15 14
  21997965.048   -12965639.72049 -10098338.13849  21997965.1164   21997970.6084
  21118730.043    -4498981.68249  -3455944.82949  21118730.2274   21118734.8794
  24034339.446    15187259.60749  11816588.07549  24034338.2144   24034345.6864
  24284410.038    -9172486.62649  -6940669.42149  24284409.7334   24284417.2254
  21040103.205    -6941202.69649  -5403005.47649  21040102.7004   21040108.9944
  22471873.235   -16881556.36849 -13063057.12449  22471873.8854   22471878.8314
 96 12  9 18 16 30.0000000  0  6 29 25  1 22 15 14
  21986534.054   -13025709.66049 -10145145.84949  21986533.9994   21986538.9944
  21121238.972    -4485797.20949  -3445671.21649  21121238.8314   21121243.6344
  24045120.367    15243915.07349  11860735.16649  24045120.2504   24045126.5444
  24263303.419    -9283402.05549  -7027096.99149  24263303.2954   24263310.0764
  21042065.008    -6930893.15749  -5394972.07649  21042064.6324   21042070.5104
  22453273.219   -16979300.64749 -13139221.47349  22453272.9934   22453279.4204
 96 12  9 18 17  0.0000000  0  6 29 25  1 22 15 14
  21975133.951   -13085617.75849 -10191827.47249  21975133.5524   21975138.3134
  21123829.063    -4472186.08849  -3435065.14749  21123829.1274   21123833.7334
  24055893.262    15300527.04749  11904848.37249  24055892.5124   24055899.5834
  24242186.340    -9394373.28449  -7113568.02949  24242185.8844   24242192.3874
  21044133.272    -6920024.63049  -5386503.11349  21044132.9304   21044139.0474
  22434684.770   -17076983.42249 -13215337.90549  22434684.5714   22434689.9494
 96 12  9 18 17 30.0000000  0  6 29 25  1 22 15 14
  21963778.673   -13145289.75749 -10238325.11049  21963778.7924   21963783.6294
  21126518.848    -4458051.00349  -3424050.79049  21126518.8954   21126523.4674
  24066671.864    15357168.91649  11948984.85649  24066672.2104   24066678.2514
  24221074.107    -9505319.12349  -7200019.23749  24221073.7504   24221081.3034
  21046322.034    -6908522.50449  -5377540.43549  21046321.1454   21046327.6464
  22416122.006   -17174531.44249 -13291349.33149  22416121.3024   22416127.7314
 96 12  9 18 18  0.0000000  0  6 29 25  1 22 15 14
  21952472.087   -13204705.83049 -10284623.32349  21952471.8804   21952477.4904
  21129312.963    -4443367.53149  -3412609.12449  21129312.9014   21129317.8244
  24077464.480    15413883.89649  11993178.31249  24077464.7684   24077471.0984
  24199973.664    -9616202.24249  -7286421.55649  24199972.8574   24199980.4124
  21048636.562    -6896359.01449  -5368062.40649  21048636.1124   21048642.4514
  22397592.407   -17271904.36049 -13367224.32249  22397591.8504   22397598.4234
 96 12  9 18 18 30.0000000  0  6 29 25  1 22 15 14
  21941213.444   -13263870.36649 -10330725.54849  21941213.8044   21941218.9964
  21132208.000    -4428154.05949  -3400754.47849  21132208.4474   21132212.8414
  24088271.848    15470675.95549  12037431.84049  24088272.0764   24088278.7454
  24178887.608    -9727009.46649  -7372764.72049  24178887.6144   24178894.6004
  21051077.468    -6883532.45949  -5358067.70149  21051077.0834   21051083.2534
  22379098.177   -17369091.92249 -13442954.87249  22379097.8934   22379104.3754
 96 12  9 18 19  0.0000000  0  6 29 25  1 22 15 14
  21929979.226   -13322906.98249 -10376728.10549  21929979.2014   21929983.4584
  21135185.199    -4412509.82949  -3388564.17349  21135185.6254   21135189.9064
  24099071.314    15527427.86849  12081654.06249  24099070.7804   24099076.6724
  24157796.768    -9837843.55849  -7459128.82149  24157796.8254   24157803.3494
  21053624.089    -6870150.21249  -5347639.99149  21053623.7604   21053629.7954
  22360619.808   -17466196.67549 -13518620.90449  22360619.8554   22360625.6314
 96 12  9 18 19 30.0000000  0  6 29 25  1 22 15 14
  21918765.161   -13381837.23349 -10422647.76749  21918765.0454   21918771.1304
  21138240.123    -4396456.45249  -3376055.04949  21138240.1514   21138244.9364
  24109858.602    15584115.59049  12125826.27849  24109858.3024   24109864.8394
  24136694.857    -9948735.77249  -7545538.16949  24136694.0744   24136700.5954
  21056273.449    -6856227.82849  -5336791.39349  21056273.1754   21056279.3334
  22342157.914   -17563214.66949 -13594219.33249  22342157.7364   22342164.2224
 96 12  9 18 20  0.0000000  0  6 29 25  1 22 15 14
  21907562.259   -13440709.36049 -10468522.13549  21907562.8504   21907566.6524
  21141360.745    -4380057.39749  -3363276.57549  21141360.6314   21141365.5734
  24120623.625    15640686.62149  12169907.55549  24120623.3404   24120630.5604
  24115571.565   -10059738.86149  -7632033.96349  24115569.4994   24115576.8744
  21059015.460    -6841818.69449  -5325563.51449  21059015.0474   21059020.8404
  22323702.716   -17660197.48149 -13669790.35049  22323702.3624   22323709.0674
 96 12  9 18 20 30.0000000  0  6 29 25  1 22 15 14
  21896372.427   -13499512.40849 -10514342.69349  21896371.7474   21896376.9084
  21144549.072    -4363302.69049  -3350220.96649  21144549.0734   21144553.7464
  24131363.856    15697126.47249  12213886.61449  24131363.3754   24131370.6934
  24094428.301   -10170846.38049  -7718611.12949  24094427.6554   24094433.8084
  21061850.670    -6826919.55049  -5313953.81149  21061850.0354   21061856.2704
  22305253.086   -17757150.75549 -13745338.33949  22305253.1654   22305259.0494
 96 12  9 18 21  0.0000000  0  6 29 25  1 22 15 14
  21885193.530   -13558257.41149 -10560117.99749  21885193.9854   21885198.3214
  21147802.395    -4346206.45249  -3336899.22549  21147802.3014   21147807.0324
  24142076.048    15753419.28449  12257751.10349  24142076.5484   24142082.4014
  24073263.228   -10282068.79549  -7805277.82549  24073262.6074   24073269.6264
  21064776.288    -6811545.42449  -5301973.98249  21064775.8894   21064781.7634
  22286808.005   -17854080.34849 -13820867.89049  22286807.6244   22286813.1644
 96 12  9 18 21 30.0000000  0  6 29 25  1 22 15 14
  21874018.564   -13616982.79549 -10605878.03649  21874018.5324   21874023.0414
  21151110.060    -4328824.47649  -3323354.84549  21151109.9714   21151114.8644
  24152751.531    15809519.05649  12301465.17149  24152751.6784   24152757.9884
  24052068.603   -10393446.63349  -7892065.65449  24052067.0104   24052073.7704
  21067781.182    -6795754.93649  -5289669.72949  21067780.9494   21067786.8394
  22268357.708   -17951037.39549 -13896418.82649  22268357.6174   22268363.9094
 96 12  9 18 22  0.0000000  0  6 29 25  1 22 15 14
  21862860.190   -13675619.60949 -10651569.03349  21862860.0774   21862865.7554
  21154486.471    -4311081.42749  -3309529.10949  21154486.4444   21154491.3444
  24163403.642    15865495.32549  12345082.98949  24163403.8444   24163410.9404
  24030858.804   -10504903.82549  -7978915.31749  24030857.8034   24030865.1614
  21070876.926    -6779486.70849  -5276993.20649  21070876.4564   21070882.7364
  22249910.859   -18047976.24549 -13971955.58149  22249910.6674   22249915.7144
 96 12  9 18 22 30.0000000  0  6 29 25  1 22 15 14
  21851720.554   -13734158.58749 -10697183.81049  21851720.2394   21851724.7744
  21157934.766    -4292960.49149  -3295408.90749  21157934.6874   21157939.3064
  24174036.244    15921369.37649  12388621.17649  24174036.2834   24174042.8054
  24009638.509   -10616416.96949  -8065808.57049  24009637.2644   24009644.3774
  21074066.916    -6762723.13449  -5263930.69849  21074066.7574   21074072.8494
  22231473.917   -18144862.83449 -14047451.61949  22231474.0314   22231479.4774
 96 12  9 18 23  0.0000000  0  6 29 25  1 22 15 14
  21840603.712   -13792577.86949 -10742705.33449  21840603.5754   21840608.3224
  21161463.011    -4274419.16849  -3280961.12849  21161463.2444   21161467.8894
  24184659.457    15977194.46749  12432121.20149  24184659.0994   24184665.7174
  23988413.992   -10727951.90349  -8152718.81649  23988413.3974   23988420.0344
  21077357.980    -6745429.43549  -5250455.11449  21077357.8494   21077363.7664
  22213053.674   -18241661.87049 -14122879.42949  22213053.6434   22213059.6034
 96 12  9 18 23 30.0000000  0  6 29 25  1 22 15 14
  21829519.644   -13850824.98949 -10788092.69549  21829520.0984   21829525.2074
  21165085.374    -4255383.65749  -3266128.27149  21165085.4564   21165090.1024
  24195286.110    16033038.40449  12475635.90649  24195285.9624   24195291.5544
  23967196.826   -10839448.85649  -8239599.51949  23967196.7254   23967203.5084
  21080761.809    -6727542.88749  -5236517.56649  21080761.0334   21080766.9524
  22194658.535   -18338328.99349 -14198204.45349  22194658.1384   22194664.0504
 96 12  9 18 24  0.0000000  0  6 29 25  1 22 15 14
  21818454.161   -13908974.57649 -10833404.05349  21818454.6084   21818459.5144
  21168788.552    -4235923.36049  -3250964.41949  21168788.4934   21168793.4414
  24205903.985    16088835.96049  12519114.47649  24205903.8914   24205910.5364
  23945972.623   -10950982.86849  -8326509.07749  23945971.5094   23945979.2304
  21084266.364    -6709125.98749  -5222166.75449  21084265.5174   21084271.8484
  22176277.103   -18434924.11949 -14273473.37549  22176277.0534   22176282.5984
 96 12  9 18 24 30.0000000  0  6 29 25  1 22 15 14
  21807409.686   -13967014.06449 -10878629.62949  21807409.8644   21807414.6044
  21172572.418    -4216039.08849  -3235470.19249  21172572.5334   21172577.1634
  24216513.541    16144588.86049  12562558.24849  24216513.1574   24216519.7944
  23924743.441   -11062543.34349  -8413439.28549  23924742.8454   23924750.4844
  21087873.329    -6690170.82149  -5207396.51049  21087872.7994   21087879.2024
  22157912.660   -18531429.79749 -14348672.59449  22157912.3364   22157918.2004
 96 12  9 18 25  0.0000000  0  6 29 25  1 22 15 14
  21796386.505   -14024941.16649 -10923767.64149  21796386.2264   21796391.4484
  21176437.061    -4195730.32149  -3219645.18949  21176437.0084   21176441.5064
  24227113.807    16200293.02649  12605964.04949  24227113.6384   24227120.6274
  23903508.694   -11174133.35649  -8500392.53349  23903507.4664   23903514.8334
  21091581.992    -6670682.15849  -5192210.56249  21091581.7424   21091587.6964
  22139561.273   -18627867.32349 -14423818.71949  22139561.0814   22139566.1314
 96 12  9 18 25 30.0000000  0  6 29 25  1 22 15 14
  21785370.547   -14082830.11249 -10968875.91449  21785370.7724   21785376.3254
  21180362.285    -4175102.98049  -3203571.95149  21180362.1604   21180367.0204
  24237685.906    16255849.85349  12649255.03649  24237686.1494   24237693.2574
  23882251.181   -11285840.85949  -8587437.30849  23882250.2024   23882257.1614
  21095375.123    -6650749.54149  -5176678.67349  21095374.9564   21095380.8624
  22121210.852   -18724299.34649 -14498960.55749  22121210.8744   22121216.5344
 96 12  9 18 26  0.0000000  0  6 29 25  1 22 15 14
  21774351.958   -14140733.23749 -11013995.24149  21774351.9004   21774357.0894
  21184333.825    -4154232.41049  -3187309.18449  21184333.6914   21184338.5044
  24248217.935    16311196.10649  12692381.93049  24248217.0194   24248224.5884
  23860962.056   -11397715.93149  -8674612.68249  23860960.7414   23860969.0604
  21099240.669    -6630436.69049  -5160850.49949  21099240.1504   21099246.1874
  22102855.517   -18820757.30049 -14574122.58349  22102855.4524   22102860.6254
 96 12  9 18 26 30.0000000  0  6 29 25  1 22 15 14
  21763360.687   -14198492.06649 -11059002.12949  21763360.3094   21763365.4444
  21188378.594    -4132977.11749  -3170746.63249  21188378.7914   21188383.3444
  24258737.018    16366474.57749  12735456.02049  24258737.1564   24258743.0414
  23839672.480   -11509593.74849  -8761790.21749  23839671.6394   23839678.6164
  21103206.349    -6609596.59449  -5144611.48549  21103205.0854   21103211.9624
  22084524.716   -18917086.95949 -14649184.65849  22084524.9724   22084529.6134
 96 12  9 18 27  0.0000000  0  6 29 25  1 22 15 14
  21752397.425   -14256104.53249 -11103894.96149  21752397.9784   21752403.1164
  21192498.593    -4111326.25849  -3153875.84249  21192498.5994   21192503.3984
  24269245.788    16421698.19649  12778487.36649  24269245.2714   24269251.6854
  23818384.712   -11621461.67649  -8848960.06049  23818384.3964   23818391.1714
  21107274.182    -6588219.14749  -5127953.75349  21107273.4194   21107280.1084
  22066222.884   -19013263.56449 -14724127.45149  22066223.0324   22066228.0844
 96 12  9 18 27 30.0000000  0  6 29 25  1 22 15 14
  21741458.023   -14313592.55149 -11148690.82149  21741457.8324   21741462.9104
  21196688.558    -4089307.71449  -3136718.54249  21196688.6784   21196693.5684
  24279741.234    16476851.69549  12821464.07749  24279741.4254   24279748.9404
  23797097.307   -11733327.58149  -8936128.31449  23797097.3024   23797104.8024
  21111441.011    -6566322.48149  -5110891.43149  21111440.8044   21111446.8794
  22047950.563   -19109285.43249 -14798949.67549  22047950.3524   22047956.0024
 96 12  9 18 28  0.0000000  0  6 29 25  1 22 15 14
  21730533.300   -14371001.51049 -11193425.06849  21730533.3654   21730538.2604
  21200943.041    -4066950.08149  -3119297.01849  21200943.1524   21200948.6194
  24290216.254    16531898.69049  12864357.78049  24290216.0834   24290223.4204
  23775806.743   -11845211.25049  -9023310.42249  23775806.1924   23775811.6144
  21115700.059    -6543941.36649  -5093451.62049  21115699.7154   21115706.2294
  22029697.867   -19205204.20149 -14873691.56949  22029697.6384   22029703.1324
 96 12  9 18 28 30.0000000  0  6 29 25  1 22 15 14
  21719621.199   -14428344.95749 -11238108.27749  21719622.0594   21719626.2314
  21205261.943    -4044254.35349  -3101612.04249  21205262.1424   21205267.0194
  24300671.685    16586842.43549  12907171.04849  24300671.7354   24300679.1134
  23754510.665   -11957122.93949  -9110514.35749  23754509.4754   23754516.9724
  21120051.132    -6521076.51049  -5075634.87249  21120050.7834   21120057.0714
  22011463.216   -19301027.67449 -14948359.19749  22011462.8514   22011468.5124
 96 12  9 18 29  0.0000000  0  6 29 25  1 22 15 14
  21708716.743   -14485648.98449 -11282760.76249  21708716.4784   21708721.5914
  21209642.961    -4021232.27149  -3083672.76349  21209642.8304   21209647.8604
  24311105.544    16641671.83049  12949895.19949  24311105.1724   24311112.1904
  23733205.987   -12069078.93249  -9197752.81249  23733205.5644   23733214.1014
  21124490.477    -6497748.03749  -5057456.87149  21124490.3804   21124496.3204
  21993242.693   -19396776.86249 -15022968.94049  21993242.3954   21993248.2314
 96 12  9 18 29 30.0000000  0  6 29 25  1 22 15 14
  21697815.759   -14542933.57349 -11327398.08549  21697816.1144   21697821.1644
  21214078.385    -3997923.88449  -3065510.38849  21214078.3794   21214083.4494
  24321510.261    16696348.20449  12992500.12049  24321509.6194   24321516.8094
  23711888.516   -12181102.82149  -9285044.17349  23711887.8024   23711895.3694
  21129009.916    -6473998.76049  -5038950.96249  21129009.7514   21129015.2444
  21975028.111   -19492494.74249 -15097554.28549  21975027.5154   21975033.6644
 96 12  9 18 30  0.0000000  0  6 29 25  1 22 15 14
  21686931.091   -14600132.97649 -11371969.03349  21686931.6404   21686935.5684
  21218578.868    -3974273.83749  -3047081.77449  21218579.0434   21218583.7314
  24331894.824    16750919.04749  13035022.79849  24331894.7304   24331900.3934
  23690568.563   -12293140.62049  -9372346.35149  23690567.4914   23690574.7514
  21133618.641    -6449780.04649  -5020079.25549  21133618.2214   21133624.0904
  21956826.857   -19588143.54149 -15172085.81249  21956827.0854   21956832.3444
 96 12  9 18 30 30.0000000  0  6 29 25  1 22 15 14
  21676070.792   -14657205.14249 -11416440.83149  21676070.6694   21676075.8034
  21223150.504    -3950249.66449  -3028361.63849  21223150.3094   21223155.5494
  24342264.748    16805412.89549  13077485.48149  24342264.4314   24342271.6164
  23669249.541   -12405173.28749  -9459644.53449  23669249.2504   23669255.9144
  21138321.424    -6425066.51049  -5000821.97549  21138320.8254   21138327.2714
  21938643.996   -19683694.99549 -15246541.46949  21938644.0734   21938649.4934
 96 12  9 18 31  0.0000000  0  6 29 25  1 22 15 14
  21665233.320   -14714155.72749 -11460817.86849  21665233.4114   21665238.7974
  21227789.604    -3925870.24349  -3009364.69249  21227789.5074   21227794.5124
  24352614.503    16859801.25649  13119865.97649  24352614.2864   24352619.4954
  23647928.800   -12517214.47949  -9546949.39149  23647928.6404   23647934.4354
  21143113.316    -6399884.73449  -4981199.82649  21143112.6184   21143118.6784
  21920473.681   -19779180.45349 -15320945.69549  21920473.2924   21920479.2104
 96 12  9 18 31 30.0000000  0  6 29 25  1 22 15 14
  21654421.572   -14770971.94349 -11505090.23749  21654421.3064   21654426.3734
  21232497.987    -3901127.01849  -2990084.26349  21232498.1974   21232502.9004
  24362945.747    16914092.41849  13162170.71849  24362944.4754   24362950.7934
  23626608.389   -12629253.89849  -9634252.86549  23626607.2204   23626615.6824
  21147996.337    -6374224.03949  -4961204.49649  21147995.8474   21148002.0724
  21902319.120   -19874583.41149 -15395285.64449  21902318.9104   21902324.2284
 96 12  9 18 32  0.0000000  0  6 29 25  1 22 15 14
  21643625.309   -14827705.95849 -11549298.53949  21643625.2404   21643630.5444
  21237271.478    -3876042.62949  -2970537.98849  21237271.9434   21237276.8194
  24373253.535    16968260.20549  13204379.34649  24373252.5084   24373259.2674
  23605280.917   -12741330.92749  -9721585.64849  23605280.2854   23605287.1574
  21152965.762    -6348109.58149  -4940855.57849  21152965.3274   21152971.8224
  21884175.054   -19969930.95749 -15469582.41149  21884175.1714   21884180.3124
 96 12  9 18 32 30.0000000  0  6 29 25  1 22 15 14
  21632832.279   -14884423.28449 -11593493.82249  21632832.7724   21632837.6474
  21242101.552    -3850661.15449  -2950760.21749  21242101.8394   21242106.5884
  24383530.809    17022267.92749  13246463.25249  24383530.7134   24383536.5594
  23583937.170   -12853492.65149  -9808984.40849  23583936.8604   23583943.1404
  21158012.170    -6321590.41649  -4920191.30049  21158011.6434   21158017.8704
  21866036.776   -20065248.31749 -15543855.65249  21866036.6784   21866041.3314
 96 12  9 18 33  0.0000000  0  6 29 25  1 22 15 14
  21622040.964   -14941132.58449 -11637682.87349  21622041.0824   21622045.8354
  21246987.764    -3824984.05949  -2930752.09049  21246987.8864   21246992.8994
  24393779.614    17076125.51249  13288430.17049  24393779.5384   24393784.9524
  23562579.187   -12965729.21549  -9896441.47449  23562578.7164   23562585.5394
  21163135.462    -6294667.38949  -4899212.32749  21163134.8574   21163141.0374
  21847907.587   -20160518.26949 -15618091.96849  21847907.5084   21847912.4554
 96 12  9 18 33 30.0000000  0  6 29 25  1 22 15 14
  21611246.424   -14997857.53449 -11681884.11549  21611246.3064   21611251.3314
  21251927.595    -3799024.85949  -2910524.14649  21251927.6874   21251932.4744
  24403998.309    17129824.34349  13330273.37349  24403998.0244   24404005.0424
  23541203.771   -13078057.72649  -9983970.19349  23541203.8444   23541209.8954
  21168333.007    -6267354.10949  -4877929.26349  21168332.6884   21168338.8074
  21829785.884   -20255748.38049 -15692297.23049  21829786.0744   21829790.6184
 96 12  9 18 34  0.0000000  0  6 29 25  1 22 15 14
  21600455.631   -15054564.07449 -11726071.01649  21600455.9064   21600460.5324
  21256926.713    -3772754.60949  -2890053.81849  21256927.0564   21256931.7374
  24414195.416    17183410.33949  13372028.66349  24414194.7754   24414202.3884
  23519816.757   -13190447.79149 -10071546.84549  23519814.3714   23519823.6584
  21173610.224    -6239622.68249  -4856320.36749  21173610.0854   21173615.7444
  21811678.043   -20350905.37649 -15766445.50749  21811677.2004   21811683.1504
 96 12  9 18 34 30.0000000  0  6 29 25  1 22 15 14
  21589686.537   -15111156.65149 -11770169.12149  21589686.3114   21589691.6504
  21261996.521    -3746113.23749  -2869294.30849  21261996.7864   21262001.3334
  24424384.469    17236955.14149  13413751.84149  24424384.5104   24424390.5594
  23498434.933   -13302810.23149 -10159102.00149  23498434.3724   23498440.4644
  21178981.619    -6211396.43749  -4834325.90249  21178981.5264   21178986.7694
  21793600.044   -20445904.93149 -15840471.11049  21793599.1754   21793605.1494
 96 12  9 18 35  0.0000000  0  6 29 25  1 22 15 14
  21578931.543   -15167673.55349 -11814208.23949  21578931.7664   21578936.0664
  21267124.829    -3719164.24649  -2848295.09449  21267124.7964   21267129.4054
  24434553.942    17290395.65749  13455393.74149  24434553.9204   24434560.0024
  23477053.192   -13415171.29249 -10246656.03949  23477052.1854   23477059.5664
  21184438.047    -6182722.87949  -4811982.87249  21184437.4194   21184443.4184
  21775541.536   -20540801.95749 -15914416.82249  21775541.7464   21775547.3004
 96 12  9 18 35 30.0000000  0  6 29 25  1 22 15 14
  21568186.820   -15224137.66449 -11858206.25749  21568186.9954   21568191.4454
  21272304.136    -3691946.76049  -2827086.68049  21272304.0404   21272308.5594
  24444695.830    17343690.94549  13496922.48849  24444695.2404   24444704.0524
  23455669.925   -13527541.55649 -10334217.25849  23455669.6384   23455675.7564
  21189974.006    -6153630.93649  -4789313.82949  21189973.0874   21189979.4174
  21757495.466   -20635634.89449 -15988312.61749  21757495.2004   21757501.0154
 96 12  9 18 36  0.0000000  0  6 29 25  1 22 15 14
  21557458.820   -15280513.98149 -11902135.83649  21557458.1124   21557464.3784
  21277539.402    -3664435.16149  -2805649.08349  21277539.6164   21277544.0804
  24454813.310    17396859.85449  13538352.75449  24454812.4564   24454820.0114
  23434296.506   -13639859.30749 -10421737.52649  23434295.3354   23434302.4224
  21195595.868    -6124087.41249  -4766292.90449  21195595.4854   21195601.2384
  21739469.289   -20730362.44849 -16062126.28549  21739469.4884   21739474.4924
 96 12  9 18 36 30.0000000  0  6 29 25  1 22 15 14
  21546753.782   -15336768.57249 -11945970.56149  21546753.5734   21546758.2944
  21282837.152    -3636595.57249  -2783955.90849  21282836.9194   21282841.5054
  24464909.756    17449916.56649  13579695.58549  24464910.0954   24464916.1084
  23412943.461   -13752069.44349 -10509173.92449  23412942.4974   23412950.2974
  21201310.350    -6094057.70249  -4742893.13749  21201310.0384   21201315.8344
  21721469.707   -20824950.80649 -16135831.49749  21721469.2604   21721476.1694
 96 12  9 18 37  0.0000000  0  6 29 25  1 22 15 14
  21536085.893   -15392829.19649 -11989654.16249  21536086.2984   21536090.4254
  21288213.650    -3608341.78749  -2761939.98849  21288213.4864   21288218.4754
  24475001.673    17502948.82449  13621019.35249  24475001.1694   24475008.9054
  23391624.912   -13864099.07449 -10596469.65649  23391624.1664   23391631.3184
  21207130.460    -6063473.21149  -4719061.07749  21207130.2994   21207136.3004
  21703508.044   -20919339.66549 -16209381.25049  21703508.1544   21703514.2394
 96 12  9 18 37 30.0000000  0  6 29 25  1 22 15 14
  21525446.230   -15448741.01149 -12033221.79849  21525446.0344   21525451.8524
  21293663.227    -3579703.78349  -2739624.67849  21293662.9344   21293668.3574
  24485083.355    17555928.86549  13662302.46649  24485083.6694   24485089.7784
  23370327.465   -13976017.23049 -10683678.51949  23370326.8194   23370333.9924
  21213046.821    -6032382.75749  -4694834.76649  21213046.2844   21213052.8304
  21685574.189   -21013582.68349 -16282817.36749  21685574.4494   21685580.5644
 96 12  9 18 38  0.0000000  0  6 29 25  1 22 15 14
  21514819.944   -15504581.79249 -12076734.06649  21514820.2504   21514825.3994
  21299174.094    -3550743.39949  -2717058.16149  21299173.8094   21299179.2894
  24495145.506    17608805.73749  13703505.18049  24495145.7534   24495152.2784
  23349035.967   -14087904.18849 -10770863.08149  23349034.4504   23349041.8014
  21219046.261    -6000854.82149  -4670267.56649  21219045.4314   21219052.2924
  21667656.422   -21107741.92649 -16356188.22049  21667656.4844   21667662.2994
 96 12  9 18 38 30.0000000  0  6 29 25  1 22 15 14
  21504214.977   -15560311.87049 -12120160.09849  21504214.9724   21504220.3644
  21304754.971    -3521415.70049  -2694205.41049  21304755.2254   21304760.1634
  24505199.241    17661636.79749  13744672.20249  24505199.1144   24505206.0754
  23327754.015   -14199741.66649 -10858009.08749  23327753.4124   23327760.1674
  21225135.559    -5968854.85849  -4645332.53849  21225134.7554   21225141.7774
  21649762.142   -21201777.15849 -16429462.43049  21649762.1424   21649768.0234
 96 12  9 18 39  0.0000000  0  6 29 25  1 22 15 14
  21493641.348   -15615876.02049 -12163456.82749  21493641.1724   21493646.5444
  21310416.627    -3491663.93149  -2671022.21149  21310416.7154   21310421.6344
  24515257.719    17714494.68049  13785860.11449  24515257.5704   24515263.2134
  23306491.102   -14311478.22749 -10945076.45549  23306491.2924   23306497.6694
  21231325.362    -5936327.44049  -4619986.51549  21231324.8104   21231331.2594
  21631904.548   -21295619.53149 -16502586.37049  21631904.3444   21631909.8424
 96 12  9 18 39 30.0000000  0  6 29 25  1 22 15 14
  21483090.435   -15671321.60249 -12206661.16949  21483090.4264   21483095.7844
  21316150.144    -3461533.82849  -2647544.20949  21316149.8274   21316155.3594
  24525312.149    17767330.90849  13827031.14149  24525312.9694   24525318.7794
  23285241.629   -14423144.20649 -11032088.83049  23285240.8634   23285248.8104
  21237608.307    -5903310.53349  -4594259.08049  21237607.9204   21237614.2194
  21614080.333   -21389286.51949 -16575573.64049  21614080.8734   21614086.3374
 96 12  9 18 40  0.0000000  0  6 29 25  1 22 15 14
  21472558.535   -15726667.83249 -12249788.08649  21472559.0474   21472563.8844
  21321950.622    -3431051.95349  -2623792.10149  21321950.6914   21321955.8444
  24535357.139    17820115.33049  13868161.80049  24535356.7364   24535364.2524
  23264005.342   -14534741.05549 -11119047.33349  23264005.0944   23264011.9194
  21243980.496    -5869824.47049  -4568166.06549  21243980.3684   21243986.3624
  21596289.835   -21482777.02649 -16648423.39349  21596289.6604   21596295.5034
 96 12  9 18 40 30.0000000  0  6 29 25  1 22 15 14
  21462050.214   -15781888.97649 -12292817.53049  21462050.4524   21462055.3944
  21327820.056    -3400208.06849  -2599757.90049  21327819.9974   21327825.1134
  24545392.400    17872851.77149  13909255.08149  24545391.2994   24545400.0734
  23242786.597   -14646246.08649 -11205934.28649  23242785.2754   23242792.7814
  21250443.474    -5835861.69349  -4541701.57649  21250443.1744   21250449.7674
  21578535.709   -21576075.64649 -16721123.61549  21578535.6214   21578541.5774
 96 12  9 18 41  0.0000000  0  6 29 25  1 22 15 14
  21451576.188   -15836930.20049 -12335706.78049  21451576.9624   21451581.2484
  21333766.670    -3368957.94949  -2575407.14649  21333766.9204   21333771.8024
  24555425.034    17925576.14149  13950338.95049  24555424.6934   24555432.1534
  23221596.477   -14757600.39149 -11292703.79149  23221595.7344   23221602.5214
  21257006.152    -5801374.94849  -4514828.79849  21257005.6914   21257012.3454
  21560826.512   -21669137.80649 -16793639.58249  21560826.5204   21560832.9834
 96 12  9 18 41 30.0000000  0  6 29 25  1 22 15 14
  21441147.747   -15891732.79449 -12378410.10449  21441147.3934   21441153.3834
  21339801.250    -3337246.28649  -2550696.74949  21339801.5334   21339806.2964
  24565464.595    17978333.54849  13991448.56949  24565464.7134   24565472.3504
  23200446.011   -14868747.18349 -11379311.61449  23200445.5864   23200451.5844
  21263678.351    -5766312.44449  -4487507.39549  21263677.9924   21263684.8664
  21543171.949   -21761913.11549 -16865932.02449  21543172.2524   21543178.3154
 96 12  9 18 42  0.0000000  0  6 29 25  1 22 15 14
  21430762.646   -15946306.11049 -12420934.74949  21430762.0424   21430767.7874
  21345919.362    -3305095.33449  -2525644.04349  21345919.2784   21345924.5494
  24575507.348    18031106.44649  14032570.25349  24575507.0114   24575514.5424
  23179332.309   -14979701.03849 -11465769.10549  23179331.4134   23179337.6514
  21270455.627    -5730697.63049  -4459755.61549  21270455.1304   21270461.7384
  21525568.974   -21854417.59749 -16938013.44049  21525568.7994   21525575.1574
 96 12  9 18 42 30.0000000  0  6 29 25  1 22 15 14
  21420424.342   -16000633.77449 -12463267.99349  21420424.4794   21420429.2134
  21352121.888    -3272500.31749  -2500245.32549  21352121.8944   21352127.2164
  24585555.522    18083910.78949  14073716.43849  24585555.3344   24585561.9684
  23158257.771   -15090448.04349 -11552065.39249  23158256.2134   23158263.8014
  21277340.359    -5694518.01449  -4431563.72449  21277339.7744   21277346.4144
  21508019.753   -21946639.66549 -17009874.79749  21508020.0884   21508025.9004
 96 12  9 18 43  0.0000000  0  6 29 25  1 22 15 14
  21410123.556   -16054765.27649 -12505448.39849  21410123.4904   21410128.6104
  21358398.927    -3239513.92449  -2474541.63649  21358399.0084   21358404.4244
  24595602.088    18136705.56849  14114855.17449  24595601.8894   24595608.7344
  23137216.158   -15201022.13549 -11638226.97449  23137214.3804   23137222.0334
  21284324.842    -5657814.19249  -4402963.35749  21284324.6094   21284331.0864
  21490517.444   -22038615.04249 -17081543.91349  21490517.2744   21490523.9044
 96 12  9 18 43 30.0000000  0  6 29 25  1 22 15 14
  21399852.912   -16108737.26449 -12547504.49149  21399853.2904   21399858.9664
  21364743.733    -3206171.76649  -2448560.74649  21364743.9964   21364749.0754
  24605644.150    18189475.54549  14155974.58049  24605644.0974   24605652.0224
  23116205.176   -15311436.13349 -11724263.81249  23116204.4154   23116211.0354
  21291403.708    -5620614.95349  -4373976.95249  21291403.6384   21291409.8314
  21473058.837   -22130360.33349 -17153033.74949  21473058.4114   21473064.9574
 96 12  9 18 44  0.0000000  0  6 29 25  1 22 15 14
  21389617.089   -16162526.86549 -12589418.46849  21389617.8964   21389621.8834
  21371160.091    -3172453.78649  -2422286.99549  21371160.1544   21371165.1094
  24615687.150    18242251.25849  14197098.45749  24615686.5154   24615694.0304
  23095231.104   -15421655.80549 -11810149.22249  23095229.6454   23095236.2924
  21298581.837    -5582893.86549  -4344583.90449  21298581.3294   21298587.9294
  21455650.225   -22221843.29149 -17224319.16649  21455649.9434   21455656.5534
 96 12  9 18 44 30.0000000  0  6 29 25  1 22 15 14
  21379440.749   -16216004.50049 -12631089.36149  21379441.4714   21379446.3584
  21377675.545    -3138215.20949  -2395607.57549  21377675.8434   21377680.6564
  24625755.591    18295162.53649  14238327.98149  24625755.8844   24625762.8364
  23074321.611   -15531534.59349 -11895769.01149  23074321.1904   23074327.6814
  21305885.457    -5544513.07149  -4314676.80449  21305884.9934   21305891.9364
  21438315.807   -22312935.88949 -17295300.40049  21438316.0034   21438321.9714
 96 12  9 18 45  0.0000000  0  6 29 25  1 22 15 14
  21369341.007   -16269079.04949 -12672446.15149  21369340.8034   21369346.2704
  21384309.887    -3103351.61749  -2368441.14149  21384309.8904   21384314.9694
  24635869.774    18348313.22349  14279744.05849  24635869.9224   24635877.2594
  23053497.655   -15640964.98749 -11981039.40849  23053497.6364   23053503.1294
  21313332.774    -5505377.19849  -4284181.33749  21313332.1674   21313338.7184
  21421075.527   -22403534.23949 -17365896.50949  21421075.0584   21421081.4614
 96 12  9 18 45 30.0000000  0  6 29 25  1 22 15 14
  21359318.267   -16321749.23049 -12713487.85249  21359318.6814   21359323.5614
  21391064.614    -3067854.55349  -2340781.10049  21391064.5444   21391069.7514
  24646029.713    18401703.25549  14321346.60649  24646028.5694   24646037.1824
  23032755.899   -15749964.05249 -12065973.69949  23032756.1654   23032761.4394
  21320922.385    -5465493.56149  -4253103.19449  21320921.6234   21320928.6614
  21403927.667   -22493646.25349 -17436113.65249  21403927.2894   21403933.5584
 96 12  9 18 46  0.0000000  0  6 29 25  1 22 15 14
  21349376.261   -16373995.56649 -12754199.28449  21349376.1544   21349380.8984
  21397945.632    -3031694.35249  -2312604.32549  21397945.7404   21397950.6444
  24656236.062    18455338.24749  14363140.05749  24656235.7234   24656243.1184
  23012096.981   -15858528.05649 -12150568.97949  23012095.2184   23012102.0924
  21328656.844    -5424848.63449  -4221431.83849  21328656.5984   21328662.7724
  21386876.678   -22583249.85649 -17505934.63949  21386876.7734   21386882.6094
 96 12  9 18 46 30.0000000  0  6 29 25  1 22 15 14
  21339534.968   -16425711.67749 -12794497.55349  21339535.0474   21339539.6354
  21404972.921    -2994765.81349  -2283828.83749  21404973.2654   21404977.8224
  24666508.299    18509319.52349  14405203.30749  24666508.6214   24666516.3274
  22991539.412   -15966559.01949 -12234748.88949  22991538.3894   22991545.0174
  21336554.428    -5383347.18549  -4189093.05849  21336554.1514   21336560.3654
  21369940.214   -22672251.90149 -17575286.86949  21369940.4184   21369946.1844
 96 12  9 18 47  0.0000000  0  6 29 25  1 22 15 14
  21329796.345   -16476888.39749 -12834375.52349  21329796.5894   21329801.2464
  21412144.708    -2957078.62449  -2254462.20649  21412144.8414   21412149.8924
  24676852.119    18563675.49049  14447558.55349  24676852.7804   24676859.4084
  22971080.906   -16074069.11649 -12318522.94049  22971079.1134   22971086.0734
  21344615.186    -5340988.35149  -4156086.19249  21344614.5814   21344621.0554
  21353120.246   -22760642.15949 -17644162.38349  21353120.0534   21353126.6794
 96 12  9 18 47 30.0000000  0  6 29 25  1 22 15 14
  21320159.073   -16527532.74249 -12873838.64249  21320159.4014   21320164.0774
  21419458.281    -2918646.09349  -2224514.79149  21419458.5174   21419463.5834
  24687264.758    18618394.24549  14490196.48649  24687263.8234   24687272.2334
  22950718.306   -16181074.34149 -12401903.58049  22950716.7294   22950724.5884
  21352837.048    -5297782.00749  -4122418.92549  21352836.7194   21352843.0684
  21336415.440   -22848426.63749 -17712565.86749  21336415.7674   21336421.3454
 96 12  9 18 48  0.0000000  0  6 29 25  1 22 15 14
  21310609.165   -16577717.52749 -12912943.67049  21310609.2424   21310613.9924
  21426896.259    -2879559.17849  -2194057.46349  21426896.3684   21426901.5894
  24697733.151    18673406.42949  14533063.06149  24697732.2164   24697740.2844
  22930440.585   -16287633.27249 -12484936.45449  22930439.1574   22930447.1204
  21361206.028    -5253802.92249  -4088149.51549  21361205.3654   21361211.3434
  21319814.133   -22935667.16049 -17780545.49149  21319814.1304   21319820.1634
 96 12  9 18 48 30.0000000  0  6 29 25  1 22 15 14
  21301140.909   -16627473.76149 -12951714.76949  21301140.9574   21301145.9284
  21434449.009    -2839869.17549  -2163130.19549  21434448.9504   21434453.9134
  24708254.575    18728696.96249  14576146.57349  24708254.6914   24708260.8814
  22910243.558   -16393768.62749 -12567639.27949  22910241.9304   22910249.0644
  21369715.837    -5209083.92949  -4053303.56149  21369715.2744   21369721.4374
  21303309.603   -23022398.81749 -17848128.59349  21303308.9364   21303315.5344
 96 12  9 18 49  0.0000000  0  6 29 25  1 22 15 14
  21291741.824   -16676866.24349 -12990202.40549  21291741.5644   21291747.3084
  21442104.324    -2799640.74649  -2131783.37749  21442103.9704   21442108.8714
  24718817.233    18784203.91549  14619398.69349  24718816.7694   24718824.0114
  22890120.237   -16499516.95349 -12650040.52149  22890119.7704   22890126.3704
  21378355.797    -5163680.44849  -4017924.23749  21378355.5024   21378361.7684
  21286893.714   -23108664.04049 -17915348.23649  21286893.5904   21286899.9404
 96 12  9 18 49 29.9990000  0  6 29 25  1 22 15 14
  21282404.026   -16725936.31949 -13028438.81549  21282404.0184   21282409.2294
  21449857.518    -2758897.29049  -2100035.24149  21449857.5034   21449862.8114
  24729407.190    18839854.79749  14662762.97349  24729407.5674   24729414.6574
  22870068.095   -16604891.42049 -12732150.43949  22870066.7724   22870074.5754
  21387117.950    -5117635.17949  -3982044.81449  21387117.2674   21387124.0564
  21270561.839   -23194488.54749 -17982224.47049  21270561.5574   21270568.1814
 96 12  9 18 49 59.9990000  0  6 29 25  1 22 15 14
  21273133.342   -16774654.22449 -13066400.80849  21273133.2364   21273138.1584
  21457716.149    -2717599.57649  -2067855.22149  21457716.1124   21457721.4064
  24740029.667    18895676.32849  14706260.20849  24740029.0044   24740038.6424
  22850095.698   -16709846.17749 -12813933.30149  22850094.5094   22850102.5054
  21396007.879    -5070918.02549  -3945641.84649  21396007.4024   21396013.7684
  21254316.350   -23279858.77549 -18048746.72449  21254316.3734   21254322.4414
 96 12  9 18 50 29.9990000  0  5 29 25 22 15 14
  21263940.812   -16822960.67749 -13104042.17749  21263940.5504   21263946.6594
  21465694.955    -2675670.21749  -2035182.99549  21465694.8794   21465700.2974
  22830217.601   -16814305.71649 -12895330.31349  22830216.5904   22830224.7024
  21405035.998    -5023474.79349  -3908673.10449  21405035.9224   21405042.4304
  21238169.425   -23364711.74049 -18114865.91549  21238169.4914   21238175.5164
 96 12  9 18 50 59.9990000  0  5 29 25 22 15 14
  21254811.208   -16870936.63649 -13141426.02349  21254812.1404   21254816.8114
  21473780.246    -2633181.59049  -2002074.98449  21473780.5514   21473785.7614
  22810418.681   -16918349.73149 -12976403.54149  22810417.9964   22810425.9794
  21414187.471    -4975384.17549  -3871199.90749  21414186.8174   21414193.2044
  21222107.499   -23449118.08449 -18180637.10149  21222107.6314   21222113.2164
 96 12  9 18 51 29.9990000  0  5 29 25 22 15 14
  21245752.895   -16918539.19449 -13178518.89949  21245753.0114   21245757.6304
  21481979.170    -2590096.67349  -1968502.32749  21481979.4254   21481984.4674
  22790704.678   -17021947.08949 -13057128.70849  22790703.4344   22790710.8694
  21423469.610    -4926606.57349  -3833191.39949  21423468.8414   21423475.4114
  21206138.079   -23533037.92949 -18246029.18549  21206138.0464   21206144.2074
 96 12  9 18 51 59.9990000  0  5 29 25 22 15 14
  21236785.739   -16965662.05949 -13215238.00949  21236785.9194   21236790.5284
  21490306.983    -2546333.41249  -1934401.09449  21490306.8204   21490311.9894
  22771092.736   -17125008.53849 -13137436.30049  22771092.2414   22771098.8574
  21432900.354    -4877047.39549  -3794573.87949  21432899.3834   21432906.0074
  21190279.508   -23616375.33249 -18310967.42049  21190279.2954   21190285.0194
 96 12  9 18 52 29.9990000  0  5 29 25 22 15 14
  21227929.129   -17012203.78449 -13251504.27649  21227929.1804   21227934.6674
  21498779.997    -2501806.51249  -1899704.81249  21498779.7644   21498785.1424
  22751598.777   -17227450.66849 -13217261.29549  22751598.9264   22751605.1274
  21442498.362    -4826608.56249  -3755270.90249  21442497.2684   21442504.2434
  21174553.002   -23699018.40949 -18375364.60949  21174552.6324   21174559.0264
 96 12  9 18 52 59.9990000  0  5 29 25 22 15 14
  21219174.857   -17058207.80449 -13287351.56149  21219174.5214   21219179.6634
  21507386.905    -2456576.20549  -1864460.42949  21507386.8364   21507392.4134
  22732212.184   -17329328.29049 -13296646.41049  22732211.3784   22732218.8024
  21452254.395    -4775339.65649  -3715321.12449  21452254.1044   21452260.4244
  21158948.418   -23781020.89449 -18439262.63549  21158948.4954   21158954.4204
 96 12  9 18 53 29.9990000  0  5 29 25 22 15 14
  21210514.591   -17103717.33049 -13322813.53249  21210514.3864   21210519.1584
  21516117.722    -2410695.90349  -1828709.55549  21516118.0514   21516123.3264
  22712924.876   -17430683.18749 -13375624.20549  22712923.4804   22712931.3904
  21462156.066    -4723306.51149  -3674775.82949  21462156.1584   21462162.0224
  21143452.928   -23862450.80549 -18502714.50349  21143453.1524   21143458.6144
 96 12  9 18 53 59.9990000  0  5 29 25 22 15 14
  21201941.496   -17148769.08249 -13357918.79949  21201941.7014   21201946.7634
  21524964.073    -2364208.75149  -1792485.79949  21524964.6574   21524969.4374
  22693728.665   -17531560.09549 -13454229.55849  22693727.2904   22693735.3414
  21472193.395    -4670561.12949  -3633675.54049  21472193.3904   21472199.6024
  21128056.863   -23943358.12849 -18565759.16449  21128056.5314   21128061.9384
 96 12  9 18 54 29.9990000  0  5 29 25 22 15 14
  21193472.778   -17193272.80149 -13392597.02049  21193472.8044   21193477.4584
  21533943.146    -2317023.66349  -1755718.19749  21533943.2614   21533948.3664
  22674643.821   -17631851.29549 -13532378.52749  22674642.8614   22674651.2764
  21482384.568    -4617006.83149  -3591944.92749  21482384.4754   21482391.0194
  21112779.106   -24023642.98349 -18628318.78249  21112778.9874   21112785.0334
 96 12  9 18 54 59.9990000  0  5 29 25 22 15 14
  21185107.001   -17237234.86649 -13426853.17849  21185106.9464   21185112.3194
  21543055.585    -2269137.35649  -1718404.19049  21543055.5434   21543061.0104
  22655673.794   -17731539.14749 -13610057.34549  22655672.5944   22655680.3834
  21492728.559    -4562649.29949  -3549588.43049  21492728.0944   21492734.3884
  21097619.990   -24103304.74049 -18690392.86749  21097620.1024   21097625.6674
 96 12  9 18 55 29.9990000  0  5 29 25 22 15 14
  21176839.012   -17280683.09849 -13460708.94549  21176839.5394   21176844.0824
  21552296.261    -2220577.88549  -1680565.64949  21552296.6164   21552301.7394
  22636815.173   -17830641.20749 -13687279.71149  22636814.4194   22636821.8044
  21503220.886    -4507512.03149  -3506624.34549  21503220.3504   21503226.6854
  21082578.055   -24182351.10849 -18751987.44549  21082578.1054   21082583.2814
 96 12  9 18 55 59.9990000  0  5 29 25 22 15 14
  21168647.657   -17323728.92249 -13494251.14749  21168647.6204   21168653.2234
  21561646.077    -2171445.03549  -1642280.31749  21561646.0934   21561651.5584
  22618050.328   -17929250.98549 -13764118.49149  22618049.3604   22618056.0974
  21513843.121    -4451691.32049  -3463127.70149  21513842.2974   21513848.7224
  21067637.843   -24260862.14849 -18813164.87449  21067637.5284   21067643.4934
 96 12  9 18 56 29.9990000  0  5 29 25 22 15 14
  21160549.803   -17366283.02649 -13527410.18749  21160549.8964   21160555.1504
  21571124.432    -2121635.48249  -1603467.68849  21571124.0624   21571129.9024
  22599401.190   -18027252.88949 -13840483.59649  22599399.9314   22599407.0534
  21524613.783    -4395090.70849  -3419023.35349  21524613.0304   21524619.8364
  21052820.451   -24338727.40249 -18873839.08249  21052820.4664   21052826.2124
 96 12  9 18 56 59.9990000  0  5 29 25 22 15 14
  21152519.525   -17408482.48849 -13560292.88049  21152519.9854   21152524.6894
  21580705.381    -2071286.80049  -1564234.95749  21580705.1894   21580710.6904
  22580843.827   -18124772.51249 -13916472.90949  22580842.2084   22580849.6684
  21535505.270    -4337854.71349  -3374423.89349  21535504.4604   21535511.4794
  21038099.628   -24416086.08049 -18934118.56249  21038099.3974   21038105.3924
 96 12  9 18 57 29.9990000  0  5 29 25 22 15 14
  21144563.536   -17450291.67649 -13592871.47749  21144563.5834   21144568.5354
  21590395.344    -2020365.22849  -1524555.81549  21590395.1104   21590400.5894
  22562383.877   -18221780.03149 -13992063.17549  22562382.9374   22562389.9744
  21546524.558    -4279948.05749  -3329301.85149  21546524.1124   21546530.6784
  21023484.169   -24492890.59049 -18993966.21449  21023483.9454   21023490.0244
 96 12  9 18 57 59.9990000  0  5 29 25 22 15 14
  21136697.454   -17491628.22549 -13625081.77049  21136697.6594   21136702.3624
  21600210.928    -1968784.31649  -1484362.90549  21600211.0954   21600216.2004
  22544038.723   -18318184.88249 -14067183.82049  22544038.2174   22544044.4064
  21557687.139    -4221288.30249  -3283592.96649  21557686.2844   21557693.3374
  21008990.463   -24569055.05649 -19053315.12749  21008990.2994   21008996.2074
 96 12  9 18 58 29.9990000  0  6 29 25 16 22 15 14
  21128913.852   -17532531.90049 -13656954.75949  21128913.8174   21128919.0764
  21610141.546    -1916599.25949  -1443699.23149  21610141.8104   21610146.9714
  24609559.524    -6261258.79549  -4579731.34049  24609559.9264   24609566.6864
  22525798.024   -18414040.20049 -14141876.27649  22525797.2554   22525804.1134
  21568985.008    -4161917.07849  -3237329.68249  21568984.3534   21568991.0844
  20994609.957   -24644624.73149 -19112200.57749  20994609.6444   20994615.7834
 96 12  9 18 58 59.9990000  0  6 29 25 16 22 15 14
  21121206.842   -17573031.95349 -13688513.23449  21121206.6934   21121211.6774
  21620178.774    -1863854.14749  -1402599.15749  21620178.9224   21620183.8984
  24588264.259    -6373165.24749  -4666931.10649  24588263.2704   24588271.8234
  22507652.640   -18509394.21649 -14216178.09649  22507651.5374   22507659.4024
  21580412.700    -4101864.06049  -3190535.13549  21580412.0524   21580418.6914
  20980336.005   -24719634.20149 -19170649.50349  20980335.5964   20980342.2494
 96 12  9 18 59 29.9990000  0  6 29 25 16 22 15 14
  21113583.013   -17613094.81449 -13719731.03649  21113582.9714   21113588.2234
  21630331.578    -1810501.02649  -1361025.30749  21630331.5734   21630336.4464
  24567021.906    -6484794.43949  -4753914.87049  24567021.8054   24567028.2224
  22489606.370   -18604227.87649 -14290074.44849  22489605.8304   22489612.5564
  21591977.756    -4041088.89449  -3143177.88849  21591976.8754   21591984.2374
  20966175.618   -24794047.38249 -19228633.78649  20966175.5294   20966181.7134
 96 12  9 18 59 59.9990000  0  6 29 25 16 22 15 14
  21106029.416   -17652788.93349 -13750661.50949  21106029.4604   21106034.7034
  21640584.883    -1756618.94449  -1319039.27949  21640584.4754   21640589.7944
  24545815.255    -6596236.75949  -4840753.03949  24545815.0864   24545821.5804
  22471645.912   -18698611.65449 -14363620.25049  22471645.4744   22471651.8494
  21603665.041    -3979671.10549  -3095319.87649  21603664.2844   21603671.5284
  20952111.405   -24867955.67249 -19286224.65049  20952111.5754   20952117.5144
 96 12  9 19  0 29.9990000  0  6 29 25 16 22 15 14
  21098543.368   -17692128.14749 -13781315.43249  21098543.6724   21098548.9994
  21650935.199    -1702227.05649  -1276656.00649  21650935.3494   21650939.9764
  24524640.057    -6707512.41849  -4927461.32249  24524639.3654   24524648.4014
  22453767.448   -18792564.04749 -14436829.88649  22453766.9014   22453773.3184
  21615470.410    -3917633.65549  -3046979.02549  21615470.0514   21615476.9204
  20938139.211   -24941380.51349 -19343438.80549  20938138.9384   20938144.9984
 96 12  9 19  0 59.9990000  0  6 29 25 16 22 15 14
  21091140.437   -17731030.88549 -13811629.23549  21091140.5374   21091145.7834
  21661397.528    -1647247.79949  -1233815.02149  21661397.6864   21661402.4934
  24503514.351    -6818528.06049  -5013966.98049  24503513.5914   24503520.7384
  22435987.686   -18885997.36649 -14509635.04649  22435987.1694   22435993.7114
  21627406.253    -3854910.38749  -2998103.75849  21627406.1084   21627413.1104
  20924274.933   -25014237.60449 -19400210.54249  20924274.7364   20924280.6704
 96 12  9 19  1 29.9990000  0  6 29 25 16 22 15 14
  21083819.350   -17769503.50849 -13841607.90549  21083819.4564   21083825.1404
  21671970.180    -1591688.62449  -1190522.17149  21671970.1674   21671975.0724
  24482437.377    -6929288.95949  -5100274.16249  24482437.0714   24482443.7894
  22418309.145   -18978898.74549 -14582025.73749  22418307.6594   22418315.8834
  21639469.410    -3791518.25849  -2948707.30649  21639468.9774   21639475.4004
  20910518.233   -25086529.32149 -19456541.74549  20910518.0704   20910523.9664
 96 12  9 19  1 59.9990000  0  6 29 25 16 22 15 14
  21076568.115   -17807609.11949 -13871300.58649  21076568.5854   21076573.7624
  21682636.390    -1535637.28149  -1146845.81349  21682635.9734   21682641.3454
  24461393.059    -7039877.33949  -5186446.91749  24461392.7504   24461400.6104
  22400721.741   -19071320.75649 -14654042.88849  22400721.2634   22400727.0324
  21651644.646    -3727536.30049  -2898851.25249  21651643.9694   21651651.1044
  20896858.946   -25158308.95949 -19512473.93149  20896858.6864   20896864.7014
 96 12  9 19  2 29.9990000  0  6 29 25 16 22 15 14
  21069387.994   -17845341.51649 -13900702.44349  21069388.2864   21069392.8814
  21693397.748    -1479085.52549  -1102779.53249  21693397.4434   21693402.4674
  24440387.063    -7150263.76149  -5272462.29349  24440386.7424   24440394.3454
  22383228.124   -19163251.02149 -14725676.82849  22383228.0444   22383233.9564
  21663933.762    -3662956.50449  -2848529.34749  21663933.5414   21663940.0034
  20883302.617   -25229547.76049 -19567984.68149  20883302.4914   20883308.6554
 96 12  9 19  2 59.9990000  0  6 29 25 16 22 15 14
  21062304.620   -17882565.21649 -13929707.92749  21062304.7004   21062309.6104
  21704280.906    -1421894.43049  -1058215.05449  21704280.9594   21704285.4314
  24419445.476    -7260312.54249  -5358214.58249  24419445.9094   24419452.2164
  22365855.666   -19254544.90349 -14796814.89849  22365855.2214   22365861.1534
  21676362.396    -3597644.49949  -2797636.89349  21676362.2774   21676368.8334
  20869874.650   -25300111.93049 -19622969.74649  20869874.2774   20869880.4444
 96 12  9 19  3 29.9990000  0  6 29 25 16 22 15 14
  21055299.950   -17919375.65249 -13958391.38649  21055299.8094   21055304.9374
  21715268.787    -1364152.82349  -1013221.60149  21715268.7724   21715273.6634
  24398550.633    -7370115.47349  -5443775.27649  24398550.2554   24398556.0634
  22348587.263   -19345290.72249 -14867525.90449  22348586.7854   22348592.8494
  21688913.132    -3531690.33549  -2746244.06149  21688912.7284   21688919.4824
  20856555.994   -25370102.24749 -19677507.65949  20856556.1174   20856561.6624
 96 12  9 19  3 59.9990000  0  6 29 25 16 22 15 14
  21048362.065   -17955834.35249 -13986800.75849  21048362.1624   21048367.0764
  21726348.528    -1305927.73349   -967851.41949  21726348.0824   21726353.8254
  24377692.941    -7479723.74549  -5529184.31749  24377692.7054   24377699.1194
  22331411.435   -19435549.48249 -14937857.37149  22331409.9674   22331416.7214
  21701574.482    -3465155.20349  -2694398.53449  21701574.3734   21701580.6654
  20843334.377   -25439582.81249 -19731648.36149  20843334.5204   20843339.5844
 96 12  9 19  4 29.9990000  0  6 29 25 16 22 15 14
  21041488.208   -17991956.46949 -14014947.85949  21041487.9514   21041492.9024
  21737518.113    -1247231.02949   -922113.76049  21737518.1394   21737523.1104
  24356872.754    -7589134.26949  -5614439.24349  24356871.6694   24356878.4764
  22314327.045   -19525327.83249 -15007814.50049  22314325.7844   22314333.2004
  21714343.778    -3398052.88149  -2642111.02549  21714343.8534   21714349.6834
  20830205.973   -25508572.86449 -19785406.83449  20830205.8594   20830211.9014
 96 12  9 19  4 59.9990000  0  6 29 25 16 22 15 14
  21034676.491   -18027752.04149 -14042840.51349  21034676.5164   21034681.1304
  21748773.887    -1188081.65649   -876023.35349  21748774.2374   21748778.2214
  24336087.753    -7698359.98249  -5699550.14649  24336087.1474   24336094.5634
  22297333.134   -19614631.18349 -15077401.51849  22297332.2284   22297338.9824
  21727218.162    -3330398.17749  -2589393.08449  21727217.4804   21727224.0064
  20817167.426   -25577090.72549 -19838797.36749  20817167.5554   20817173.4304
 96 12  9 19  5 29.9990000  0  6 29 25 16 22 15 14
  21027941.420   -18063145.14649 -14070419.54749  21027941.7694   21027946.4924
  21760129.221    -1128408.77149   -829525.01249  21760129.6264   21760134.0994
  24315354.076    -7807316.14449  -5784451.00849  24315353.3514   24315361.1774
  22280445.193   -19703378.44449 -15146555.20949  22280445.2194   22280451.8854
  21740211.641    -3262116.91349  -2536186.92749  21740211.3854   21740218.0644
  20804236.933   -25645041.05649 -19891745.67049  20804236.7274   20804243.0284
 96 12  9 19  5 59.9990000  0  6 29 25 16 22 15 14
  21021270.563   -18098200.96449 -14097735.76449  21021270.4874   21021275.6204
  21771569.535    -1068289.24549   -782678.64649  21771569.4364   21771574.9544
  24294659.151    -7916068.11749  -5869192.74649  24294658.1984   24294664.9264
  22263649.207   -19791642.29449 -15215332.21449  22263647.9674   22263654.6684
  21753311.133    -3193279.08049  -2482547.07949  21753310.4874   21753316.7274
  20791405.341   -25712471.47149 -19944288.84449  20791405.2204   20791411.3554
 96 12  9 19  6 29.9990000  0  6 29 25 16 22 15 14
  21014677.626   -18132846.63549 -14124732.38849  21014677.7214   21014682.8564
  21783109.472    -1007646.01549   -735424.21649  21783109.4674   21783114.9054
  24274015.560    -8024549.66849  -5953723.76749  24274015.3294   24274021.4824
  22246957.722   -19879355.03049 -15283679.78849  22246957.1124   22246964.3924
  21766529.175    -3123817.82249  -2428421.44849  21766528.6064   21766534.6374
  20778686.103   -25779311.48449 -19996371.96849  20778686.2854   20778692.1064
 96 12  9 19  6 59.9990000  0  6 29 25 16 22 15 14
  21008167.823   -18167055.71549 -14151388.80349  21008168.2084   21008172.9644
  21794756.812     -946439.09549   -687730.53449  21794757.0944   21794762.2554
  24253427.799    -8132738.70349  -6038026.87349  24253427.5324   24253435.3444
  22230376.985   -19966487.00649 -15351574.81149  22230376.0414   22230383.2284
  21779869.956    -3053710.91749  -2373792.71249  21779869.2204   21779875.8344
  20766083.290   -25845539.97049 -20047978.57449  20766083.5204   20766088.9694
 96 12  9 19  7 29.9990000  0  6 29 25 16 22 15 14
  21001722.849   -18200924.76749 -14177780.26549  21001722.7604   21001727.9684
  21806495.031     -884755.06449   -639665.06649  21806495.4074   21806499.8914
  24232875.454    -8240741.46949  -6122184.81449  24232875.4094   24232882.8874
  22213888.576   -20053134.12249 -15419092.02049  22213887.8454   22213895.1214
  21793314.422    -2983059.57749  -2318739.72949  21793313.4734   21793320.1654
  20753579.125   -25911250.19649 -20099181.34849  20753579.0864   20753584.9944
 96 12  9 19  7 59.9990000  0  6 29 25 16 22 15 14
  20995346.718   -18234431.19649 -14203889.17049  20995346.6544   20995351.7994
  21818328.196     -822571.46149   -591210.32549  21818327.8864   21818332.9784
  24212361.215    -8348543.98849  -6206186.72049  24212361.0314   24212368.9174
  22197497.619   -20139268.77349 -15486209.91449  22197497.2024   22197504.6474
  21806865.286    -2911848.21949  -2263250.36549  21806864.3924   21806871.6354
  20741173.450   -25976442.60049 -20149980.61949  20741173.5544   20741179.2844
 96 12  9 19  8 29.9990000  0  6 29 25 16 22 15 14
  20989039.604   -18267575.45849 -14229715.88549  20989039.6204   20989044.0084
  21830260.055     -759868.51249   -542350.91049  21830260.1054   21830265.5014
  24191886.430    -8456139.99249  -6290027.73149  24191885.8964   24191892.6014
  22181209.992   -20224861.56749 -15552905.57049  22181210.2284   22181215.9574
  21820523.706    -2840071.76949  -2207320.68149  21820522.9664   21820530.1504
  20728864.188   -26041128.84149 -20200385.47749  20728863.8664   20728870.1684
 96 12  9 19  8 59.9990000  0  6 29 25 16 22 15 14
  20982784.724   -18300445.22549 -14255328.68949  20982784.8104   20982789.8054
  21842272.057     -696744.99849   -493163.77949  21842272.6094   21842277.5144
  24171435.188    -8563612.24449  -6373772.33649  24171433.9054   24171441.7964
  22165009.187   -20309998.45349 -15619245.96649  22165008.9344   22165014.5964
  21834273.873    -2767813.97849  -2151015.92249  21834273.4874   21834280.5794
  20716637.668   -26105378.84949 -20250450.40749  20716637.1314   20716643.8094
 96 12  9 19  9 29.9990000  0  6 29 25 16 22 15 14
  20976584.984   -18333024.91449 -14280715.46149  20976584.8624   20976590.0174
  21854363.979     -633202.23949   -443649.95949  21854364.3484   21854369.3164
  24151011.277    -8670940.04649  -6457404.38749  24151012.0124   24151018.7264
  22148896.935   -20394668.82149 -15685222.85249  22148895.9584   22148901.7064
  21848119.101    -2695057.05749  -2094322.23949  21848118.5924   21848125.9674
  20704499.934   -26169162.79249 -20300152.18349  20704499.6434   20704505.9544
 96 12  9 19  9 59.9990000  0  6 29 25 16 22 15 14
  20970438.591   -18365324.62849 -14305884.06849  20970438.9074   20970443.5664
  21866530.612     -569266.58149   -393829.98849  21866530.5564   21866535.5144
  24130614.914    -8778123.69549  -6540924.12249  24130614.6134   24130622.2474
  22132873.017   -20478874.29049 -15750837.49549  22132871.6624   22132878.5394
  21862057.695    -2621809.13149  -2037245.94849  21862057.1734   21862064.6474
  20692450.874   -26232480.43349 -20349490.59449  20692450.5354   20692456.5204
 96 12  9 19 10 29.9990000  0  6 29 25 16 22 15 14
  20964341.243   -18397366.93849 -14330852.09549  20964341.5784   20964346.4184
  21878766.491     -504966.48049   -343726.03549  21878766.4354   21878771.5214
  24110242.336    -8885182.21749  -6624346.33849  24110242.4564   24110248.6324
  22116931.614   -20562645.22049 -15816113.52549  22116930.4684   22116937.8404
  21876085.108    -2548094.00249  -1979805.60349  21876085.0614   21876091.7974
  20680492.679   -26295321.61149 -20398457.74749  20680492.8934   20680498.4244
 96 12  9 19 10 59.9990000  0  6 29 25 16 22 15 14
  20958288.658   -18429173.89749 -14355636.73149  20958288.5894   20958293.5034
  21891063.614     -440344.48549   -293371.24949  21891063.8924   21891068.6564
  24089889.528    -8992137.51149  -6707688.11949  24089888.5274   24089895.5144
  22101065.420   -20646022.28949 -15881082.66249  22101064.7314   22101071.8644
  21890195.253    -2473944.63449  -1922026.88049  21890194.7934   21890202.3404
  20668624.259   -26357690.84849 -20447057.14649  20668624.1394   20668629.8994
 96 12  9 19 11 29.9990000  0  6 29 25 16 22 15 14
  20952296.924   -18460660.73449 -14380171.92549  20952296.9374   20952301.7714
  21903439.619     -375308.64049   -242693.97649  21903439.8644   21903444.9704
  24069572.226    -9098905.70549  -6790884.11049  24069570.4234   24069579.0984
  22085291.643   -20728914.85249 -15945674.24549  22085291.4214   22085297.2824
  21904401.887    -2399288.29749  -1863853.12049  21904401.7484   21904408.5304
  20656860.235   -26419511.21549 -20495228.85749  20656860.0734   20656866.1154
 96 12  9 19 11 59.9990000  0  6 29 25 16 22 15 14
  20946371.320   -18491799.77649 -14404436.11849  20946371.0594   20946375.7314
  21915900.590     -309825.40749   -191668.10449  21915900.0184   21915906.3214
  24049296.751    -9205453.30449  -6873908.18149  24049296.2394   24049303.6354
  22069616.922   -20811286.69649 -16009860.08749  22069616.4424   22069621.9004
  21918709.660    -2324101.15449  -1805265.75749  21918709.6434   21918716.2094
  20645207.811   -26480744.75149 -20542943.30049  20645207.5904   20645213.4994
 96 12  9 19 12 29.9990000  0  6 29 25 16 22 15 14
  20940494.859   -18522680.19949 -14428498.78449  20940494.9174   20940499.9234
  21928432.652     -243968.11449   -140350.75949  21928432.7224   21928438.3474
  24029048.952    -9311856.28549  -6956819.55749  24029049.1854   24029056.0254
  22054024.806   -20893223.59749 -16073706.98649  22054023.8774   22054030.0434
  21933101.497    -2248472.49049  -1746334.34749  21933101.3604   21933108.1784
  20633650.232   -26541479.54949 -20590269.11349  20633649.9014   20633655.8834
 96 12  9 19 12 59.9990000  0  6 29 25 16 22 15 14
  20934672.244   -18553278.22349 -14452341.39849  20934672.2884   20934677.3184
  21941039.054     -177721.28349    -88729.86049  21941039.2954   21941044.6134
  24008833.296    -9418090.53849  -7039599.44049  24008832.6514   24008840.6224
  22038521.693   -20974692.81349 -16137189.45949  22038520.6504   22038527.4344
  21947580.400    -2172385.58449  -1687045.86449  21947579.5674   21947587.2334
  20622188.675   -26601710.85649 -20637202.60249  20622189.0764   20622194.7044
 96 12  9 19 13 29.9990000  0  6 29 25 16 22 15 14
  20928893.189   -18583646.91649 -14476005.30949  20928892.9794   20928898.1284
  21953711.092     -111129.94349    -36840.50049  21953711.3124   21953716.4754
  23988639.257    -9524210.84949  -7122290.52649  23988639.2014   23988645.4154
  22023100.555   -21055731.10349 -16200336.13649  22023099.8654   22023106.6704
  21962136.529    -2095892.08649  -1627440.55649  21962136.1404   21962143.0764
  20610810.748   -26661502.51949 -20683793.50549  20610810.4834   20610816.4364
 96 12  9 19 13 59.9990000  0  6 29 25 16 22 15 14
  20923166.572   -18613740.27849 -14499454.68549  20923166.9134   20923171.4884
  21966456.888      -44149.92249     15351.70849  21966456.3294   21966462.5284
  23968476.534    -9630166.50849  -7204853.31449  23968475.1904   23968484.2204
  22007773.426   -21136275.63749 -16263098.07749  22007771.9864   22007779.3454
  21976780.050    -2018940.23949  -1567478.09649  21976780.1024   21976786.8024
  20599524.408   -26720812.39849 -20730008.99549  20599524.1964   20599530.4884
 96 12  9 19 14 29.9990000  0  6 29 25 16 22 15 14
  20917483.507   -18643605.04049 -14522725.92049  20917483.2384   20917488.4694
  21979265.497       23160.97849     67801.73149  21979265.2314   21979270.9994
  23948333.746    -9736017.31049  -7287334.39749  23948332.5844   23948341.1674
  21992530.539   -21216376.71449 -16325514.45449  21992529.5494   21992535.3194
  21991499.219    -1941591.70049  -1507206.51549  21991499.0124   21991506.1174
  20588315.906   -26779712.44249 -20775905.12349  20588315.6464   20588321.7484
 96 12  9 19 14 59.9990000  0  6 29 25 16 22 15 14
  20911851.304   -18673201.97249 -14545788.46449  20911851.0674   20911856.4294
  21992139.567       90814.63449    120518.84949  21992140.3584   21992144.7974
  23928217.214    -9841730.33349  -7369708.11549  23928216.1814   23928224.5524
  21977378.042   -21296003.67749 -16387561.39849  21977377.2884   21977383.4604
  22006298.558    -1863821.20449  -1446606.16449  22006298.0274   22006304.7534
  20577190.405   -26838177.21449 -20821462.09049  20577190.4374   20577196.5004
 96 12  9 19 15 29.9990000  0  6 29 25 16 22 15 14
  20906291.920   -18702416.63949 -14568553.13449  20906292.2254   20906297.0634
  22005102.705      158935.65849    173600.16649  22005103.1444   22005107.5014
  23908151.462    -9947176.58049  -7451873.96649  23908151.5214   23908158.0744
  21962339.626   -21375031.33849 -16449141.34849  21962339.0994   21962344.9804
  22021200.856    -1785508.94349  -1385583.63349  22021200.2004   22021206.9724
  20566171.705   -26896081.16949 -20866582.04449  20566171.6264   20566177.9584
 96 12  9 19 15 59.9990000  0  7 29 25 16 22 15 18 14
  20900772.324   -18731422.70949 -14591155.26449  20900772.4764   20900777.5084
  22018120.048      227341.17549    226903.16449  22018120.2834   22018124.7504
  23888106.881   -10052512.37149  -7533953.75749  23888106.6484   23888113.8484
  21947382.224   -21453632.97749 -16510389.34349  21947382.0344   21947388.2544
  22036173.090    -1706828.20149  -1324273.97849  22036172.1654   22036179.7154
  24482745.598    -6042031.19549  -4692835.52949  24482743.3094   24482752.3264
  20555230.033   -26953580.57649 -20911386.77349  20555230.2204   20555235.5544
 96 12  9 19 16 29.9990000  0  7 29 25 16 22 15 18 14
  20895299.986   -18760180.50649 -14613563.93249  20895300.0954   20895305.3824
  22031195.609      296053.95449    280445.57249  22031195.5514   22031200.8084
  23868090.925   -10157697.22849  -7615915.96849  23868091.9344   23868096.1584
  21932511.779   -21531777.21449 -16571280.89949  21932511.3084   21932517.5954
  22051221.394    -1627747.84249  -1262652.94849  22051221.3274   22051226.7614
  24466207.271    -6128940.50049  -4760557.03849  24466206.9674   24466213.4084
  20544376.182   -27010618.57649 -20955831.97549  20544376.5344   20544381.4214
 96 12  9 19 16 59.9990000  0  7 29 25 16 22 15 18 14
  20889884.081   -18788641.32049 -14635741.18549  20889884.0144   20889888.8954
  22044339.890      365127.63749    334269.19949  22044340.4614   22044345.2114
  23848115.588   -10262668.30849  -7697711.57749  23848116.2534   23848120.3204
  21917741.835   -21609393.82349 -16631761.34049  21917741.1344   21917747.3774
  22066357.770    -1548206.47449  -1200672.67849  22066358.1184   22066363.7034
  24449700.801    -6215682.27049  -4828147.96149  24449699.6754   24449708.2384
  20533625.966   -27067111.67249 -20999852.57049  20533626.2464   20533631.5534
 96 12  9 19 17 29.9990000  0  7 29 25 16 22 15 18 14
  20884493.876   -18816966.63549 -14657812.85449  20884493.9564   20884499.0124
  22057527.229      434427.18849    388268.84149  22057527.4914   22057532.5424
  23828149.192   -10367592.28649  -7779470.49749  23828148.7864   23828155.5224
  21903044.703   -21686626.95049 -16691942.95749  21903043.1494   21903050.0154
  22081551.922    -1468362.58049  -1138456.67149  22081551.9004   22081557.1724
  24433198.697    -6302400.59849  -4895720.60649  24433199.2184   24433205.7024
  20522950.705   -27123210.78849 -21043566.16549  20522950.6374   20522956.2364
 96 12  9 19 17 59.9990000  0  7 29 25 16 22 15 18 14
  20879145.121   -18845075.09649 -14679715.54649  20879144.9994   20879149.6914
  22070771.432      504025.73049    442501.46449  22070771.6334   22070777.0514
  23808203.069   -10472410.13149  -7861146.70749  23808203.4744   23808209.0904
  21888433.988   -21763406.12049 -16751770.84749  21888433.4534   21888439.1664
  22096816.100    -1388150.18449  -1075953.54449  22096815.7434   22096820.9624
  24416717.309    -6389011.29849  -4963209.34249  24416716.8994   24416723.3854
  20512364.427   -27178841.75849 -21086914.95549  20512363.9164   20512370.3244
 96 12  9 19 18 29.9990000  0  7 29 25 16 22 15 18 14
  20873868.338   -18872804.67549 -14701323.00749  20873868.0224   20873873.0434
  22084104.434      574091.04449    497097.79549  22084104.4234   22084109.9074
  23788303.867   -10576980.83249  -7942630.34049  23788303.6704   23788310.3714
  21873939.592   -21839575.41249 -16811123.50849  21873939.1174   21873945.0484
  22112178.433    -1307419.83749  -1013046.81549  22112177.8284   22112183.9954
  24400291.307    -6475330.37949  -5030470.81049  24400291.9294   24400298.6984
  20501897.611   -27233844.94849 -21129774.57849  20501897.6224   20501903.2404
 96 12  9 19 18 59.9990000  0  7 29 25 16 22 15 18 14
  20868652.090   -18900215.74249 -14722682.28049  20868652.2034   20868657.2304
  22097518.385      644581.58149    552025.47349  22097518.4864   22097523.7994
  23768440.857   -10681361.59849  -8023965.96449  23768440.7114   23768446.5434
  21859548.181   -21915203.90049 -16870054.75549  21859547.8204   21859553.8734
  22127626.924    -1226236.52849   -949787.12549  22127626.8234   22127633.0664
  24383908.993    -6561420.18849  -5097553.68549  24383909.5614   24383915.6724
  20491535.893   -27288295.69249 -21172203.72149  20491535.6254   20491541.7734
 96 12  9 19 19 29.9990000  0  7 29 25 16 22 15 18 14
  20863492.228   -18927331.04349 -14743811.08449  20863491.9954   20863497.0344
  22111008.403      715472.44649    607265.09649  22111008.3074   22111013.7904
  23748609.594   -10785576.30249  -8105172.18149  23748609.0504   23748615.4184
  21845251.266   -21990334.19249 -16928597.79549  21845249.9684   21845257.3564
  22143155.269    -1144634.34749   -886201.04349  22143154.8734   22143160.7564
  24367561.690    -6647326.49949  -5164493.60649  24367562.1784   24367569.0404
  20481272.225   -27342231.69949 -21214231.77349  20481272.2304   20481277.6944
 96 12  9 19 19 59.9990000  0  7 29 25 16 22 15 18 14
  20858362.334   -18954288.37049 -14764816.78549  20858362.3364   20858367.4644
  22124543.657      786600.83849    662689.80549  22124543.4574   22124548.8404
  23728785.831   -10889750.70649  -8186346.98849  23728785.0644   23728791.4004
  21831022.292   -22065106.77949 -16986862.11149  21831021.1594   21831028.7514
  22158736.662    -1062753.94749   -822398.16249  22158736.3464   22158741.9874
  24351219.943    -6733202.39049  -5231409.80449  24351218.4524   24351226.1294
  20471083.208   -27395775.93849 -21255954.55649  20471083.2444   20471088.6764
 96 12  9 19 20 29.9990000  0  7 29 25 16 22 15 18 14
  20853247.748   -18981165.84349 -14785760.27449  20853248.0574   20853252.9894
  22138105.769      857870.64749    718224.70549  22138105.4684   22138111.2064
  23708959.132   -10993939.75849  -8267533.20249  23708957.6604   23708965.7024
  21816848.539   -22139589.99449 -17044900.95849  21816847.3314   21816854.7174
  22174355.973     -980674.45949   -758440.13549  22174355.3534   22174361.9094
  24334866.106    -6819139.97049  -5298374.05849  24334864.4744   24334871.5324
  20460954.068   -27449005.28449 -21297431.96649  20460953.8264   20460959.5004
 96 12  9 19 20 59.9990000  0  7 29 25 16 22 15 18 14
  20848162.525   -19007888.82549 -14806583.36449  20848162.8274   20848168.0134
  22151705.910      929340.20149    773915.25049  22151705.7334   22151711.0524
  23689147.582   -11098049.74649  -8348657.82149  23689146.5054   23689153.5734
  21802746.909   -22213694.08549 -17102644.37649  21802746.2634   21802752.6654
  22190026.844     -898322.96349   -694270.15049  22190025.5954   22190032.8424
  24318508.611    -6905098.37049  -5365354.58249  24318506.7784   24318514.6614
  20450895.596   -27501862.25249 -21338619.19949  20450895.3104   20450901.2764
 96 12  9 19 21 29.9990000  0  7 29 25 16 22 15 18 14
  20843151.848   -19034220.57149 -14827101.60849  20843151.9764   20843156.7504
  22165387.160     1001235.71749    829937.71349  22165387.6014   22165392.9644
  23669398.344   -11201832.30049  -8429527.28449  23669397.0774   23669405.3114
  21788768.839   -22287149.75649 -17159882.52849  21788768.2904   21788774.3794
  22205795.549     -815456.46849   -629698.88949  22205794.7984   22205801.7764
  24302194.037    -6990832.38049  -5432160.28749  24302193.1224   24302201.0164
  20440956.737   -27554091.12849 -21379317.03649  20440956.8304   20440962.3744
 96 12  9 19 21 59.9990000  0  7 29 25 16 22 15 18 14
  20838183.035   -19060332.11149 -14847448.25949  20838183.1564   20838187.8104
  22179115.604     1073378.87749    886153.14249  22179115.3684   22179121.2234
  23649679.180   -11305457.07349  -8510273.78949  23649678.6784   23649684.0254
  21774884.767   -22360112.01449 -17216736.19849  21774884.3014   21774889.9264
  22221629.310     -732249.26449   -564862.14049  22221628.5774   22221635.5214
  24285892.135    -7076499.64549  -5498914.00449  24285891.8474   24285899.6444
  20431104.277   -27605866.37449 -21419661.37849  20431104.2114   20431110.0184
 96 12  9 19 22 29.9990000  0  7 29 25 16 22 15 18 14
  20833254.722   -19086230.66349 -14867628.95049  20833255.0484   20833259.6664
  22192892.905     1145779.16949    942568.91949  22192892.5104   22192898.5314
  23629989.823   -11408924.91449  -8590898.01249  23629988.5794   23629996.5914
  21761094.102   -22432582.32349 -17273206.53449  21761092.8294   21761099.7344
  22237527.053     -648706.81849   -499764.16149  22237526.7814   22237533.5234
  24269604.669    -7162091.11149  -5565608.72449  24269603.8834   24269610.6884
  20421334.291   -27657207.71149 -21459667.60849  20421334.4544   20421340.1354
 96 12  9 19 22 59.9990000  0  7 29 25 16 22 15 18 14
  20828387.547   -19111807.71649 -14887559.11649  20828387.8274   20828392.6144
  22206745.525     1218574.71949    999292.69949  22206745.8004   22206750.6444
  23610349.704   -11512134.01049  -8671320.64849  23610349.3554   23610355.7244
  21747418.476   -22504448.29149 -17329205.95049  21747417.6164   21747423.6554
  22253510.688     -564713.15949   -434314.58849  22253509.8864   22253517.2374
  24253355.717    -7247480.33849  -5632145.82049  24253354.6524   24253362.8714
  20411670.732   -27707990.35549 -21499238.49749  20411670.4954   20411676.0874
 96 12  9 19 23 29.9990000  0  7 29 25 16 22 15 18 14
  20823570.492   -19137121.39849 -14907284.06149  20823570.3424   20823575.5894
  22220663.506     1291713.64849   1056284.06949  22220663.6654   22220668.6644
  23590744.645   -11615159.27449  -8751600.01149  23590743.7084   23590751.8814
  21733843.258   -22575787.03149 -17384794.54649  21733842.6244   21733848.8304
  22269567.907     -480331.98549   -368563.05149  22269566.6504   22269574.6404
  24237136.893    -7332709.94749  -5698558.49749  24237137.5294   24237143.2314
  20402106.397   -27758251.29749 -21538402.86549  20402105.9764   20402111.8314
 96 12  9 19 23 59.9990000  0  7 29 25 16 22 15 18 14
  20818780.483   -19162292.93749 -14926898.24949  20818780.5284   20818785.6114
  22234624.730     1365080.15749   1113452.76949  22234624.9394   22234629.9634
  23571149.116   -11718133.80049  -8831839.84649  23571147.9244   23571154.7064
  21720342.315   -22646735.41649 -17440078.97149  21720341.3514   21720347.7074
  22285673.960     -395693.84649   -302611.30549  22285673.8994   22285680.1814
  24220924.375    -7417906.62249  -5764945.52749  24220924.4534   24220931.3084
  20392617.242   -27808116.63749 -21577258.96449  20392617.0954   20392623.0514
 96 12  9 19 24 29.9990000  0  7 29 25 16 22 15 18 14
  20814026.200   -19187276.71649 -14946366.13049  20814026.0904   20814031.7024
  22248638.598     1438724.20549   1170837.71949  22248638.3484   22248644.2664
  23551574.055   -11821000.57149  -8911995.73249  23551572.7654   23551580.1124
  21706925.145   -22717242.93849 -17495019.87549  21706924.1694   21706930.9244
  22301837.503     -310754.65549   -236424.94849  22301837.8094   22301843.7424
  24204726.819    -7503026.04949  -5831272.35949  24204727.8964   24204733.8624
  20383216.048   -27857520.07649 -21615755.14149  20383215.8734   20383221.7714
 96 12  9 19 24 59.9990000  0  7 29 25 16 22 15 18 14
  20809309.488   -19212062.78649 -14965679.94249  20809309.3354   20809314.4324
  22262700.760     1512621.55749   1228420.04749  22262700.9834   22262705.9614
  23532017.343   -11923771.01849  -8992076.55649  23532016.1644   23532024.5674
  21693590.278   -22787317.81049 -17549623.64149  21693588.8914   21693595.9004
  22318055.549     -225529.53749   -170015.79749  22318055.7124   22318061.9734
  24188541.373    -7588082.31949  -5897549.97349  24188541.3514   24188547.6914
  20373903.352   -27906458.85549 -21653889.25349  20373903.3904   20373909.3224
 96 12  9 19 25 29.9990000  0  7 29 25 16 22 15 18 14
  20804642.201   -19236589.66949 -14984791.79849  20804642.3764   20804647.2694
  22276817.411     1586804.29049   1286224.76349  22276817.8504   22276822.5804
  23512491.466   -12026379.23249  -9072030.94849  23512491.4914   23512498.1574
  21680348.880   -22856901.13849 -17603844.39449  21680347.5984   21680354.0874
  22334337.163     -139970.97049   -103346.82949  22334337.2904   22334343.5104
  24172376.919    -7673027.00149  -5963740.61749  24172375.9724   24172382.0354
  20364688.063   -27954885.53849 -21691624.32849  20364687.6204   20364693.9424
 96 12  9 19 25 59.9990000  0  7 29 25 16 22 15 18 14
  20800009.465   -19260935.00149 -15003762.18249  20800009.7134   20800014.8154
  22290972.189     1661187.69749   1344185.84649  22290972.0114   22290977.5774
  23492986.657   -12128877.25549  -9151899.52149  23492986.7244   23492992.4624
  21667191.749   -22926041.33549 -17657719.85049  21667190.7864   21667196.6274
  22350668.612      -54149.68949    -36473.13949  22350669.1144   22350674.5104
  24156219.441    -7757934.80549  -6029902.48149  24156219.3774   24156226.0154
  20355556.287   -28002872.80849 -21729017.00849  20355556.0624   20355562.5934
 96 12  9 19 26 29.9990000  0  7 29 25 16 22 15 18 14
  20795421.676   -19285044.06949 -15022548.46649  20795421.9294   20795426.9294
  22305171.490     1735805.71849   1402329.74549  22305171.2314   22305177.7924
  23473513.213   -12231211.17949  -9231640.20649  23473512.7454   23473519.6104
  21654129.646   -22994682.88749 -17711206.75149  21654128.8294   21654135.0004
  22367059.116       31983.08149     30643.27549  22367057.8384   22367064.7434
  24140078.823    -7842753.88749  -6095995.22349  24140078.5214   24140084.4194
  20346518.587   -28050366.13049 -21766024.79149  20346518.5184   20346524.7154
 96 12  9 19 26 59.9990000  0  7 29 25 16 22 15 18 14
  20790877.855   -19308922.46849 -15041155.01049  20790878.0354   20790882.9194
  22319414.135     1810652.17949   1460651.62749  22319414.2214   22319420.6454
  23454067.816   -12333396.90849  -9311265.41249  23454066.8274   23454075.3684
  21641159.450   -23062841.56049 -17764317.38949  21641158.7584   21641165.2384
  22383507.546      118421.15949     97997.58749  22383506.5214   22383513.3904
  24123954.620    -7927487.20949  -6162021.14549  24123953.9444   24123960.3684
  20337571.599   -28097382.75349 -21802661.12049  20337571.3024   20337577.4824
 96 12  9 19 27 29.9990000  0  7 29 25 16 22 15 18 14
  20786356.364   -19332682.52049 -15059669.33349  20786356.2354   20786361.4604
  22333687.198     1885657.00849   1519096.91749  22333687.7004   22333693.9304
  23434634.943   -12435516.79349  -9390839.29949  23434634.5804   23434641.9194
  21628268.245   -23130585.13749 -17817104.56849  21628267.7724   21628273.7754
  22399997.946      205079.29149    165523.37249  22399996.9954   22400003.6514
  24107831.724    -8012213.36149  -6228041.44649  24107832.4554   24107837.2104
  20328700.720   -28143999.28649 -21838985.69949  20328700.5934   20328706.3954
 96 12  9 19 27 59.9990000  0  7 29 25 16 22 15 18 14
  20781850.307   -19356361.81749 -15078120.73149  20781850.1454   20781855.1644
  22347984.887     1960791.35949   1577643.14749  22347985.2224   22347990.9514
  23415206.702   -12537613.41949  -9470395.07549  23415205.1214   23415212.6594
  21615448.700   -23197952.79849 -17869598.81949  21615447.8674   21615453.6214
  22416522.352      291915.57549    233187.97049  22416522.1554   22416528.4664
  24091703.330    -8096969.21049  -6294084.91249  24091702.4214   24091709.5694
  20319898.558   -28190255.01949 -21875029.12849  20319898.5974   20319904.6544
 96 12  9 19 28 29.9990000  0  7 29 25 16 22 15 18 14
  20777369.781   -19379906.78549 -15096467.46949  20777369.9564   20777374.8924
  22362317.736     2036110.65349   1636333.48549  22362317.7904   22362322.6534
  23395790.166   -12639647.70349  -9549902.26549  23395788.6434   23395796.1454
  21602707.695   -23264907.54749 -17921771.32349  21602706.5374   21602712.5824
  22433088.156      378968.59649    301021.45249  22433087.5174   22433093.7764
  24075577.836    -8181708.66649  -6360115.59949  24075576.4654   24075584.9714
  20311171.851   -28236114.35649 -21910763.68649  20311171.7284   20311177.9354
 96 12  9 19 28 59.9990000  0  7 29 25 16 22 15 18 14
  20772930.072   -19403237.93149 -15114647.58849  20772930.1204   20772935.4384
  22376699.924     2111689.61849   1695226.17149  22376699.4034   22376704.9634
  23376400.382   -12741541.48049  -9629299.97849  23376400.3754   23376406.9334
  21590061.091   -23331365.39349 -17973556.61549  21590060.2124   21590065.9054
  22449708.624      466309.60849    369079.34949  22449707.9214   22449714.8984
  24059469.329    -8266358.22049  -6426076.21349  24059468.4074   24059476.3954
  20302535.227   -28281500.04349 -21946129.15949  20302535.3074   20302541.1344
 96 12  9 19 29 29.9990000  0  7 29 25 16 22 15 18 14
  20768536.530   -19426325.95049 -15132638.25649  20768536.6014   20768542.0044
  22391133.517     2187538.72849   1754329.34749  22391133.5114   22391138.5764
  23357041.078   -12843275.17549  -9708572.94249  23357040.9774   23357048.3594
  21577515.181   -23397294.21049 -18024929.68849  21577514.0484   21577520.3194
  22466386.555      553952.82149    437372.72749  22466385.6754   22466393.0044
  24043380.704    -8350904.11849  -6491956.06549  24043380.1644   24043388.2774
  20293994.241   -28326383.59549 -21981103.36749  20293994.3104   20294000.1944
 96 12  9 19 29 59.9990000  0  7 29 25 16 22 15 18 14
  20764192.993   -19449151.12549 -15150424.10949  20764192.9984   20764198.1414
  22405615.696     2263642.97549   1813631.33549  22405615.7954   22405620.9184
  23337711.535   -12944851.36349  -9787723.15749  23337711.3194   23337718.7774
  21565068.267   -23462702.53749 -18075897.17349  21565067.7144   21565073.4894
  22483120.968      641893.39549    505897.80249  22483119.9404   22483127.3104
  24027311.890    -8435345.80349  -6557754.71949  24027310.6894   24027318.7224
  20285547.687   -28370770.06749 -22015690.22849  20285547.2084   20285553.3144
 96 12  9 19 30 29.9990000  0  7 29 25 16 22 15 18 14
  20759914.313   -19471635.88249 -15167944.70749  20759914.3304   20759919.4334
  22420159.916     2340072.75449   1873186.99249  22420159.8064   22420165.3924
  23318427.792   -13046187.82949  -9866686.59749  23318427.2894   23318434.6354
  21552736.918   -23527504.60249 -18126392.24549  21552735.9614   21552742.3794
  22499926.797      730208.71149    574714.89749  22499925.9754   22499934.6414
  24011279.564    -8519596.49249  -6623404.57849  24011279.1674   24011286.4864
  20277213.917   -28414564.33949 -22049815.63849  20277213.9974   20277219.9894
 96 12  9 19 30 59.9990000  0  7 29 25 16 22 15 18 14
  20755670.590   -19493936.62249 -15185321.90849  20755670.4984   20755675.6464
  22434737.586     2416678.44249   1932879.71149  22434737.6944   22434743.3994
  23299163.166   -13147423.57449  -9945571.54249  23299162.6254   23299169.0014
  21540494.857   -23591836.68149 -18176521.09849  21540493.6674   21540499.9624
  22516776.671      818755.78449    643712.57449  22516776.1404   22516783.2494
  23995256.870    -8603796.01549  -6689014.54849  23995255.7104   23995263.0634
  20268968.989   -28457891.91349 -22083577.38949  20268968.6854   20268975.2254
 96 12  9 19 31 29.9990000  0  7 29 25 16 22 15 18 14
  20751472.102   -19515999.78649 -15202513.98649  20751472.2054   20751477.5014
  22449364.978     2493546.04749   1992776.51549  22449364.5684   22449371.0144
  23279934.007   -13248473.35149 -10024311.58549  23279933.7274   23279940.0874
  21528355.202   -23655630.42149 -18226230.47349  21528354.7404   21528360.0724
  22533684.146      907604.87849    712945.59149  22533684.4654   22533690.1754
  23979257.540    -8687872.78549  -6754528.89549  23979258.1854   23979263.6294
  20260827.057   -28500677.69049 -22116916.95549  20260826.9214   20260833.2664
 96 12  9 19 31 59.9990000  0  7 29 25 16 22 15 18 14
  20747323.438   -19537801.46649 -15219502.31149  20747323.3774   20747328.8364
  22464051.254     2570723.18349   2052914.51249  22464051.7014   22464057.5074
  23260752.506   -13349272.38849 -10102856.24549  23260751.5974   23260757.8434
  21516327.808   -23718834.70649 -18275480.52849  21516327.3674   21516333.3304
  22550657.461      996799.06949    782447.52549  22550656.7054   22550663.0804
  23963291.097    -8771777.67549  -6819909.31549  23963291.4494   23963296.1694
  20252795.467   -28542884.06149 -22149805.04049  20252795.6014   20252801.5744
 96 12  9 19 32 29.9990000  0  7 29 25 16 22 15 18 14
  20743229.810   -19559313.50549 -15236264.93249  20743229.4714   20743235.4294
  22478804.486     2648251.57249   2113326.22049  22478804.6974   22478809.8164
  23241628.158   -13449771.39949 -10181167.11849  23241628.2264   23241635.8654
  21504422.829   -23781396.23149 -18324229.74249  21504422.1884   21504428.7374
  22567703.272     1086375.28949    852247.14749  22567702.3654   22567709.6374
  23947363.581    -8855477.01849  -6885129.53249  23947362.9664   23947370.4134
  20244882.129   -28584469.57349 -22182209.33549  20244882.4004   20244888.1744
 96 12  9 19 32 59.9990000  0  7 29 25 16 22 15 18 14
  20739175.807   -19580617.07649 -15252865.12349  20739175.6774   20739181.0414
  22493610.676     2726058.54449   2173955.00849  22493611.3574   22493616.2924
  23222546.118   -13550048.19349 -10259304.83949  23222545.9564   23222552.4134
  21492627.277   -23843382.47949 -18372530.69849  21492626.2244   21492633.3794
  22584805.495     1176247.73649    922277.57849  22584805.0754   22584811.2494
  23931458.066    -8939060.79049  -6950259.70449  23931457.7174   23931465.9894
  20237070.752   -28625518.45149 -22214195.47849  20237070.3484   20237076.9434
 96 12  9 19 33 29.9990000  0  7 29 25 16 22 15 18 14
  20735141.244   -19601818.51249 -15269385.72149  20735141.2504   20735146.6364
  22508446.650     2804021.96849   2234705.71549  22508446.7074   22508452.3404
  23203483.784   -13650221.62749 -10337362.03149  23203483.5334   23203490.2754
  21480918.599   -23904911.99949 -18420475.75549  21480917.8004   21480923.7574
  22601939.814     1266289.05949    992439.59849  22601938.9034   22601947.1814
  23915551.515    -9022650.75949  -7015394.75149  23915551.8384   23915558.1064
  20229336.559   -28666161.24749 -22245865.17749  20229336.3324   20229342.9234
 96 12  9 19 33 59.9990000  0  7 29 25 16 22 15 18 14
  20731133.608   -19622878.72349 -15285796.27549  20731133.6254   20731138.9694
  22523312.898     2882144.26349   2295580.20349  22523312.9054   22523319.3164
  23184442.518   -13750284.55749 -10415333.10449  23184442.5444   23184449.2774
  21469303.002   -23965952.85249 -18468040.03849  21469302.1914   21469308.0054
  22619107.831     1356507.65649   1062739.75049  22619106.8784   22619113.7464
  23899647.213    -9106228.59549  -7080520.33649  23899647.6384   23899653.3654
  20221683.255   -28706379.70149 -22277204.23449  20221683.4404   20221689.6564
 96 12  9 19 34 29.9990000  0  7 29 25 16 22 15 18 14
  20727162.676   -19643746.31949 -15302056.73349  20727162.6044   20727168.0674
  22538213.166     2960445.13149   2356593.83849  22538212.7404   22538219.3694
  23165425.802   -13850217.66049 -10493203.00449  23165424.8204   23165433.1854
  21457783.925   -24026486.03949 -18515208.73649  21457782.8164   21457788.7204
  22636313.268     1446922.56749   1133192.90049  22636312.2074   22636319.7244
  23883748.803    -9189775.66849  -7145621.93649  23883748.7454   23883754.9884
  20214118.026   -28746136.35649 -22308183.44449  20214118.2674   20214124.1394
 96 12  9 19 34 59.9990000  0  7 29 25 16 22 15 18 14
  20723232.323   -19664400.21749 -15318150.67649  20723232.5954   20723237.6064
  22553146.415     3038920.21749   2417743.22849  22553146.0324   22553151.8914
  23146435.696   -13950010.88949 -10570963.91849  23146435.3964   23146441.9294
  21446359.240   -24086522.85549 -18561990.66849  21446358.3254   21446364.8314
  22653557.559     1537541.83349   1203805.27249  22653556.7194   22653562.8644
  23867860.046    -9273271.43149  -7210683.55349  23867859.6854   23867865.6124
  20206642.350   -28785421.18449 -22338794.99549  20206642.0434   20206648.3334
 96 12  9 19 35 29.9990000  0  7 29 25 16 22 15 18 14
  20719365.184   -19684722.64449 -15333986.33049  20719365.5124   20719370.4924
  22568135.385     3117688.11549   2479120.77749  22568135.6854   22568141.1234
  23127495.467   -14049541.42249 -10648520.13649  23127494.2994   23127502.7384
  21435048.031   -24145963.35449 -18608307.94049  21435046.8564   21435053.1624
  22670863.085     1628484.07849   1274669.30849  22670862.6284   22670868.9004
  23852006.265    -9356583.94749  -7275602.36649  23852005.2204   23852012.8764
  20199278.373   -28824118.90049 -22368949.06949  20199278.3914   20199283.9524
 96 12  9 19 35 59.9990000  0  7 29 25 16 22 15 18 14
  20715568.528   -19704674.76249 -15349533.42449  20715568.9404   20715573.5514
  22583186.912     3196784.53349   2540754.32849  22583186.7054   22583192.9834
  23108613.036   -14148768.46849 -10725839.86549  23108612.9504   23108618.9584
  21423857.655   -24204768.55849 -18654130.16549  21423856.5934   21423863.2144
  22688238.251     1719791.75549   1345818.11849  22688237.4604   22688244.1024
  23836196.283    -9439665.97249  -7340341.57749  23836195.6354   23836202.8844
  20192034.835   -28862184.16149 -22398610.31649  20192034.6554   20192040.3804
 96 12  9 19 36 29.9990000  0  7 29 25 16 22 15 18 14
  20711837.247   -19724282.97049 -15364812.54849  20711837.5734   20711842.2184
  22598298.589     3276196.54149   2602633.79149  22598298.8234   22598304.5754
  23089788.113   -14247694.96649 -10802925.43049  23089788.4124   23089794.4604
  21412782.788   -24262967.34149 -18699479.85949  21412781.9894   21412788.1114
  22705682.092     1811459.19249   1417247.23949  22705681.5744   22705688.7154
  23820428.789    -9522524.03549  -7404906.26349  23820429.1604   23820434.9284
  20184910.332   -28899623.62849 -22427783.93349  20184909.9084   20184916.1304
 96 12  9 19 36 59.9990000  0  7 29 25 16 22 15 18 14
  20708147.787   -19743671.28849 -15379920.32549  20708147.9374   20708153.0084
  22613452.014     3355828.10149   2664684.35149  22613452.1934   22613457.9394
  23070999.328   -14346430.59149 -10879862.25849  23071000.4194   23071006.0344
  21401803.744   -24320662.53149 -18744437.14449  21401803.1104   21401809.8814
  22723174.084     1903378.76249   1488872.84849  22723174.1944   22723180.4574
  23804684.448    -9605260.25249  -7469375.98549  23804684.3904   23804690.4664
  20177883.685   -28936548.14349 -22456556.28149  20177883.4324   20177889.8164
 96 12  9 19 37 29.9990000  0  7 29 25 16 22 15 18 14
  20704480.084   -19762944.99049 -15394938.79549  20704479.9174   20704485.3984
  22628629.527     3435586.18949   2726833.48849  22628629.6664   22628635.2824
  23052227.480   -14445077.81049 -10956730.18649  23052227.3554   23052235.3414
  21390904.927   -24377936.15049 -18789065.93549  21390904.6054   21390910.8474
  22740692.359     1995437.71149   1560607.03549  22740691.6374   22740698.6584
  23788938.199    -9688006.77749  -7533853.78049  23788937.5214   23788945.0914
  20170936.181   -28973057.11749 -22485004.83549  20170936.2214   20170942.6524
 96 12  9 19 37 59.9990000  0  7 29 25 16 22 15 18 14
  20700838.463   -19782081.53949 -15409850.38649  20700838.3684   20700843.7624
  22643833.694     3515484.27449   2789091.70849  22643833.7904   22643839.5644
  23033479.260   -14543600.42249 -11033500.98649  23033477.8554   23033486.2024
  21380096.849   -24434733.08949 -18833323.29049  21380096.4874   21380102.2284
  22758241.126     2087657.45049   1632466.53649  22758241.0384   22758248.2604
  23773191.511    -9770755.64349  -7598333.38549  23773190.8624   23773198.4774
  20164073.967   -29009118.40149 -22513104.53849  20164074.0024   20164080.3954
 96 12  9 19 38 29.9990000  0  7 29 25 16 22 15 18 14
  20697234.702   -19801018.99249 -15424606.84449  20697234.5034   20697239.9514
  22659075.276     3595579.24549   2851503.34649  22659074.9394   22659081.1434
  23014766.870   -14641933.97749 -11110124.48949  23014766.2794   23014773.8754
  21369394.303   -24490975.93349 -18877148.88049  21369393.8074   21369399.8984
  22775830.814     2180092.54149   1704493.85449  22775829.8314   22775837.0744
  23757451.854    -9853467.51049  -7662784.12149  23757451.8484   23757458.4844
  20157309.215   -29044667.35949 -22540805.02249  20157309.0354   20157315.4574
 96 12  9 19 38 59.9990000  0  7 29 25 16 22 15 18 14
  20693697.912   -19819604.60749 -15439089.14649  20693697.8814   20693703.1684
  22674381.671     3676015.03849   2914180.55649  22674381.5924   22674387.5944
  22996119.001   -14739928.81449 -11186484.07249  22996118.1394   22996126.2084
  21358830.097   -24546491.12549 -18920407.45849  21358829.4204   21358836.3684
  22793488.291     2272883.98249   1776798.82649  22793487.2474   22793495.5164
  23741747.925    -9935992.47449  -7727089.27049  23741748.6594   23741754.0374
  20150670.822   -29079552.28449 -22567988.08449  20150670.6414   20150676.7854
 96 12  9 19 39 29.9990000  0  7 29 25 16 22 15 18 14
  20690207.997   -19837944.45549 -15453379.93949  20690208.2074   20690213.4414
  22689731.000     3756675.14149   2977032.56149  22689730.9664   22689736.7374
  22977516.049   -14837687.42049 -11262659.57249  22977515.5974   22977522.8264
  21348387.612   -24601366.60249 -18963167.56649  21348386.5104   21348393.7664
  22811193.719     2365926.41449   1849299.38849  22811192.9304   22811201.5474
  23726061.771   -10018424.26949  -7791321.78149  23726060.6704   23726067.6794
  20144140.768   -29113867.75349 -22594727.40549  20144140.8314   20144147.1084
 96 12  9 19 39 59.9990000  0  7 29 25 16 22 15 18 14
  20686746.385   -19856135.76849 -15467554.99349  20686746.5934   20686751.8114
  22705104.088     3837462.02149   3039983.36349  22705103.6944   22705109.6484
  22958941.288   -14935299.15949 -11338720.64549  22958941.8354   22958948.3754
  21338049.213   -24655695.73649 -19005501.95649  21338048.7064   21338054.9904
  22828930.475     2459133.96149   1921928.59749  22828930.0314   22828936.4144
  23710382.322   -10100820.60149  -7855526.68949  23710382.5144   23710388.3224
  20137702.884   -29147699.27749 -22621089.63749  20137702.6094   20137709.0414
 96 12  9 19 40 29.9990000  0  7 29 25 16 22 15 18 14
  20683320.077   -19874141.62349 -15481585.53849  20683320.1454   20683324.9644
  22720506.439     3918403.04949   3103054.27249  22720505.7114   22720512.5594
  22940396.738   -15032751.61749 -11414657.60949  22940396.5544   22940403.3814
  21327814.563   -24709479.34549 -19047411.25849  21327814.3614   21327820.1204
  22846702.234     2552525.09049   1994700.88649  22846702.2674   22846708.9464
  23694716.589   -10183144.31049  -7919674.98849  23694715.6304   23694723.2774
  20131362.639   -29181016.88449 -22647051.40549  20131362.4784   20131368.8084
 96 12  9 19 40 59.9990000  0  7 29 25 16 22 15 18 14
  20679942.022   -19891893.98849 -15495418.55649  20679942.0844   20679946.6644
  22735955.504     3999588.24649   3166315.43049  22735955.4564   22735962.0384
  22921896.793   -15129969.63549 -11490411.89849  22921896.5414   22921903.5854
  21317694.768   -24762660.02549 -19088850.73749  21317694.4474   21317700.2514
  22864521.792     2646167.26849   2067668.76849  22864520.8524   22864529.5544
  23679082.817   -10265299.94649  -7983692.33849  23679082.8024   23679089.4084
  20125134.095   -29213748.29749 -22672556.41149  20125134.3494   20125140.2544
 96 12  9 19 41 29.9990000  0  7 29 25 16 22 15 18 14
  20676621.877   -19909341.19849 -15509013.77949  20676622.0924   20676626.5124
  22751462.400     4081078.47649   3229814.27949  22751461.7114   22751468.8454
  22903451.328   -15226901.54749 -11565943.24049  22903450.7014   22903458.1614
  21307695.046   -24815209.17349 -19129798.10949  21307694.1804   21307700.3414
  22882397.224     2740102.48949   2140865.00549  22882396.9064   22882403.3464
  23663487.952   -10347251.14549  -8047550.37949  23663487.6884   23663495.0404
  20119025.537   -29245849.42749 -22697570.27849  20119025.3894   20119031.7724
 96 12  9 19 41 59.9990000  0  7 29 25 16 22 15 18 14
  20673362.948   -19926467.13949 -15522358.66649  20673362.8994   20673368.0234
  22767025.968     4162867.20349   3293545.72249  22767025.6764   22767032.5534
  22885060.942   -15323542.71849 -11641248.00349  22885060.2324   22885067.2744
  21297812.032   -24867144.45749 -19170267.15749  21297810.6524   21297817.0654
  22900326.059     2834318.13349   2214279.75449  22900325.9344   22900332.2844
  23647926.756   -10429025.12549  -8111270.32549  23647925.0424   23647933.8644
  20113036.091   -29277324.19849 -22722096.07849  20113036.0154   20113042.2954
 96 12  9 19 42 29.9990000  0  7 29 25 16 22 15 18 14
  20670156.369   -19943317.94449 -15535489.17249  20670156.2294   20670161.3184
  22782637.447     4244906.36049   3357472.29749  22782637.5184   22782643.5464
  22866716.060   -15419945.71749 -11716367.19149  22866715.7524   22866723.3264
  21288036.420   -24918514.98649 -19210296.13549  21288035.3204   21288041.3284
  22918296.227     2928751.79049   2287864.38249  22918294.8654   22918303.7384
  23632386.601   -10510687.39349  -8174903.20649  23632386.4994   23632393.9754
  20107155.285   -29308228.50549 -22746177.36449  20107155.3764   20107161.2604
 96 12  9 19 42 59.9990000  0  7 29 25 16 22 15 18 14
  20667001.741   -19959895.32549 -15548406.61149  20667002.0524   20667007.1634
  22798296.808     4327196.88849   3421594.75049  22798296.6684   22798303.0834
  22848419.335   -15516096.14649 -11791289.57749  22848419.0594   22848425.7404
  21278374.188   -24969290.10449 -19249861.15549  21278373.4894   21278379.0204
  22936309.101     3023410.41149   2361624.30449  22936308.5844   22936316.4144
  23616869.989   -10592227.72849  -8238441.09349  23616870.0214   23616875.8104
  20101382.932   -29338562.91149 -22769814.57149  20101382.7824   20101389.1064
 96 12  9 19 43 29.9990000  0  7 29 25 16 22 15 18 14
  20663907.921   -19976153.99249 -15561075.69649  20663907.9244   20663912.9954
  22814008.948     4409764.53249   3485933.15549  22814009.5704   22814015.3334
  22830180.556   -15611941.26049 -11865974.04349  22830179.6854   22830187.2564
  21268837.180   -25019406.99449 -19288913.26949  21268835.8014   21268842.1384
  22954373.540     3118340.13849   2435595.47049  22954372.7584   22954380.2904
  23601383.105   -10673612.84149  -8301858.02649  23601383.4624   23601388.4074
  20095729.076   -29368273.49949 -22792965.67949  20095728.3974   20095735.4494
 96 12  9 19 43 59.9990000  0  7 29 25 16 22 15 18 14
  20660863.828   -19992150.81549 -15573540.74349  20660863.7124   20660868.9774
  22829759.864     4492535.03649   3550429.62049  22829760.4864   22829765.8304
  22811990.928   -15707528.21649 -11940457.34649  22811990.6774   22811997.6004
  21259417.558   -25068907.35249 -19327484.97749  21259416.7424   21259423.0924
  22972479.705     3213488.50549   2509736.99949  22972479.8334   22972485.7984
  23585917.746   -10754884.22649  -8365186.32549  23585917.8594   23585924.2144
  20090184.231   -29397411.19049 -22815670.38049  20090184.5454   20090190.4234
 96 12  9 19 44 29.9990000  0  7 29 25 16 22 15 18 14
  20657868.767   -20007889.60349 -15585804.73149  20657868.5454   20657873.7984
  22845553.684     4575531.37849   3615102.06249  22845553.8224   22845560.1334
  22793856.310   -15802826.75049 -12014715.92849  22793855.5424   22793861.8934
  21250121.749   -25117757.43549 -19365549.98149  21250120.6284   21250126.9904
  22990632.252     3308879.77549   2584067.80349  22990631.7574   22990638.9004
  23570483.019   -10835993.72749  -8428388.49349  23570482.2954   23570489.5744
  20084752.120   -29425957.61749 -22837914.36149  20084751.9764   20084758.2014
 96 12  9 19 44 59.9990000  0  7 29 25 16 22 15 18 14
  20654922.156   -20023373.79349 -15597870.33049  20654921.9454   20654927.2284
  22861388.143     4658742.07449   3679941.53349  22861387.9004   22861394.6584
  22775778.367   -15897827.11449 -12088742.15349  22775777.9674   22775784.7284
  21240949.079   -25165960.03649 -19403110.43549  21240948.3874   21240954.5604
  23008831.345     3404516.31949   2658589.75349  23008831.0184   23008837.7944
  23555079.648   -10916938.89349  -8491462.60749  23555080.0374   23555086.6564
  20079435.557   -29453896.38049 -22859684.81649  20079435.3364   20079441.9084
 96 12  9 19 45 29.9990000  0  7 29 25 16 22 15 18 14
  20652032.418   -20038559.18749 -15609703.10949  20652032.4854   20652037.5724
  22877270.344     4742202.90349   3744975.89449  22877270.7554   22877276.7424
  22757765.420   -15992485.73949 -12162502.08049  22757765.1474   22757772.5714
  21231904.654   -25213488.79949 -19440145.82649  21231903.8894   21231909.7574
  23027083.891     3500434.19049   2733330.91149  23027082.6224   23027090.7114
  23539712.681   -10997694.12449  -8554388.72149  23539712.3464   23539719.2924
  20074243.857   -29481178.72749 -22880943.79149  20074243.8604   20074250.0574
 96 12  9 19 45 59.9990000  0  7 29 25 16 22 15 18 14
  20649187.921   -20053507.44649 -15621351.10549  20649187.9654   20649192.8224
  22893186.061     4825840.73049   3810148.18449  22893186.5274   22893191.8384
  22739802.558   -16086880.89149 -12236056.71349  22739801.7934   22739808.7184
  21222974.189   -25260418.50649 -19476714.42449  21222973.2514   21222979.2994
  23045375.157     3596555.33449   2808230.43449  23045374.9094   23045382.6734
  23524369.277   -11078324.13649  -8617217.27449  23524368.5794   23524376.3924
  20069161.045   -29507889.37549 -22901757.28849  20069160.9094   20069167.3504
 96 12  9 19 46 29.9990000  0  7 29 25 16 22 15 18 14
  20646389.764   -20068211.73549 -15632808.99249  20646389.8824   20646394.8554
  22909135.961     4909658.44449   3875460.65849  22909136.1154   22909142.3634
  22721884.806   -16181038.73049 -12309426.42049  22721884.1874   22721891.3284
  21214157.039   -25306752.49849 -19512818.82449  21214156.2354   21214162.4124
  23063702.368     3692864.81349   2883276.74349  23063702.2414   23063708.8154
  23509046.548   -11158844.20649  -8679960.14549  23509046.8764   23509053.7884
  20064185.143   -29534037.64149 -22922132.56049  20064185.2244   20064191.6244
 96 12  9 19 46 59.9990000  0  7 29 25 16 22 15 18 14
  20643655.711   -20082579.13749 -15644004.36549  20643655.8044   20643660.8954
  22925134.188     4993729.66249   3940970.66749  22925134.2704   22925140.4064
  22704023.626   -16274900.07849 -12382565.09449  22704023.0024   22704030.1414
  21205466.768   -25352419.89149 -19548403.80249  21205465.9414   21205472.5604
  23082077.737     3789427.84049   2958520.62749  23082077.1214   23082084.4624
  23493754.794   -11239202.67449  -8742577.09149  23493754.1624   23493761.6804
  20059329.703   -29559553.15549 -22942014.78249  20059329.7554   20059335.8424
 96 12  9 19 47 29.9990000  0  7 29 25 16 22 15 18 14
  20640988.619   -20096594.88949 -15654925.72949  20640988.7314   20640993.6854
  22941183.226     5078067.68349   4006688.57549  22941182.9704   22941189.4884
  22686221.827   -16368448.90949 -12455460.26049  22686221.5364   22686227.4064
  21196905.593   -25397408.32949 -19583459.71849  21196904.8284   21196911.1904
  23100501.540     3886246.02949   3033963.33249  23100501.2564   23100508.7874
  23478495.517   -11319391.15549  -8805061.58749  23478495.4464   23478502.5554
  20054592.954   -29584445.36549 -22961411.31449  20054593.0644   20054598.7774
 96 12  9 19 47 59.9990000  0  7 29 25 16 22 15 18 14
  20638382.697   -20110289.09549 -15665596.53849  20638382.6654   20638387.6314
  22957279.379     5162653.08849   4072599.25749  22957279.8764   22957285.4334
  22668475.008   -16461709.61149 -12528130.92049  22668474.9914   22668481.5774
  21188470.012   -25441737.33049 -19618001.79049  21188469.6584   21188476.2204
  23118968.921     3983293.27749   3109584.51049  23118968.8314   23118975.9834
  23463266.524   -11399419.53049  -8867421.29549  23463266.0494   23463273.1034
  20049971.430   -29608731.86549 -22980335.86749  20049971.5544   20049977.5084
 96 12  9 19 48 29.9990000  0  7 29 25 16 22 15 18 14
  20635828.303   -20123711.98949 -15676055.93849  20635828.1334   20635833.1864
  22973417.445     5247458.59249   4138681.44049  22973418.0644   22973423.3914
  22650778.821   -16554704.39649 -12600594.36849  22650778.5724   22650784.6204
  21180153.025   -25485443.96949 -19652058.90549  21180151.8564   21180158.4534
  23137473.712     4080536.87949   3185358.71249  23137473.4904   23137480.3524
  23448060.426   -11479327.83449  -8929687.44349  23448059.4064   23448067.8674
  20045463.566   -29632420.96649 -22998794.91249  20045463.4844   20045469.4784
 96 12  9 19 48 59.9990000  0  7 29 25 16 22 15 18 14
  20633335.232   -20136812.77549 -15686264.33849  20633335.2394   20633340.2434
  22989607.989     5332540.09949   4204978.69049  22989608.5354   22989613.9344
  22633152.770   -16647329.71049 -12672769.92449  22633152.3954   22633158.5874
  21171966.301   -25528465.00549 -19685581.78249  21171965.6034   21171971.8424
  23156029.109     4178046.30649   3261340.03849  23156028.8154   23156036.5234
  23432891.654   -11559040.07549  -8991800.79849  23432890.0284   23432897.9774
  20041083.876   -29655436.30249 -23016728.94049  20041083.7264   20041089.8184
 96 12  9 19 49 29.9990000  0  7 29 25 16 22 15 18 14
  20630902.261   -20149598.70749 -15696227.39949  20630902.0944   20630907.3154
  23005849.164     5417887.61449   4271483.22049  23005849.5824   23005855.6294
  22615596.266   -16739588.82149 -12744660.09849  22615595.1094   22615602.8514
  21163911.077   -25570794.89449 -19718566.10349  21163910.2104   21163917.0234
  23174633.715     4275812.76649   3337521.64349  23174634.5044   23174641.2944
  23417762.618   -11638542.92749  -9053751.02049  23417761.8414   23417768.8834
  20036832.160   -29677779.50649 -23034139.23849  20036831.8904   20036837.9464
 96 12  9 19 49 59.9990000  0  7 29 25 16 22 15 18 14
  20628521.425   -20162110.30149 -15705976.69749  20628521.6524   20628526.6794
  23022133.439     5503461.23849   4338163.92849  23022133.7084   23022140.1694
  22598099.692   -16831533.01449 -12816304.90349  22598098.8924   22598105.3204
  21155981.202   -25612466.39949 -19751037.40749  21155980.3704   21155986.8484
  23193278.787     4373792.20049   3413869.19449  23193278.8974   23193285.4724
  23402664.862   -11717882.50049  -9115574.00549  23402663.8734   23402671.6654
  20032701.018   -29699488.64849 -23051055.45549  20032700.5104   20032707.1744
 96 12  9 19 50 29.9990000  0  7 29 25 16 22 15 18 14
  20626191.437   -20174354.76249 -15715517.84149  20626191.4854   20626196.5844
  23038458.266     5589248.40049   4405011.02449  23038458.7574   23038464.5404
  22580661.720   -16923169.38849 -12887709.85949  22580661.1644   22580667.5904
  21148177.857   -25653472.90049 -19782990.52349  21148177.1024   21148183.1774
  23211961.056     4471967.09849   3490369.04749  23211961.6034   23211967.9254
  23387593.616   -11797082.05649  -9177287.84349  23387593.3064   23387599.7524
  20028685.279   -29720590.53849 -23067498.49349  20028685.0904   20028691.7844
 96 12  9 19 50 59.9990000  0  7 29 25 16 22 15 18 14
  20623910.101   -20186343.80849 -15724859.95849  20623910.3944   20623915.2944
  23054819.639     5675226.90649   4472007.21849  23054819.9004   23054825.9634
  22563276.145   -17014531.45049 -12958901.05849  22563276.4394   22563282.4184
  21140499.962   -25693820.81749 -19814430.45749  21140499.5374   21140505.3994
  23230674.944     4570308.58849   3566998.72749  23230674.5594   23230680.8364
  23372545.329   -11876160.61649  -9238907.42749  23372545.0144   23372551.7874
  20024777.562   -29741125.89449 -23083500.07449  20024777.7154   20024783.4974
 96 12  9 19 51 29.9990000  0  7 29 25 16 22 15 18 14
  20621676.435   -20198082.09849 -15734006.67549  20621676.2814   20621681.3064
  23071217.272     5761396.09149   4539151.98849  23071217.6184   23071222.9264
  22545938.007   -17105644.73649 -13029898.41349  22545938.2124   22545944.0164
  21132947.021   -25733512.74749 -19845359.22549  21132946.6554   21132952.3714
  23249417.922     4668803.85149   3643748.22949  23249417.3434   23249424.3234
  23357516.801   -11955136.56349  -9300447.06049  23357516.9874   23357523.1424
  20020976.072   -29761103.11349 -23099066.74549  20020975.5074   20020981.8754
 96 12  9 19 51 59.9990000  0  7 29 25 16 22 15 18 14
  20619499.262   -20209522.90849 -15742921.59249  20619499.0684   20619504.2704
  23087662.605     5847816.82149   4606492.78249  23087662.3744   23087668.1014
  22528658.379   -17196450.00649 -13100655.76449  22528657.9954   22528663.9114
  21125529.318   -25772493.23449 -19875733.63749  21125528.7414   21125534.5214
  23268202.095     4767514.96249   3720665.92249  23268202.8784   23268208.9244
  23342514.879   -12033972.18449  -9361877.34149  23342515.5534   23342520.4394
  20017295.106   -29780446.23449 -23114139.31749  20017294.9254   20017301.1154
 96 12  9 19 52 29.9990000  0  7 29 25 16 22 15 18 14
  20617373.402   -20220693.98149 -15751626.32449  20617373.0904   20617378.3114
  23104150.014     5934458.63049   4674005.83549  23104150.0604   23104155.8654
  22511433.625   -17286965.99249 -13171187.68349  22511432.4304   22511439.4354
  21118241.489   -25810791.44849 -19905576.40249  21118240.6964   21118246.4054
  23287022.422     4866416.09649   3797731.67749  23287022.0504   23287029.0504
  23327537.174   -12112680.01949  -9423208.07249  23327537.2924   23327542.7804
  20013733.618   -29799161.91549 -23128722.97049  20013733.2414   20013739.6584
 96 12  9 19 52 59.9990000  0  7 29 25 16 22 15 18 14
  20615304.699   -20231564.87649 -15760097.15949  20615304.7024   20615309.6344
  23120680.917     6021328.99249   4741697.00349  23120681.1854   23120686.9974
  22494267.501   -17377173.21049 -13241478.99349  22494266.5234   22494273.3724
  21111083.478   -25848407.43849 -19934887.56249  21111082.7924   21111088.6614
  23305881.932     4965523.23049   3874957.94149  23305881.9344   23305888.0544
  23312589.754   -12191229.59449  -9484415.46149  23312589.2804   23312595.4794
  20010296.861   -29817221.49049 -23142795.36949  20010296.7504   20010303.2354
 96 12  9 19 53 29.9990000  0  7 29 25 16 22 15 18 14
  20613305.058   -20242073.06249 -15768285.36949  20613305.2064   20613309.8784
  23137265.492     6108481.75549   4809608.21749  23137264.8654   23137271.1274
  22477174.629   -17466996.98149 -13311471.53249  22477174.6664   22477180.7124
  21104065.539   -25885286.63549 -19963624.60249  21104064.7704   21104071.0824
  23324791.871     5064895.64949   3952390.94449  23324792.1524   23324797.7324
  23297684.061   -12269559.30949  -9545451.54749  23297683.8994   23297690.7404
  20006999.343   -29834550.46849 -23156298.48249  20006999.6024   20007005.6654
 96 12  9 19 53 59.9990000  0  7 29 25 16 22 15 18 14
  20611359.795   -20252295.20349 -15776250.68049  20611360.0324   20611364.3744
  23153886.247     6195824.82749   4877667.72849  23153886.5284   23153892.1254
  22460142.437   -17556501.53949 -13381215.32249  22460142.2574   22460148.4654
  21097173.050   -25921507.21549 -19991848.43149  21097172.6014   21097178.2724
  23343735.603     5164445.35049   4029962.06949  23343735.5884   23343741.1204
  23282806.807   -12347739.46549  -9606371.09649  23282807.1484   23282812.7094
  20003823.822   -29851238.34149 -23169302.02349  20003823.6614   20003829.7204
 96 12  9 19 54 29.9990000  0  7 29 25 16 22 15 18 14
  20609471.717   -20262217.24349 -15783982.14049  20609471.8804   20609476.8524
  23170541.190     6283347.27649   4945867.00849  23170541.0784   23170546.7184
  22443175.518   -17645662.85449 -13450691.65349  22443175.6534   22443181.4014
  21090405.387   -25957071.77349 -20019561.07349  21090404.1574   21090410.8154
  23362712.137     5264166.90149   4107667.12449  23362711.9714   23362718.2564
  23267962.411   -12425747.69149  -9667156.72049  23267961.6654   23267968.2604
  20000766.819   -29867302.65149 -23181819.67249  20000766.4974   20000772.8374
 96 12  9 19 54 59.9990000  0  7 29 25 16 22 15 18 14
  20607636.013   -20271864.02549 -15791499.10649  20607636.0404   20607641.0924
  23187225.095     6371021.64649   5014184.67549  23187225.5484   23187230.5674
  22426273.678   -17734483.66849 -13519902.66249  22426273.4744   22426280.2114
  21083760.743   -25991989.69649 -20046769.83949  21083759.5874   21083765.5634
  23381716.707     5364035.98449   4185487.12049  23381715.8454   23381722.3134
  23253146.610   -12503605.51549  -9727825.09949  23253145.9524   23253151.5214
  19997822.122   -29882776.88149 -23193877.51649  19997822.0864   19997828.1074
 96 12  9 19 55 29.9990000  0  7 29 25 16 22 15 18 14
  20605851.329   -20281242.39449 -15798806.93149  20605851.4364   20605856.3074
  23203940.627     6458862.75349   5082632.24749  23203940.1174   23203946.6864
  22409440.571   -17822941.89849 -13588831.12949  22409440.3374   22409446.9734
  21077243.060   -26026240.13549 -20073458.49749  21077241.8294   21077247.9304
  23400751.010     5464062.53349   4263429.82049  23400750.0884   23400757.7494
  23238362.751   -12581293.70549  -9788361.30549  23238361.6874   23238368.7444
  19994993.250   -29897643.03849 -23205461.53849  19994993.5144   19994999.3984
 96 12  9 19 55 59.9990000  0  7 29 25 16 22 15 18 14
  20604111.732   -20290384.18749 -15805930.40549  20604112.0104   20604116.5674
  23220682.692     6546842.15749   5151187.58849  23220683.2854   23220688.9084
  22392669.817   -17911072.48949 -13657504.30349  22392669.1684   22392676.1184
  21070846.992   -26059851.37849 -20099649.06649  21070846.0874   21070852.1324
  23419809.341     5564215.23049   4341470.82149  23419809.6034   23419815.1864
  23223607.195   -12658834.07249  -9848782.36149  23223607.0414   23223613.0044
  19992274.697   -29911929.55649 -23216593.89949  19992275.0564   19992280.8294
 96 12  9 19 56 29.9990000  0  7 29 25 16 22 15 18 14
  20602414.910   -20299301.66949 -15812879.09649  20602415.3054   20602419.7324
  23237450.134     6634955.66849   5219847.43049  23237449.9584   23237456.4174
  22375956.829   -17998899.68949 -13725941.06249  22375957.1174   22375962.9664
  21064571.989   -26092827.00649 -20125344.35249  21064571.1314   21064576.8044
  23438889.935     5664484.88049   4419602.95149  23438889.4444   23438896.9374
  23208877.454   -12736240.15549  -9909098.74649  23208877.3994   23208884.3324
  19989667.948   -29925628.52949 -23227268.43449  19989668.0914   19989673.9114
 96 12  9 19 56 59.9990000  0  7 29 25 16 22 15 18 14
  20600759.236   -20308002.83949 -15819659.23449  20600759.4314   20600763.9364
  23254243.052     6723203.43949   5288611.89149  23254243.4324   23254249.6354
  22359296.922   -18086448.74049 -13794161.09149  22359296.3614   22359302.4854
  21058415.997   -26125176.84549 -20150552.01749  21058415.0734   21058421.0794
  23457990.459     5764858.92749   4497816.44549  23457990.6614   23457997.7364
  23194168.467   -12813535.19849  -9969328.60149  23194166.9124   23194175.5414
  19987173.887   -29938735.00949 -23237481.27949  19987173.7884   19987180.1294
 96 12  9 19 57 29.9990000  0  7 29 25 16 22 15 18 14
  20599147.815   -20316470.53149 -15826257.43649  20599147.7174   20599152.6904
  23271064.823     6811601.22849   5357493.24249  23271064.9674   23271070.9414
  22342687.927   -18173729.45949 -13862172.02849  22342687.2594   22342693.7024
  21052379.268   -26156900.23449 -20175271.52549  21052378.3024   21052384.1764
  23477112.350     5865344.59449   4576116.93049  23477112.3234   23477119.1544
  23179478.618   -12890729.26049 -10029479.75349  23179478.1614   23179485.2354
  19984794.963   -29951236.19649 -23247222.46249  19984794.9344   19984801.1784
 96 12  9 19 57 59.9990000  0  7 29 25 16 22 15 18 14
  20597586.626   -20324674.28049 -15832649.97149  20597586.5184   20597591.5754
  23287919.051     6900170.18449   5426507.95349  23287919.6294   23287925.9634
  22326132.081   -18260731.66249 -13929965.94449  22326131.4914   22326138.2634
  21046466.138   -26187973.89649 -20199484.76049  21046465.0154   21046471.3574
  23496258.610     5965958.10449   4654516.99249  23496258.0594   23496264.9524
  23164807.531   -12967826.81149 -10089555.72249  23164807.3084   23164813.2904
  19982534.251   -29963116.63549 -23256479.95749  19982534.5294   19982540.4194
 96 12  9 19 58 29.9990000  0  7 29 25 16 22 15 18 14
  20596086.302   -20332558.33749 -15838793.39149  20596086.3864   20596091.5004
  23304814.996     6988959.25549   5495694.19749  23304814.7324   23304821.2834
  22309641.977   -18347387.83449 -13997490.19049  22309640.9274   22309648.9634
  21040683.676   -26218360.27149 -20223162.44949  21040682.5294   21040689.2724
  23515437.450     6066743.02949   4733050.62949  23515436.9224   23515444.4904
  23150163.665   -13044781.28249 -10149520.20249  23150164.2454   23150169.3014
  19980399.467   -29974335.41149 -23265221.86049  19980399.3774   19980405.5884
 96 12  9 19 58 59.9990000  0  7 29 25 16 22 15 18 14
  20594626.821   -20340227.79949 -15844769.59349  20594626.9664   20594631.8284
  23321731.999     7077858.08449   5564965.97449  23321732.5904   23321738.0224
  22293199.679   -18433792.23149 -14064818.27349  22293199.6194   22293205.5474
  21035011.070   -26248169.95549 -20246390.76949  21035010.1554   21035016.4924
  23534627.830     6167588.92349   4811631.78549  23534626.7574   23534634.7394
  23135527.855   -13121693.29549 -10209451.57049  23135527.3884   23135534.1784
  19978369.392   -29985003.53549 -23273534.68849  19978369.5134   19978375.4064
 96 12  9 19 59 29.9990000  0  7 29 25 16 22 15 18 14
  20593220.430   -20347618.65249 -15850528.70449  20593220.3104   20593225.5694
  23338682.509     7166932.75749   5634374.76149  23338682.7064   23338688.4884
  22276820.544   -18519864.93349 -14131887.87849  22276819.2594   22276826.2384
  21029466.555   -26277306.79349 -20269094.78249  21029465.4644   21029471.7894
  23553843.659     6268569.34449   4890317.78049  23553842.0144   23553852.6394
  23120915.832   -13198480.22949 -10269285.46649  23120915.1734   23120921.1124
  19976457.982   -29995048.17149 -23281361.68349  19976457.6764   19976463.9924
 96 12  9 19 59 59.9990000  0  8 29 25 16 19 22 15 18 14
  20591862.038   -20354756.65249 -15856090.77849  20591861.9814   20591867.4454
  23355659.119     7256145.27949   5703890.97349  23355658.7844   23355664.7734
  22260502.321   -18605617.39549 -14198707.96249  22260501.8854   22260508.1304
  24488370.652    -3174204.58149  -2201196.25949  24488370.2044   24488378.5564
  21024047.403   -26305784.68849 -20291285.34849  21024046.2664   21024052.9484
  23573080.010     6369657.85249   4969087.97749  23573079.0074   23573088.0494
  23106328.263   -13275138.76249 -10329019.34549  23106328.2324   23106334.5484
  19974661.623   -30004487.55549 -23288717.04349  19974661.3204   19974667.7554
 96 12  9 20  0 29.9990000  0  8 29 25 16 19 22 15 18 14
  20590548.556   -20361658.76249 -15861469.03949  20590548.4404   20590553.6834
  23372658.503     7345478.03549   5773500.87649  23372657.9464   23372664.0674
  22244244.906   -18691050.65049 -14265279.31449  22244244.1104   22244250.5664
  24470613.356    -3267518.99249  -2273908.69249  24470612.1784   24470620.9704
  21018753.393   -26333605.21849 -20312963.67949  21018752.5604   21018758.9834
  23592334.193     6470839.33449   5047930.62749  23592333.5974   23592341.8004
  23091766.313   -13351662.89849 -10388648.52249  23091765.9334   23091771.5764
  19972978.185   -30013333.53149 -23295610.00549  19972978.0154   19972984.1704
 96 12  9 20  0 59.9990000  0  8 29 25 16 19 22 15 18 14
  20589271.444   -20368369.97049 -15866698.54949  20589271.6244   20589276.4804
  23389672.550     7434887.43149   5843170.49549  23389672.3074   23389677.7414
  22228036.964   -18776223.53449 -14331647.76149  22228036.6104   22228043.6864
  24452887.806    -3360666.74049  -2346491.28349  24452888.2084   24452895.0434
  21013582.149   -26360781.10449 -20334139.69249  21013581.7704   21013587.6964
  23611598.047     6572071.30649   5126812.61149  23611597.4814   23611605.2134
  23077219.767   -13428104.97149 -10448213.70349  23077218.8944   23077226.1324
  19971400.743   -30021623.17649 -23302069.46749  19971400.8674   19971406.8024
 96 12  9 20  1 29.9990000  0  8 29 25 16 19 22 15 18 14
  20588039.829   -20374842.24449 -15871741.87549  20588039.9574   20588044.8474
  23406710.399     7524423.26149   5912938.62949  23406710.2924   23406716.4534
  22211887.932   -18861087.32649 -14397775.36849  22211887.1214   22211894.2784
  24435202.736    -3453602.16049  -2418908.43449  24435202.8214   24435210.4014
  21008540.925   -26387273.15249 -20354782.83949  21008540.1304   21008545.8104
  23630879.614     6673396.44349   5205767.19749  23630878.7834   23630887.5624
  23062696.753   -13504422.90449 -10507682.19649  23062696.6774   23062702.4254
  19969937.920   -30029310.92249 -23308059.92549  19969937.8804   19969943.6164
 96 12  9 20  1 59.9990000  0  8 29 25 16 19 22 15 18 14
  20586860.256   -20381041.31549 -15876572.31749  20586860.5434   20586865.3164
  23423779.316     7614122.03749   5982833.74349  23423778.9154   23423785.9024
  22195803.464   -18945612.01249 -14463638.74649  22195803.5854   22195809.1174
  24417561.506    -3546308.20849  -2491146.88149  24417561.7144   24417569.5734
  21003629.640   -26413082.16749 -20374893.74749  21003628.3614   21003634.3024
  23650181.644     6774828.78349   5284805.32849  23650180.7414   23650188.7804
  23048199.495   -13580606.66449 -10567046.16649  23048200.1234   23048204.9744
  19968593.697   -30036374.65949 -23313564.13049  19968593.3404   19968599.1324
 96 12  9 20  2 29.9990000  0  8 29 25 16 19 22 15 18 14
  20585729.852   -20386981.97549 -15881201.41149  20585730.2654   20585734.9614
  23440879.019     7703981.85949   6052854.34049  23440878.7474   23440884.7194
  22179781.527   -19029808.30249 -14529246.21549  22179781.4174   22179788.0984
  24399960.878    -3638800.24749  -2563218.59349  24399959.4604   24399968.4184
  20998842.936   -26438235.68149 -20394493.88949  20998842.0244   20998847.4454
  23669500.262     6876348.62649   5363911.61849  23669499.3674   23669508.3124
  23033722.192   -13656684.99049 -10626327.95549  23033721.7064   23033728.0474
  19967365.969   -30042825.74749 -23318590.95749  19967365.8404   19967372.0064
 96 12  9 20  2 59.9990000  0  8 29 25 16 19 22 15 18 14
  20584656.585   -20392622.46949 -15885596.60049  20584657.0384   20584661.4034
  23458014.278     7794027.64649   6123019.85549  23458014.8844   23458020.2774
  22163827.359   -19113647.91749 -14594575.75549  22163826.7624   22163832.6104
  24382406.837    -3731046.18049  -2635098.55849  24382405.3824   24382414.2204
  20994184.321   -26462716.58749 -20413569.91149  20994183.3694   20994189.0304
  23688840.573     6977981.95849   5443106.33249  23688841.2864   23688847.4284
  23019267.832   -13732641.75849 -10685514.99749  23019267.2734   23019274.3384
  19966260.393   -30048635.63549 -23323118.13649  19966260.2364   19966266.6974
 96 12  9 20  3 29.9990000  0  8 29 25 16 19 22 15 18 14
  20583642.940   -20397949.94849 -15889747.87949  20583642.8414   20583647.3464
  23475185.223     7884261.42949   6193331.84949  23475185.1084   23475191.6714
  22147943.967   -19197115.30649 -14659615.26849  22147943.3984   22147950.1824
  24364900.076    -3823042.66149  -2706784.14349  24364899.4214   24364908.7084
  20989651.859   -26486534.78849 -20432129.54349  20989650.7774   20989657.1944
  23708203.470     7079734.27649   5522393.79349  23708203.1724   23708210.6894
  23004840.181   -13808458.35349 -10744592.87549  23004839.3114   23004845.6894
  19965280.076   -30053786.79849 -23327132.02849  19965279.7644   19965286.1844
 96 12  9 20  3 59.9990000  0  8 29 25 16 19 22 15 18 14
  20582675.896   -20403031.64749 -15893707.63649  20582675.8304   20582680.4874
  23492377.069     7974604.70349   6263729.17549  23492377.5154   23492383.3104
  22132118.790   -19280276.89849 -14724416.48049  22132117.9844   22132125.1004
  24347428.162    -3914858.58749  -2778329.03549  24347428.0864   24347436.3524
  20985235.849   -26509740.45849 -20450211.88149  20985234.9544   20985241.2694
  23727575.628     7181535.96049   5601719.69649  23727574.3524   23727583.2484
  22990427.842   -13884195.44949 -10803608.75149  22990427.8084   22990435.1644
  19964411.776   -30058349.33049 -23330687.24549  19964411.5064   19964417.8554
 96 12  9 20  4 29.9990000  0  8 29 25 16 19 22 15 18 14
  20581747.405   -20407910.78449 -15897509.56149  20581747.2534   20581752.1554
  23509578.696     8064999.00249   6334166.23949  23509578.2284   23509585.4394
  22116343.946   -19363174.05549 -14789011.66449  22116342.9644   22116349.6844
  24329985.128    -4006523.47949  -2849756.23549  24329984.9324   24329992.7974
  20980930.414   -26532365.32449 -20467841.65049  20980929.4854   20980935.9674
  23746949.617     7283347.40649   5681053.21649  23746949.3094   23746957.2484
  22976025.919   -13959878.36549 -10862582.42549  22976025.4194   22976031.6904
  19963646.511   -30062370.40149 -23333820.55249  19963646.7054   19963652.9084
 96 12  9 20  4 59.9990000  0  8 29 25 16 19 22 15 18 14
  20580852.081   -20412615.57649 -15901175.63049  20580852.2524   20580856.4804
  23526782.880     8155407.46949   6404614.37249  23526783.4374   23526788.9544
  22100611.762   -19445846.81849 -14853431.98249  22100611.3554   22100618.4854
  24312566.084    -4098061.30149  -2921084.39649  24312566.3914   24312574.4454
  20976731.734   -26554429.71849 -20485034.67749  20976730.7714   20976736.7904
  23766318.757     7385132.51649   5760366.21449  23766318.4804   23766326.1114
  22961629.625   -14035530.67949 -10921532.26749  22961628.5154   22961635.4084
  19962975.863   -30065895.35449 -23336567.27349  19962976.2494   19962982.0024
 96 12  9 20  5 29.9990000  0  9  4 29 25 16 19 22 15 18 14
  24602650.800    -5387309.65649  -4184503.05049  24602650.9994   24602657.2854
  20580020.173   -20416987.52549 -15904582.34849  20580020.4784   20580024.6284
  23544023.812     8246008.90249   6475212.85849  23544024.1114   23544030.6554
  22084956.506   -19528115.54949 -14917537.46549  22084955.7434   22084963.7024
  24295203.892    -4189299.24649  -2992178.86549  24295203.7604   24295212.6104
  20972673.932   -26575753.63349 -20501650.70749  20972672.5114   20972678.8744
  23785715.450     7487061.99749   5839791.71549  23785714.6024   23785723.8304
  22947276.760   -14110955.29449 -10980304.66449  22947277.3004   22947282.2804
  19962434.905   -30068739.01049 -23338783.11149  19962434.8544   19962440.7894
 96 12  9 20  5 59.9990000  0  9  4 29 25 16 19 22 15 18 14
  24595217.555    -5426371.94549  -4214941.18349  24595217.5254   24595225.1384
  20579241.638   -20421078.88849 -15907770.42849  20579241.4984   20579246.0864
  23561292.481     8336755.63849   6545924.56149  23561292.2474   23561298.3044
  22069372.815   -19610007.68449 -14981349.49949  22069372.2324   22069379.6954
  24277893.587    -4280265.32949  -3063061.46149  24277893.4744   24277902.2364
  20968751.877   -26596363.68249 -20517710.47949  20968751.7954   20968757.2274
  23805131.060     7589090.87649   5919294.65349  23805130.7514   23805138.5874
  22932958.792   -14186198.28449 -11038935.53749  22932959.4834   22932963.7354
  19962015.666   -30070942.43849 -23340500.07449  19962015.8944   19962021.6154
 96 12  9 20  6 29.9990000  0  9  4 29 25 16 19 22 15 18 14
  24587890.894    -5464873.91949  -4244942.70749  24587890.3284   24587897.3004
  20578508.547   -20424930.93549 -15910772.02749  20578508.3254   20578513.3084
  23578579.959     8427601.51149   6616713.52449  23578579.8394   23578586.2984
  22053851.883   -19691570.56949 -15044904.97849  22053851.6464   22053858.7564
  24260625.504    -4371010.02049  -3133771.55849  24260624.9494   24260634.3264
  20964957.284   -26616305.30149 -20533249.38949  20964956.3634   20964962.8284
  23824555.578     7691166.28249   5998833.84849  23824556.0134   23824563.1374
  22918664.168   -14261317.13449 -11097469.66249  22918664.0594   22918670.2064
  19961712.578   -30072535.49949 -23341741.42749  19961712.5644   19961718.2304
 96 12  9 20  6 59.9990000  0  9  4 29 25 16 19 22 15 18 14
  24580676.079    -5502787.57649  -4274485.78749  24580676.2124   24580683.6814
  20577827.863   -20428507.55649 -15913559.00249  20577827.7364   20577832.6374
  23595894.019     8518587.36649   6687611.54549  23595893.9034   23595900.6074
  22038401.918   -19772760.74549 -15108170.03449  22038401.2124   22038409.0564
  24243403.854    -4461509.89349  -3204290.83449  24243403.3414   24243411.9514
  20961298.528   -26635532.06849 -20548231.28249  20961297.3964   20961303.9114
  23843995.533     7793322.81749   6078436.27949  23843994.8564   23844003.3264
  22904399.021   -14336281.15149 -11155883.14549  22904399.1844   22904404.6854
  19961535.891   -30073464.31249 -23342465.17749  19961535.8064   19961541.8014
 96 12  9 20  7 29.9990000  0  9  4 29 25 16 19 22 15 18 14
  24573565.656    -5540153.05249  -4303601.70849  24573566.9044   24573570.9604
  20577193.380   -20431841.67249 -15916157.01849  20577193.2564   20577198.0494
  23613228.623     8609680.58049   6758593.22149  23613228.8324   23613234.8194
  22023019.700   -19853594.63049 -15171157.46749  22023019.2214   22023026.0104
  24226221.200    -4551804.27249  -3274649.97249  24226220.6164   24226229.2574
  20957770.235   -26654072.56549 -20562678.41549  20957769.6184   20957775.8644
  23863445.171     7895531.12249   6158079.04749  23863444.4914   23863452.1894
  22890155.612   -14411130.59449 -11214207.34149  22890155.0254   22890161.2074
  19961484.522   -30073734.01049 -23342675.33249  19961484.4224   19961490.6254
 96 12  9 20  7 59.9990000  0  9  4 29 25 16 19 22 15 18 14
  24566586.830    -5576827.32549  -4332179.05949  24566586.4464   24566593.0084
  20576635.010   -20434775.66349 -15918443.25149  20576635.1324   20576639.9474
  23630610.217     8701021.01949   6829767.53449  23630610.3494   23630617.0054
  22007732.469   -19933929.58249 -15233756.12449  22007731.7844   22007738.4664
  24209105.319    -4641748.38149  -3344736.17549  24209105.2854   24209113.3874
  20954399.597   -26671785.53549 -20576480.71649  20954399.0214   20954405.3534
  23882931.426     7997932.65149   6237872.36149  23882930.8514   23882939.4264
  22875956.489   -14485747.05649 -11272350.00149  22875955.5364   22875963.1514
  19961584.773   -30073207.60649 -23342265.14849  19961585.0624   19961590.4734
 96 12  9 20  8 29.9990000  0  9  4 29 25 16 19 22 15 18 14
  24559704.022    -5612995.57449  -4360362.09449  24559703.7214   24559710.9944
  20576118.486   -20437490.06049 -15920558.37849  20576118.7694   20576123.5024
  23648006.693     8792440.44049   6901003.40049  23648006.8564   23648012.5074
  21992502.770   -20013961.95949 -15296119.00849  21992502.3574   21992509.2664
  24192018.724    -4731539.01049  -3414702.76949  24192018.1344   24192025.3144
  20951147.330   -26688876.06749 -20589798.00249  20951146.2434   20951152.6524
  23902418.427     8100337.90249   6317668.58049  23902417.3314   23902425.8814
  22861767.997   -14560307.27249 -11330448.81149  22861767.0784   22861774.6324
  19961798.299   -30072086.26949 -23341391.38849  19961798.4844   19961804.0454
 96 12  9 20  8 59.9990000  0  9  4 29 25 16 19 22 15 18 14
  24552917.799    -5648658.11149  -4388151.04749  24552916.8994   24552924.8594
  20575639.295   -20440008.50349 -15922520.80749  20575639.1314   20575644.1154
  23665417.365     8883934.40449   6972297.35549  23665416.7034   23665423.8164
  21977330.595   -20093693.15249 -15358247.21249  21977330.2814   21977336.8404
  24174964.678    -4821158.42149  -3484535.93849  24174964.8604   24174972.5984
  20948011.181   -26705356.40249 -20602639.82649  20948010.8944   20948016.8284
  23921904.856     8202739.94849   6397462.28849  23921904.3804   23921913.4914
  22847590.193   -14634811.45249 -11388503.96149  22847589.3834   22847595.7104
  19962120.789   -30070391.45449 -23340070.75649  19962120.7914   19962126.8124
 96 12  9 20  9 29.9990000  0  9  4 29 25 16 19 22 15 18 14
  24546240.075    -5683749.16949  -4415494.70449  24546240.4014   24546244.7584
  20575209.370   -20442267.39449 -15924280.98049  20575209.2894   20575214.4354
  23682853.188     8975560.84549   7043694.53549  23682853.1724   23682859.3194
  21962229.000   -20173053.38949 -15420086.34949  21962228.8054   21962234.6954
  24157958.698    -4910524.72649  -3554171.89749  24157958.1744   24157965.0844
  20945002.963   -26721165.37649 -20614958.50349  20945002.2674   20945008.2274
  23941402.252     8305198.13449   6477299.73749  23941402.4624   23941409.5634
  22833435.438   -14709195.37949 -11446465.42949  22833435.3124   22833440.8904
  19962561.901   -30068073.04049 -23338264.20549  19962561.4864   19962567.8444
 96 12  9 20  9 59.9990000  0  9  4 29 25 16 19 22 15 18 14
  24539676.767    -5718239.31549  -4442370.14649  24539676.8354   24539683.5394
  20574832.575   -20444247.28849 -15925823.75249  20574832.6004   20574837.8924
  23700318.732     9067343.10649   7115213.13449  23700317.9414   23700324.6954
  21947201.584   -20252023.41349 -15481621.41949  21947200.8094   21947207.8114
  24141006.368    -4999609.59249  -3623588.53549  24141005.6604   24141014.4244
  20942125.653   -26736285.67949 -20626740.55249  20942124.7094   20942130.8434
  23960912.743     8407724.86049   6557190.61349  23960912.8054   23960920.3984
  22819309.431   -14783428.39949 -11504309.29749  22819307.9824   22819315.3104
  19963120.765   -30065135.80149 -23335975.45149  19963120.7194   19963126.7314
 96 12  9 20 10 29.9990000  0  9  4 29 25 16 19 22 15 18 14
  24533237.891    -5752076.29049  -4468736.60949  24533236.5744   24533244.4864
  20574519.837   -20445890.98149 -15927104.55549  20574519.9764   20574525.0564
  23717825.575     9159342.34849   7186900.82249  23717825.6714   23717832.4544
  21932259.839   -20330542.03349 -15542804.73349  21932259.0634   21932266.2914
  24124121.145    -5088342.53049  -3692730.96649  24124120.1494   24124129.0414
  20939393.587   -26750642.13949 -20637927.40449  20939392.9704   20939398.7944
  23980446.914     8510376.65649   6637178.95149  23980446.7424   23980454.7024
  22805227.319   -14857430.59649 -11561973.31049  22805226.9404   22805232.9064
  19963809.085   -30061518.57649 -23333156.84249  19963808.9834   19963815.1774
 96 12  9 20 10 59.9990000  0  9  4 29 25 16 19 22 15 18 14
  24526896.576    -5785399.08349  -4494702.39349  24526897.1324   24526902.4774
  20574249.887   -20447309.65649 -15928210.02749  20574250.1934   20574254.6144
  23735344.646     9251405.46849   7258638.26449  23735344.9134   23735350.9544
  21917381.161   -20408730.02149 -15603730.41749  21917380.8134   21917387.7234
  24107278.595    -5176848.30149  -3761696.38349  24107276.9394   24107287.5274
  20936786.097   -26764344.91849 -20648604.89149  20936785.5554   20936791.2044
  23999980.116     8613023.70849   6717163.58249  23999979.3904   23999986.6204
  22791164.809   -14931330.13349 -11619557.33249  22791164.5454   22791171.0954
  19964604.612   -30057338.46449 -23329899.62549  19964604.7224   19964610.6254
 96 12  9 20 11 29.9990000  0  9  4 29 25 16 19 22 15 18 14
  24520656.989    -5818188.53749  -4520252.57149  24520657.8224   24520664.1114
  20574031.199   -20448459.00349 -15929105.62249  20574031.1054   20574035.8324
  23752880.660     9343557.26649   7330444.81549  23752880.4034   23752887.1634
  21902569.921   -20486563.35249 -15664379.74549  21902569.3574   21902576.7414
  24090479.845    -5265124.55449  -3830482.97949  24090478.9984   24090488.4184
  20934306.351   -26777376.15249 -20658759.09149  20934305.4024   20934311.8424
  24019515.726     8715684.50849   6797158.91349  24019515.0664   24019522.7354
  22777126.378   -15005101.71449 -11677041.68149  22777127.0934   22777131.9104
  19965513.197   -30052563.79149 -23326179.10649  19965512.8534   19965518.9094
 96 12  9 20 11 59.9990000  0  9  4 29 25 16 19 22 15 18 14
  24514531.020    -5850380.43749  -4545337.15149  24514530.4844   24514537.4964
  20573875.757   -20449275.81349 -15929742.10549  20573875.7524   20573880.7194
  23770444.316     9435854.62749   7402364.79949  23770444.1944   23770450.1744
  21887837.555   -20563982.65249 -15724706.45749  21887837.7354   21887843.5694
  24073734.951    -5353118.96149  -3899049.96649  24073735.4404   24073743.0924
  20931967.535   -26789666.21449 -20668335.76749  20931967.1114   20931972.7184
  24039065.251     8818418.89749   6877211.59749  24039064.5624   24039073.6004
  22763125.650   -15078676.55449 -11734372.72649  22763125.2564   22763130.9404
  19966548.678   -30047122.21649 -23321938.92749  19966548.4564   19966554.8614
 96 12  9 20 12 29.9990000  0  9  4 29 25 16 19 22 15 18 14
  24508516.154    -5881987.69049  -4569966.15649  24508516.4974   24508521.7764
  20573780.470   -20449776.52649 -15930132.28449  20573780.6284   20573785.5464
  23788031.289     9528275.35049   7474380.88949  23788031.4294   23788037.4124
  21873182.290   -20640997.39249 -15784717.94549  21873181.6314   21873187.5394
  24057039.352    -5440855.44749  -3967416.01349  24057039.3984   24057047.4914
  20929767.748   -26801226.79349 -20677344.00149  20929767.6234   20929773.0394
  24058626.355     8921213.06549   6957310.84449  24058626.7694   24058634.1814
  22749157.398   -15152080.73249 -11791570.74549  22749157.2964   22749162.5544
  19967711.522   -30041011.45249 -23317177.30249  19967711.2614   19967717.6444
 96 12  9 20 12 59.9990000  0  9  4 29 25 16 19 22 15 18 14
  24502600.404    -5913075.03749  -4594190.02249  24502600.7824   24502607.6574
  20573731.567   -20450033.36949 -15930332.42549  20573731.7024   20573736.9214
  23805628.443     9620748.94749   7546438.19149  23805627.9874   23805634.8724
  21858591.638   -20717671.25349 -15844463.79849  21858591.2124   21858597.1614
  24040375.794    -5528423.16249  -4035650.55149  24040375.8544   24040383.9564
  20927690.233   -26812144.71949 -20685851.46749  20927689.1924   20927695.1844
  24078185.493     9023995.63249   7037401.03349  24078185.0194   24078194.1094
  22735207.280   -15225388.61449 -11848693.74249  22735207.2944   22735211.7954
  19968988.100   -30034302.95649 -23311949.91349  19968988.0174   19968994.2684
 96 12  9 20 13 29.9990000  0  9  4 29 25 16 19 22 15 18 14
  24496787.036    -5943623.33149  -4617993.86749  24496786.9974   24496793.2684
  20573727.780   -20450053.38349 -15930348.02549  20573728.1344   20573732.7824
  23823240.488     9713302.01349   7618557.41849  23823239.3554   23823247.4654
  21844070.823   -20793978.93149 -15903924.31949  21844070.5554   21844076.3064
  24023746.765    -5615810.41249  -4103744.47149  24023747.3564   24023754.6044
  20925736.495   -26822410.59349 -20693850.85849  20925735.2054   20925741.4264
  24097744.588     9126778.54249   7117491.51149  24097744.2594   24097752.3704
  22721277.344   -15298590.57749 -11905734.22049  22721277.6474   22721283.0124
  19970380.360   -30026986.63849 -23306248.89149  19970380.1044   19970386.3584
 96 12  9 20 13 59.9990000  0  9  4 29 25 16 19 22 15 18 14
  24491082.143    -5973602.98249  -4641354.61349  24491083.3264   24491087.7234
  20573773.337   -20449814.60049 -15930161.96649  20573773.3434   20573778.3314
  23840873.174     9805964.01649   7690761.51449  23840872.4874   23840880.4694
  21829626.671   -20869883.38949 -15963070.62649  21829626.1944   21829632.7884
  24007159.015    -5702980.39049  -4171669.10749  24007158.4904   24007166.8134
  20923914.896   -26831982.55449 -20701309.52349  20923914.0864   20923920.0194
  24117309.676     9229593.19949   7197606.74549  24117309.3144   24117316.7744
  22707369.937   -15371673.90649 -11962682.23249  22707368.9264   22707374.9934
  19971893.349   -30019035.96049 -23300053.56749  19971893.4564   19971899.6554
 96 12  9 20 14 29.9990000  0  9  4 29 25 16 19 22 15 18 14
  24485475.723    -6003065.99549  -4664312.78249  24485476.4574   24485481.5044
  20573859.442   -20449361.55549 -15929808.94549  20573859.0844   20573864.6134
  23858518.234     9898689.08749   7763014.76449  23858518.2424   23858525.6254
  21815246.697   -20945450.46449 -16021954.04849  21815245.9594   21815252.9374
  23990604.778    -5789972.65149  -4239455.26649  23990604.4604   23990612.5534
  20922212.528   -26840928.48249 -20708280.37049  20922211.1154   20922217.4234
  24136869.576     9332380.50049   7277700.65049  24136868.7634   24136877.0814
  22693473.265   -15444700.08549 -12019585.74549  22693472.6764   22693480.3704
  19973515.196   -30010513.55549 -23293412.74249  19973514.9434   19973521.5074
 96 12  9 20 14 59.9990000  0  9  4 29 25 16 19 22 15 18 14
  24479968.619    -6032005.92449  -4686863.36149  24479968.9104   24479974.9724
  20573989.412   -20448677.92549 -15929276.25649  20573989.0144   20573994.4644
  23876175.560     9991478.90449   7835318.45749  23876175.5984   23876181.4904
  21800934.374   -21020661.71649 -16080560.20049  21800933.6584   21800940.6054
  23974090.028    -5876757.66149  -4307079.93849  23974090.0934   23974098.1684
  20920630.734   -26849239.55249 -20714756.55049  20920629.2004   20920635.8194
  24156424.989     9435145.05449   7357776.82149  24156424.7954   24156433.1694
  22679590.978   -15517651.65149 -12076431.10449  22679591.2664   22679597.4174
  19975247.668   -30001408.86349 -23286318.19149  19975247.5044   19975253.9204
 96 12  9 20 15 29.9990000  0  9  4 29 25 16 19 22 15 18 14
  24474547.171    -6060495.61049  -4709063.09849  24474547.9134   24474554.3674
  20574147.855   -20447844.89649 -15928627.14849  20574148.1144   20574152.9154
  23893828.441    10084246.12649   7907604.57049  23893828.4274   23893835.3074
  21786674.883   -21095596.15249 -16138950.65949  21786674.4794   21786681.1314
  23957604.535    -5963389.95349  -4374585.61149  23957604.0264   23957612.4084
  20919156.324   -26856987.47249 -20720793.90049  20919155.9604   20919161.5674
  24175960.752     9537806.66549   7437772.78249  24175959.7214   24175969.7954
  22665707.140   -15590612.25149 -12133283.48349  22665706.9484   22665712.5944
  19977078.625   -29991786.77149 -23278820.46649  19977078.3364   19977084.9344
 96 12  9 20 15 59.9990000  0  9  4 29 25 16 19 22 15 18 14
  24469227.017    -6088453.19249  -4730848.21549  24469227.7964   24469233.8964
  20574350.832   -20446778.93549 -15927796.53849  20574351.2534   20574356.0104
  23911491.023    10177063.38749   7979929.64649  23911491.6594   23911498.3594
  21772478.800   -21170197.04949 -16197081.21949  21772477.9274   21772485.3064
  23941164.081    -6049786.08349  -4441907.26849  23941164.2174   23941171.3054
  20917804.577   -26864092.02749 -20726329.92449  20917803.9264   20917809.3114
  24195490.491     9640435.76249   7517743.39949  24195489.7914   24195499.6814
  22651837.662   -15663496.82149 -12190076.62549  22651837.0504   22651843.7254
  19979024.544   -29981560.27049 -23270851.77549  19979024.2894   19979030.8454
 96 12  9 20 16 29.9990000  0  9  4 29 25 16 19 22 15 18 14
  24464001.425    -6115914.31249  -4752246.46849  24464002.3244   24464007.3154
  20574590.075   -20445522.57749 -15926817.56049  20574590.3374   20574595.4094
  23929154.268    10269883.43949   8052256.91549  23929155.4904   23929161.5774
  21758338.299   -21244505.57349 -16254983.94149  21758337.6464   21758344.2154
  23924759.101    -6135995.48449  -4509083.43549  23924759.0944   23924765.2094
  20916566.446   -26870598.24049 -20731399.70549  20916565.8134   20916571.3684
  24215005.206     9742986.93649   7597653.30949  24215005.1414   24215013.6594
  22637982.233   -15736307.83549 -12246812.45349  22637981.6914   22637987.9984
  19981078.128   -29970768.22849 -23262442.39749  19981077.9884   19981084.2364
 96 12  9 20 16 59.9990000  0  9  4 29 25 16 19 22 15 18 14
  24458897.153    -6142736.88949  -4773147.17849  24458897.6974   24458903.9484
  20574891.497   -20443938.93349 -15925583.55449  20574891.6594   20574896.8074
  23946845.344    10362849.84149   8124698.21949  23946846.2434   23946852.3724
  21744284.881   -21318357.26549 -16312530.71549  21744284.3354   21744290.7894
  23908412.252    -6221898.89949  -4576021.17949  23908412.3714   23908420.0514
  20915473.169   -26876344.36349 -20735877.21049  20915473.0694   20915478.9844
  24234533.523     9845609.43749   7677618.79349  24234533.7114   24234541.6834
  22624169.564   -15808894.36049 -12303373.33649  22624169.1444   22624174.9184
  19983269.856   -29959250.88749 -23253467.86149  19983269.7704   19983275.9124
 96 12  9 20 17 29.9990000  0  9  4 29 25 16 19 22 15 18 14
  24453910.746    -6168941.01049  -4793565.96349  24453910.8004   24453917.5924
  20575251.093   -20442049.62849 -15924111.37049  20575251.3804   20575256.0324
  23964562.529    10455953.32949   8197246.35149  23964563.7684   23964569.7784
  21730311.937   -21391785.38049 -16369747.41849  21730311.5184   21730318.2224
  23892115.008    -6307540.50049  -4642754.90049  23892115.0234   23892122.6614
  20914522.385   -26881341.32049 -20739770.95549  20914521.9484   20914527.6644
  24254070.542     9948277.01949   7757619.41849  24254069.9574   24254079.6754
  22610395.242   -15881279.37949 -12359777.22549  22610393.9204   22610399.9064
  19985593.893   -29947038.30949 -23243951.58249  19985593.8214   19985599.8914
 96 12  9 20 17 59.9990000  0  9  4 29 25 16 19 22 15 18 14
  24449025.460    -6194614.33649  -4813571.16849  24449026.0114   24449031.6954
  20575653.333   -20439936.12349 -15922464.47949  20575653.5814   20575658.1604
  23982288.099    10549100.93649   8269828.85049  23982288.2774   23982295.0154
  21716404.869   -21464867.81349 -16426694.75049  21716404.6264   21716410.8004
  23875848.137    -6393023.50849  -4709365.02649  23875847.7154   23875855.8144
  20913697.339   -26885676.80649 -20743149.26249  20913696.6494   20913702.9714
  24273597.755    10050892.04049   7837579.10749  24273597.2684   24273606.1614
  22596642.376   -15953549.56549 -12416091.61449  22596641.6014   22596648.0514
  19988028.881   -29934242.41349 -23233980.76249  19988028.4664   19988034.9844
 96 12  9 20 18 29.9990000  0  9  4 29 25 16 19 22 15 18 14
  24444241.032    -6219755.36349  -4833161.59449  24444240.2154   24444247.3544
  20576100.114   -20437588.36549 -15920635.05749  20576100.0024   20576104.5344
  24000021.130    10642287.38249   8342441.61849  24000021.7214   24000027.7474
  21702569.837   -21537571.33449 -16483346.82349  21702569.1744   21702575.8114
  23859612.719    -6478340.81949  -4775846.01049  23859611.5854   23859620.7494
  20912997.324   -26889355.22549 -20746015.56849  20912996.8444   20913003.3204
  24293115.617    10153458.05749   7917500.58549  24293115.0764   24293123.5944
  22582907.999   -16025723.76149 -12472331.22449  22582907.4194   22582914.1334
  19990574.152   -29920866.89249 -23223558.28649  19990574.1834   19990580.4254
 96 12  9 20 18 59.9990000  0  9  4 29 25 16 19 22 15 18 14
  24439554.649    -6244382.17149  -4852351.30649  24439555.4184   24439560.2734
  20576590.007   -20435013.36349 -15918628.56649  20576589.9234   20576594.6774
  24017757.803    10735493.86549   8415069.99149  24017758.0724   24017763.7484
  21688805.206   -21609904.60649 -16539710.39549  21688804.6534   21688811.3304
  23843410.393    -6563483.71849  -4842191.07249  23843409.8114   23843417.2034
  20912418.434   -26892397.75149 -20748386.37249  20912417.7044   20912424.1714
  24312620.255    10255955.01449   7997368.25949  24312620.8334   24312628.2574
  22569182.319   -16097852.37349 -12528535.32649  22569181.8414   22569187.6744
  19993226.067   -29906931.79149 -23212699.78049  19993226.2374   19993232.2564
 96 12  9 20 19 29.9990000  0  9  4 29 25 16 19 22 15 18 14
  24434966.773    -6268491.65649  -4871137.89649  24434965.9854   24434974.5024
  20577122.756   -20432213.40949 -15916446.78749  20577122.6844   20577127.6444
  24035496.954    10828713.71949   8487708.77349  24035497.0324   24035504.2644
  21675111.207   -21681867.04949 -16595785.01749  21675111.0634   21675117.1054
  23827247.530    -6648419.93049  -4908375.04849  23827247.5204   23827255.0704
  20911957.041   -26894822.71449 -20750275.95149  20911956.5044   20911962.5464
  24332109.778    10358371.59849   8077173.27749  24332110.4904   24332117.7284
  22555465.806   -16169933.03949 -12584702.04749  22555465.3464   22555471.9794
  19995980.168   -29892459.05449 -23201422.33049  19995980.1314   19995986.1754
 96 12  9 20 19 59.9990000  0  9  4 29 25 16 19 22 15 18 14
  24430486.699    -6292034.03649  -4889482.57949  24430487.6254   24430493.7194
  20577705.753   -20429149.71649 -15914059.49449  20577705.6614   20577710.5764
  24053246.147    10921986.88349   8560389.10249  24053247.1144   24053252.9074
  21661499.692   -21753396.15749 -16651521.97449  21661499.2864   21661505.0744
  23811136.423    -6733084.42949  -4974347.25949  23811135.8344   23811143.6984
  20911619.468   -26896596.56949 -20751658.17049  20911618.8774   20911624.5504
  24351593.301    10460757.13649   8156954.15849  24351593.4634   24351601.0484
  22541766.646   -16241922.19249 -12640797.46549  22541766.3004   22541772.5614
  19998846.890   -29877394.04549 -23189683.36749  19998846.7464   19998853.0424
 96 12  9 20 20 29.9990000  0  9  4 29 25 16 19 22 15 18 14
  24426101.423    -6315080.33049  -4907440.72549  24426103.2214   24426108.5904
  20578325.909   -20425890.64049 -15911519.95149  20578326.0214   20578331.0284
  24070994.189    11015253.19749   8633064.10049  24070993.6884   24071000.8644
  21647955.972   -21824568.63149 -16706981.02149  21647955.5924   21647962.4974
  23795064.228    -6817543.94149  -5040159.75049  23795065.0094   23795071.9584
  20911394.271   -26897779.76149 -20752580.12949  20911393.4344   20911399.4324
  24371058.380    10563045.51249   8236659.32649  24371058.2374   24371066.3944
  22528073.253   -16313881.27249 -12696869.45449  22528072.7104   22528079.3254
  20001818.180   -29861780.17449 -23177516.71749  20001818.3194   20001824.2624
 96 12  9 20 20 59.9990000  0  9  4 29 25 16 19 22 15 18 14
  24421823.583    -6337561.02449  -4924958.13949  24421824.3434   24421830.9334
  20578993.868   -20422380.75049 -15908784.97849  20578993.6594   20578999.1824
  24088754.625    11108583.70449   8705789.11349  24088755.0124   24088761.3614
  21634489.297   -21895336.23849 -16762124.59349  21634489.1254   21634495.7154
  23779042.209    -6901741.06449  -5105767.77049  23779042.4214   23779049.5764
  20911295.299   -26898299.60049 -20752985.19349  20911294.5624   20911300.8464
  24390515.958    10665294.32449   8316333.64649  24390515.5474   24390523.3894
  22514404.284   -16385711.49949 -12752841.03549  22514404.4224   22514410.6254
  20004905.453   -29845556.69649 -23164875.05849  20004905.5824   20004911.5244
 96 12  9 20 21 29.9990000  0  9  4 29 25 16 19 22 15 18 14
  24417662.413    -6359427.54349  -4941996.97549  24417662.8944   24417670.1594
  20579717.520   -20418577.60549 -15905821.48949  20579717.5684   20579722.7674
  24106536.877    11202029.85249   8778604.22849  24106535.8824   24106543.8344
  21621107.912   -21965656.70649 -16816919.76049  21621107.8584   21621114.1604
  23763074.389    -6985653.68649  -5171154.11149  23763074.0964   23763080.9584
  20911335.047   -26898090.90849 -20752822.57349  20911334.2554   20911340.5684
  24409974.301    10767548.61349   8396012.26649  24409972.9474   24409982.6034
  22500770.698   -16457356.04049 -12808667.89249  22500770.5514   22500777.0034
  20008120.586   -29828660.96249 -23151709.55549  20008120.4964   20008126.5444
 96 12  9 20 21 59.9990000  0  9  4 29 25 16 19 22 15 18 14
  24413626.932    -6380634.20249  -4958521.64149  24413628.0774   24413633.3714
  20580509.233   -20414417.35049 -15902579.73749  20580509.3504   20580514.1994
  24124350.796    11295642.06649   8851548.75149  24124350.5104   24124357.4954
  21607820.026   -22035485.10949 -16871331.47949  21607819.1384   21607826.3344
  23747165.456    -7069255.81249  -5236298.52349  23747164.1404   23747171.9784
  20911525.613   -26897089.80649 -20752042.48449  20911524.9534   20911530.8054
  24429443.715    10869862.12349   8475736.99349  24429442.9694   24429451.3844
  22487182.891   -16528761.17249 -12864308.23549  22487182.6974   22487188.8534
  20011478.537   -29811014.60649 -23137959.15949  20011478.4124   20011484.5164
 96 12  9 20 22 29.9990000  0  9  4 29 25 16 19 22 15 18 14
  24409699.462    -6401272.64449  -4974603.52249  24409698.9074   24409707.1704
  20581355.110   -20409972.33449 -15899116.09449  20581355.3344   20581359.7054
  24142178.723    11389327.85549   8924550.60549  24142178.7174   24142186.1494
  21594607.262   -22104918.17449 -16925435.15349  21594606.9854   21594613.3474
  23731298.155    -7152637.78149  -5301271.34349  23731297.5354   23731304.9514
  20911851.532   -26895377.06549 -20750707.86749  20911850.6174   20911857.1354
  24448906.508    10972140.24349   8555434.17149  24448905.5554   24448914.9914
  22473625.956   -16600003.41949 -12919821.63549  22473625.2434   22473632.1004
  20014960.967   -29792714.44049 -23123699.29949  20014961.0414   20014967.0274
 96 12  9 20 22 59.9990000  0  9  4 29 25 16 19 22 15 18 14
  24405864.698    -6421424.02649  -4990305.90549  24405863.6924   24405870.4634
  20582242.135   -20405311.39149 -15895484.19049  20582242.0004   20582246.5924
  24160006.115    11483010.90449   8997550.32549  24160007.0154   24160013.2814
  21581454.207   -22174038.30249 -16979294.98249  21581453.7104   21581460.2004
  23715457.487    -7235880.39349  -5366135.59949  23715456.9814   23715464.2384
  20912296.897   -26893036.79349 -20748884.26449  20912296.3194   20912302.4984
  24468347.585    11074303.64149   8635041.95449  24468347.0664   24468355.3574
  22460084.396   -16671164.70249 -12975271.93849  22460083.6784   22460090.6594
  20018551.615   -29773845.94649 -23108996.58249  20018551.5354   20018557.7744
 96 12  9 20 23 29.9990000  0  9  4 29 25 16 19 22 15 18 14
  24402137.043    -6441012.51949  -5005569.65149  24402137.5724   24402143.2584
  20583187.895   -20400341.34149 -15891611.42749  20583187.6664   20583192.4834
  24177849.034    11576775.54549   9070613.63449  24177848.9834   24177856.6914
  21568378.689   -22242750.24149 -17032836.74049  21568378.4424   21568384.3494
  23699660.818    -7318891.83149  -5430819.72449  23699659.8974   23699668.3154
  20912877.383   -26889986.51049 -20746507.41649  20912876.2374   20912882.8664
  24487783.541    11176440.70049   8714629.22349  24487782.5514   24487792.3204
  22446573.006   -16742167.23949 -13030598.57249  22446573.4114   22446578.7434
  20022268.168   -29754315.35849 -23093777.95349  20022268.0024   20022274.3444
 96 12  9 20 23 59.9990000  0  8  4 29 25 16 19 22 18 14
  24398524.322    -6459997.72649  -5020363.31749  24398525.2524   24398531.4834
  20584197.867   -20395033.75649 -15887475.64349  20584197.6964   20584202.4904
  24195713.452    11670653.43449   9143765.18449  24195713.7064   24195720.4154
  21555390.310   -22311004.95349 -17086022.22349  21555390.0244   21555396.1104
  23683919.765    -7401610.60849  -5495275.78449  23683918.9344   23683927.4404
  20913596.919   -26886204.89349 -20743560.68549  20913596.1294   20913602.1954
  22433101.297   -16812961.91349 -13085763.22549  22433100.5584   22433106.9634
  20026112.828   -29734111.38049 -23078034.60049  20026112.6614   20026119.2184
 96 12  9 20 24 29.9990000  0  8  4 29 25 16 19 22 18 14
  24395034.108    -6478339.30849  -5034655.44749  24395034.3194   24395040.6924
  20585275.674   -20389369.96249 -15883062.29849  20585275.6904   20585280.3984
  24213605.004    11764674.46649   9217028.27149  24213604.8104   24213612.5304
  21542495.602   -22378767.49949 -17138824.20349  21542495.2014   21542501.3034
  23668242.941    -7483992.11749  -5559469.08849  23668241.9474   23668250.5934
  20914458.817   -26881675.30849 -20740031.12849  20914458.3024   20914464.1954
  22419673.545   -16883525.12849 -13140747.51349  22419673.2134   22419679.1474
  20030086.227   -29713231.07349 -23061764.24349  20030086.1104   20030092.5534
 96 12  9 20 24 59.9990000  0  8  4 29 25 16 19 22 18 14
  24391655.607    -6496093.07949  -5048489.55249  24391655.8684   24391662.0474
  20586408.544   -20383416.53649 -15878423.27149  20586408.5164   20586413.4634
  24231515.136    11858792.61549   9290367.04449  24231514.8014   24231522.3924
  21529686.489   -22446079.97049 -17191275.47049  21529685.9094   21529691.5544
  23652621.707    -7566080.81649  -5623434.22649  23652620.0024   23652629.1144
  20915452.279   -26876454.40049 -20735962.87949  20915451.1244   20915457.8434
  22406279.156   -16953913.46649 -13195595.55049  22406279.1464   22406284.9714
  20034178.509   -29691726.10949 -23045007.14449  20034178.4874   20034184.8884
 96 12  9 20 25 29.9990000  0  8  4 29 25 16 19 22 18 14
  24388374.675    -6513334.00949  -5061924.02149  24388374.6104   24388381.6634
  20587577.713   -20377272.00649 -15873635.32249  20587577.6174   20587582.9064
  24249427.459    11952921.86449   9363714.46749  24249428.0904   24249434.8144
  21516950.995   -22513005.65249 -17243425.35049  21516950.1554   21516956.5824
  23637043.978    -7647939.88449  -5687220.45049  23637042.9964   23637051.6754
  20916562.566   -26870620.04249 -20731416.62049  20916561.6464   20916568.4064
  22392900.523   -17024218.83949 -13250378.93749  22392900.8474   22392906.3714
  20038371.876   -29669689.63349 -23027835.87249  20038371.7144   20038378.2264
 96 12  9 20 25 59.9990000  0  8  4 29 25 16 19 22 18 14
  24385194.787    -6530044.78049  -5074945.38749  24385195.9404   24385200.8484
  20588784.974   -20370927.92949 -15868691.89249  20588785.2114   20588790.1684
  24267341.908    12047062.12849   9437070.46749  24267341.3494   24267349.1764
  21504288.908   -22579544.56249 -17295273.83449  21504288.3014   21504295.2744
  23621509.783    -7729571.90549  -5750829.76849  23621509.0704   23621517.4204
  20917791.566   -26864162.01949 -20726384.38949  20917791.0654   20917796.7984
  22379534.757   -17094457.38649 -13305110.26649  22379534.4214   22379539.5934
  20042668.782   -29647109.13049 -23010240.69049  20042668.6094   20042674.9214
 96 12  9 20 26 29.9990000  0  8  4 29 25 16 19 22 18 14
  24382111.243    -6546248.95249  -5087572.01149  24382111.0764   24382118.4084
  20590029.817   -20364386.60249 -15863594.75049  20590029.7394   20590035.1834
  24285255.511    12141198.31149   9510423.29149  24285255.8074   24285261.9764
  21491697.314   -22645713.29149 -17346833.86149  21491696.2684   21491703.1184
  23606012.396    -7811011.64949  -5814289.28249  23606013.1574   23606020.6204
  20919137.429   -26857089.94249 -20720873.66649  20919136.2934   20919142.1674
  22366176.654   -17164654.95549 -13359809.62849  22366176.5084   22366181.8104
  20047072.041   -29623969.60049 -22992209.89649  20047071.9314   20047078.3714
 96 12  9 20 26 59.9990000  0  8  4 29 25 16 19 22 18 14
  24379130.801    -6561911.23049  -5099776.36249  24379131.4094   24379139.2924
  20591321.948   -20357596.32849 -15858303.62349  20591321.7854   20591327.0834
  24303178.109    12235381.67349   9583812.87249  24303178.2104   24303184.6194
  21479188.017   -22711449.36349 -17398056.75649  21479187.6684   21479193.8604
  23590559.109    -7892220.24749  -5877568.68149  23590558.7364   23590566.6334
  20920611.184   -26849345.02449 -20714838.65549  20920610.3734   20920616.5564
  22352833.860   -17234772.39649 -13414446.56149  22352834.0354   22352839.1834
  20051595.368   -29600199.48149 -22973687.73449  20051595.4694   20051601.7374
 96 12  9 20 27 29.9990000  0  8  4 29 25 16 19 22 18 14
  24376234.653    -6577131.40549  -5111636.22849  24376235.9534   24376241.5174
  20592644.274   -20350647.43549 -15852888.90449  20592644.1694   20592649.2064
  24321087.970    12329498.89849   9657150.89849  24321087.4524   24321095.0214
  21466741.686   -22776855.52149 -17449022.58049  21466741.1544   21466747.7574
  23575126.899    -7973317.43949  -5940761.26649  23575126.2604   23575133.7844
  20922193.301   -26841030.96649 -20708360.16449  20922192.7974   20922198.6384
  22339487.165   -17304909.95349 -13469099.17349  22339486.7054   22339493.0724
  20056221.742   -29575887.98349 -22954743.72449  20056221.5374   20056228.2674
 96 12  9 20 27 59.9990000  0  8  4 29 25 16 19 22 18 14
  24373428.222    -6591880.27449  -5123128.83949  24373429.8364   24373434.6004
  20594003.320   -20343505.65649 -15847323.88349  20594003.4284   20594008.4894
  24338991.394    12423582.98149   9730463.09149  24338990.6074   24338998.1544
  21454364.155   -22841900.14149 -17499706.68549  21454363.7434   21454370.5534
  23559719.648    -8054283.74749  -6003851.86349  23559720.1654   23559726.5144
  20923886.105   -26832135.11349 -20701428.33049  20923885.6354   20923891.5664
  22326145.089   -17375022.53949 -13523732.31749  22326144.1424   22326151.0024
  20060959.243   -29550991.77649 -22935344.09849  20060959.1574   20060965.2194
 96 12  9 20 28 29.9990000  0  8  4 29 25 16 19 22 18 14
  24370711.076    -6606158.67849  -5134254.84849  24370711.6174   24370717.2174
  20595399.300   -20336170.03049 -15841607.81049  20595399.4124   20595404.2504
  24356888.788    12517634.13349   9803749.62649  24356889.4164   24356895.4774
  21442059.057   -22906563.81249 -17550093.94649  21442058.5824   21442064.8634
  23544340.867    -8135100.57749  -6066825.99149  23544340.0934   23544346.8654
  20925689.521   -26822658.68849 -20694044.09349  20925689.0674   20925694.5854
  22312812.025   -17445087.60749 -13578328.45449  22312811.5024   22312817.8994
  20065804.550   -29525529.56349 -22915503.42549  20065804.3734   20065810.3814
 96 12  9 20 28 59.9990000  0  8  4 29 25 16 19 22 18 14
  24368076.521    -6620002.77049  -5145042.45049  24368075.8124   24368082.0284
  20596824.837   -20328678.53549 -15835770.28049  20596824.5954   20596829.6484
  24374770.880    12611604.79949   9876973.45449  24374770.7174   24374777.4284
  21429817.851   -22970891.43849 -17600219.35049  21429816.8864   21429823.5604
  23528984.141    -8215799.16549  -6129707.97849  23528982.8644   23528990.5174
  20927598.370   -26812628.26749 -20686228.17449  20927597.5464   20927603.7484
  22299480.555   -17515144.32849 -13632918.06249  22299480.5414   22299486.4074
  20070744.348   -29499571.07349 -22895276.03449  20070744.5334   20070750.5034
 96 12  9 20 29 29.9990000  0  8  4 29 25 16 19 22 18 14
  24365517.225    -6633451.02649  -5155521.61749  24365517.3234   24365524.4584
  20598269.662   -20321085.60749 -15829853.71249  20598269.6554   20598274.6554
  24392625.365    12705432.10849   9950085.58449  24392625.6674   24392632.8454
  21417626.704   -23034955.66149 -17650139.50849  21417626.0364   21417632.6654
  23513638.899    -8296436.02649  -6192541.87749  23513638.1374   23513646.1204
  20929602.251   -26802098.00949 -20678022.77749  20929601.1194   20929607.5124
  22286142.933   -17585233.71949 -13687533.16449  22286142.2654   22286148.2094
  20075764.274   -29473191.66849 -22874720.66349  20075764.1384   20075770.6814
 96 12  9 20 29 59.9990000  0  8  4 29 25 16 19 22 18 14
  24363051.793    -6646407.68149  -5165617.70049  24363051.1714   24363058.2584
  20599749.258   -20313310.19749 -15823794.95049  20599749.2804   20599754.4544
  24410468.850    12799200.74849  10023151.99649  24410468.8644   24410475.3124
  21405504.207   -23098659.66149 -17699778.96449  21405503.8384   21405510.6414
  23498323.888    -8376916.12849  -6255253.65849  23498323.4494   23498330.9964
  20931720.071   -26790967.88149 -20669349.95549  20931718.5234   20931725.9954
  22272815.570   -17655268.71049 -13742105.85149  22272815.2014   22272821.1684
  20080878.853   -29446314.31249 -22853777.27349  20080878.7174   20080884.8294
 96 12  9 20 30 29.9990000  0  8  4 29 25 16 19 22 18 14
  24360666.538    -6658941.23249  -5175384.10549  24360665.8124   24360673.1104
  20601254.513   -20305399.76749 -15817630.97949  20601254.3584   20601259.8974
  24428286.859    12892835.01449  10096113.69449  24428286.5494   24428294.1604
  21393437.583   -23162070.52749 -17749190.01449  21393437.1024   21393443.7934
  23483028.125    -8457297.29549  -6317888.29549  23483027.6784   23483035.3574
  20933946.056   -26779269.15249 -20660234.07749  20933945.0514   20933951.7934
  22259487.314   -17725308.92749 -13796682.62749  22259487.9874   22259492.8184
  20086077.335   -29418996.23849 -22832490.47249  20086077.0884   20086083.3904
 96 12  9 20 30 59.9990000  0  8  4 29 25 16 19 22 18 14
  24358367.861    -6671019.73549  -5184795.91049  24358368.4724   24358375.1344
  20602791.670   -20297321.44249 -15811336.18349  20602791.6944   20602797.2404
  24446087.169    12986376.47749  10169003.08349  24446086.9964   24446093.4334
  21381430.669   -23225167.24449 -17798356.26649  21381430.0544   21381436.9444
  23467756.944    -8537548.81749  -6380421.93649  23467757.4504   23467764.6604
  20936287.271   -26766965.91349 -20650647.14149  20936286.6704   20936292.9074
  22246164.980   -17795318.72149 -13851235.67849  22246164.3714   22246171.7944
  20091369.745   -29391184.30849 -22810818.84549  20091369.4444   20091375.8834
 96 12  9 20 31 29.9990000  0  8  4 29 25 16 19 22 18 14
  24356131.109    -6682774.70449  -5193955.61449  24356131.5414   24356138.5364
  20604335.010   -20289211.24749 -15805016.55049  20604335.3554   20604340.6324
  24463847.323    13079706.12549  10241727.41149  24463848.0504   24463854.5964
  21369462.155   -23288062.17549 -17847365.28249  21369461.2904   21369468.0214
  23452488.007    -8617787.56649  -6442945.61249  23452488.5404   23452495.6064
  20938714.771   -26754210.10449 -20640707.54349  20938714.4204   20938719.9304
  22232825.376   -17865418.37949 -13905858.75849  22232824.9864   22232830.9394
  20096737.118   -29362978.62749 -22788840.40249  20096736.9294   20096743.3204
 96 12  9 20 31 59.9990000  0  7  4 29 16 19 22 18 14
  24353957.407    -6694198.19749  -5202857.04649  24353958.2564   24353964.7264
  20605891.386   -20281033.11049 -15798643.97949  20605891.7584   20605896.9754
  21357539.401   -23350715.93749 -17896186.38349  21357538.9934   21357545.5104
  23437231.920    -8697960.24649  -6505417.80349  23437232.8514   23437238.7124
  20941232.816   -26740977.85949 -20630396.70349  20941232.2574   20941238.4984
  22219474.079   -17935579.73849 -13960529.92149  22219474.0884   22219479.5684
  20102187.670   -29334335.92349 -22766521.41849  20102187.4854   20102193.8904
 96 12  9 20 32 29.9990000  0  7  4 29 16 19 22 18 14
  24351849.735    -6705274.13149  -5211487.67249  24351850.0854   24351855.8454
  20607466.285   -20272757.50849 -15792195.46249  20607466.4484   20607471.5504
  21345664.662   -23413118.22749 -17944811.53149  21345664.2744   21345671.1304
  23421995.136    -8778031.52349  -6567810.94549  23421996.1394   23422002.0054
  20943843.488   -26727259.10649 -20619706.77049  20943842.5794   20943848.9944
  22206114.864   -18005782.73149 -14015233.52749  22206114.2874   22206120.3944
  20107726.099   -29305231.73849 -22743842.83849  20107726.2114   20107732.4184
 96 12  9 20 32 59.9990000  0  7  4 29 16 19 22 18 14
  24349815.672    -6715962.75449  -5219816.45749  24349815.4844   24349822.2084
  20609065.244   -20264354.78149 -15785647.88749  20609065.2714   20609070.8154
  21333846.082   -23475225.64949 -17993206.90249  21333845.8864   21333852.7294
  23406782.582    -8857973.87049  -6630103.62049  23406781.6424   23406789.6244
  20946547.387   -26713049.80249 -20608634.58549  20946546.3784   20946552.6894
  22192755.005   -18075989.88549 -14069940.36149  22192754.8164   22192760.1644
  20113357.906   -29275636.52449 -22720781.64049  20113357.9324   20113364.2074
 96 12  9 20 33 29.9990000  0  7  4 29 16 19 22 18 14
  24347860.113    -6726239.91149  -5227824.64049  24347860.7174   24347866.9264
  20610694.434   -20255793.06849 -15778976.42749  20610694.5234   20610699.8544
  21322089.971   -23537004.96249 -18041346.61949  21322089.4054   21322096.2954
  23391597.628    -8937770.21349  -6692282.53049  23391597.0944   23391604.4524
  20949348.037   -26698331.90349 -20597166.09049  20949347.1894   20949353.2704
  22179397.270   -18146185.69649 -14124638.37149  22179396.7534   22179402.8784
  20119084.808   -29245541.25949 -22697330.79549  20119084.4784   20119091.4234
 96 12  9 20 33 59.9990000  0  7  4 29 16 19 22 18 14
  24345977.418    -6736133.70249  -5235534.07949  24345977.1814   24345983.3194
  20612346.041   -20247113.59849 -15772213.21049  20612346.2004   20612351.3994
  21310386.115   -23598508.89749 -18089271.74749  21310385.6574   21310392.5234
  23376428.641    -9017482.75449  -6754396.10949  23376427.7764   23376436.3084
  20952239.453   -26683136.79349 -20585325.74249  20952238.8974   20952245.3394
  22166032.687   -18216417.12649 -14179364.15449  22166032.7254   22166037.4474
  20124894.482   -29215010.67549 -22673540.74149  20124894.1864   20124900.9064
 96 12  9 20 34 29.9990000  0  7  4 29 16 19 22 18 14
  24344159.664    -6745686.09449  -5242977.48849  24344160.2594   24344166.7654
  20614008.848   -20238375.87249 -15765404.59549  20614008.9694   20614013.9154
  21298727.007   -23659777.45949 -18137013.46249  21298726.4884   21298733.8284
  23361260.712    -9097189.37549  -6816505.05949  23361260.1964   23361268.1944
  20955212.694   -26667512.62249 -20573151.06249  20955212.2084   20955218.2624
  22152651.627   -18286735.01249 -14234157.28549  22152651.3094   22152657.7504
  20130775.338   -29184106.23149 -22649459.36749  20130775.0644   20130781.7084
 96 12  9 20 34 59.9990000  0  7  4 29 16 19 22 18 14
  24342407.578    -6754894.29549  -5250152.72149  24342407.6124   24342414.7504
  20615680.547   -20229590.95749 -15758559.21649  20615680.4914   20615685.5354
  21287116.370   -23720791.71249 -18184557.01849  21287115.5874   21287123.1694
  23346090.265    -9176909.66649  -6878624.65549  23346089.4094   23346096.5534
  20958268.420   -26651454.54549 -20560638.27349  20958267.5734   20958273.7574
  22139254.404   -18357137.73849 -14289016.51349  22139253.6144   22139260.2094
  20136724.527   -29152842.68949 -22625098.17449  20136724.2364   20136730.9644
 96 12  9 20 35 29.9990000  0  7  4 29 16 19 22 18 14
  24340708.136    -6763824.89049  -5257111.62749  24340707.2794   24340715.6714
  20617346.116   -20220838.04249 -15751738.77249  20617346.1984   20617351.0894
  21275541.493   -23781617.67649 -18231953.84949  21275540.6904   21275548.2054
  23330904.102    -9256712.42249  -6940808.54349  23330903.5124   23330911.5024
  20961397.115   -26635012.85049 -20547826.54949  20961396.5674   20961402.9064
  22125826.977   -18427698.93549 -14343999.24049  22125826.7194   22125831.8774
  20142726.955   -29121299.33949 -22600518.94449  20142726.8004   20142733.5454
 96 12  9 20 35 59.9990000  0  7  4 29 16 19 22 18 14
  24339082.778    -6772366.01949  -5263767.09249  24339082.8544   24339089.0014
  20619026.316   -20212008.47349 -15744858.60049  20619026.6554   20619031.4844
  21264024.488   -23842140.00549 -18279114.08849  21264024.5224   21264030.9574
  23315725.676    -9336475.42349  -7002961.46749  23315726.4584   23315732.7914
  20964621.763   -26618067.21749 -20534622.14849  20964620.8054   20964627.3264
  22112392.795   -18498295.26249 -14399009.33749  22112391.8804   22112398.9984
  20148808.098   -29089343.07649 -22575617.97249  20148808.2704   20148814.8624
 96 12  9 20 36 29.9990000  0  7  4 29 16 19 22 18 14
  24337515.385    -6780602.80149  -5270185.39149  24337516.1684   24337521.1814
  20620706.234   -20203181.38649 -15737980.35449  20620706.5124   20620711.3264
  21252552.622   -23902426.38049 -18326090.47549  21252552.5744   21252559.1374
  23300543.344    -9416259.61449  -7065130.90549  23300543.8294   23300551.3614
  20967926.079   -26600702.59349 -20521091.26949  20967924.6684   20967931.4714
  22098938.439   -18568998.01649 -14454102.36849  22098937.4344   22098943.6234
  20154955.794   -29057036.98349 -22550444.40149  20154955.7844   20154962.5624
 96 12  9 20 36 59.9990000  0  7  4 29 16 19 22 18 14
  24336017.873    -6788472.56449  -5276317.66549  24336018.4054   24336024.2814
  20622398.040   -20194291.10249 -15731052.86549  20622397.9714   20622402.9314
  21241135.470   -23962424.64449 -18372842.36749  21241134.9484   21241141.5234
  23285371.022    -9495991.65749  -7127259.68849  23285370.0444   23285377.9374
  20971320.386   -26582864.45249 -20507191.42549  20971319.7274   20971325.9174
  22085476.513   -18639740.30049 -14509226.18049  22085476.1234   22085482.3404
  20161182.237   -29024316.97349 -22524948.30549  20161182.2944   20161188.7634
 96 12  9 20 37 29.9990000  0  7  4 29 16 19 22 18 14
  24334550.936    -6796181.11349  -5282324.33549  24334550.9814   24334557.6684
  20624067.835   -20185515.78849 -15724214.96149  20624067.6954   20624072.7174
  21229734.743   -24022335.41849 -18419526.07849  21229733.6314   21229740.3304
  23270175.026    -9575845.86749  -7189483.67549  23270173.5044   23270182.2194
  20974767.758   -26564748.68849 -20493075.23149  20974767.2814   20974773.6684
  22071970.763   -18710713.40549 -14564529.88649  22071970.9224   22071976.1574
  20167453.878   -28991359.65849 -22499267.28849  20167453.8324   20167460.3054
 96 12  9 20 37 59.9990000  0  7  4 29 16 19 22 18 14
  24333157.414    -6803504.42849  -5288030.82649  24333158.9254   24333162.9214
  20625762.251   -20176611.28649 -15717276.39449  20625762.3924   20625767.4284
  21218394.186   -24081929.11749 -18465962.71849  21218393.1424   21218400.5764
  23255001.121    -9655583.20549  -7251616.60549  23254999.6894   23255008.8904
  20978311.078   -26546128.92249 -20478566.31649  20978310.3484   20978316.8554
  22058462.940   -18781697.06549 -14619841.80349  22058462.8444   22058467.6774
  20173816.085   -28957925.84849 -22473214.97449  20173815.7884   20173822.5374
 96 12  9 20 38 29.9990000  0  7  4 29 16 19 22 18 14
  24331841.585    -6810418.69449  -5293418.57449  24331841.3074   24331848.7244
  20627488.749   -20167538.77849 -15710206.90949  20627488.9274   20627494.0714
  21207120.649   -24141171.43149 -18512125.55649  21207120.5264   21207127.2404
  23239853.476    -9735184.79249  -7313643.76449  23239852.5554   23239861.5664
  20981956.418   -26526972.45349 -20463639.19249  20981955.9144   20981961.6984
  22044956.903   -18852671.61349 -14675146.62749  22044956.5944   22044962.0544
  20180269.918   -28924010.68349 -22446787.56849  20180269.9604   20180276.1484
 96 12  9 20 38 59.9990000  0  7  4 29 16 19 22 18 14
  24330609.349    -6816892.65149  -5298463.20449  24330609.1904   24330614.4974
  20629257.966   -20158241.85549 -15702962.55549  20629258.0324   20629263.3384
  21195922.887   -24200016.72049 -18557979.03249  21195922.4684   21195928.8624
  23224738.131    -9814616.77949  -7375538.79149  23224738.3684   23224745.9174
  20985714.073   -26507226.40249 -20448252.65049  20985713.8134   20985719.0144
  22031459.057   -18923603.87449 -14730418.49049  22031459.1284   22031464.4684
  20186822.194   -28889578.72049 -22419957.47949  20186822.4644   20186828.3934
 96 12  9 20 39 29.9990000  0  7  4 29 16 19 22 18 14
  24329450.970    -6822980.31549  -5303206.87049  24329450.7324   24329455.7694
  20631058.923   -20148777.66249 -15695587.84749  20631058.7954   20631064.1264
  21184790.695   -24258516.65949 -18603563.38849  21184789.9454   21184797.2924
  23209643.711    -9893939.26149  -7437348.51049  23209644.4474   23209651.3834
  20989574.121   -26486942.61849 -20432447.08449  20989573.4014   20989579.0614
  22017956.215   -18994561.38949 -14785710.02249  22017955.7864   22017962.7864
  20193463.135   -28854680.98149 -22392764.43549  20193463.1664   20193469.2944
 96 12  9 20 39 59.9990000  0  7  4 29 16 19 22 18 14
  24328377.447    -6828622.45349  -5307603.34949  24328377.2954   24328383.2144
  20632898.205   -20139112.02249 -15688056.17949  20632898.2324   20632903.2524
  21173730.919   -24316635.86049 -18648851.06949  21173730.2724   21173737.8344
  23194576.692    -9973117.52149  -7499045.83449  23194576.6394   23194584.9214
  20993543.355   -26466083.94849 -20416193.56949  20993542.5934   20993548.4234
  22004458.189   -19065493.98449 -14840982.14749  22004458.5304   22004463.3914
  20200199.942   -28819279.13549 -22365178.58949  20200199.5934   20200205.9434
 96 12  9 20 40 29.9990000  0  7  4 29 16 19 22 18 14
  24327382.173    -6833853.12249  -5311679.21349  24327382.5544   24327389.5464
  20634763.249   -20129311.70649 -15680419.57649  20634763.2714   20634768.2464
  21162735.661   -24374416.10049 -18693874.64049  21162735.5934   21162742.4744
  23179527.318   -10052202.62749  -7560670.56349  23179526.4284   23179534.4864
  20997609.869   -26444713.97949 -20399541.64349  20997609.0984   20997615.5024
  21990959.818   -19136428.63749 -14896255.88249  21990959.6854   21990965.7474
  20207021.301   -28783432.28149 -22337245.98349  20207021.0704   20207027.2174
 96 12  9 20 40 59.9990000  0  7  4 29 16 19 22 18 14
  24326430.550    -6838854.42149  -5315576.34449  24326430.2334   24326436.8764
  20636613.078   -20119590.63149 -15672844.71449  20636612.8704   20636618.1294
  21151768.402   -24432050.09549 -18738784.24249  21151767.9864   21151774.8664
  23164460.534   -10131378.75849  -7622366.21449  23164459.8484   23164467.3924
  21001734.786   -26423037.40349 -20382650.79949  21001733.8224   21001740.1904
  21977426.878   -19207544.32849 -14951670.68449  21977426.7544   21977431.2764
  20213892.316   -28747324.89449 -22309110.35949  20213892.3144   20213898.7024
 96 12  9 20 41 29.9990000  0  7  4 29 16 19 22 18 14
  24325543.137    -6843517.89049  -5319210.22549  24325543.0874   24325550.5434
  20638466.123   -20109852.46849 -15665256.53749  20638465.8274   20638471.1364
  21140846.552   -24489445.08949 -18783507.61649  21140846.0374   21140852.6744
  23149396.828   -10210538.56249  -7684049.14649  23149396.8064   23149403.9064
  21005936.250   -26400958.03449 -20365446.09549  21005935.5634   21005941.6674
  21963882.962   -19278718.25849 -15007130.87649  21963883.0004   21963889.2794
  20220832.446   -28710854.52749 -22280691.89449  20220832.2094   20220838.5584
 96 12  9 20 41 59.9990000  0  7  4 29 16 19 22 18 14
  24324734.187    -6847768.29849  -5322522.23049  24324734.0374   24324740.9474
  20640337.766   -20100016.52849 -15657592.17349  20640337.8814   20640342.9644
  21129987.001   -24546511.84849 -18827975.21449  21129986.4154   21129993.5684
  23134353.337   -10289592.09249  -7745649.28749  23134351.5724   23134359.8944
  21010228.749   -26378400.80349 -20347869.03449  21010228.1724   21010234.5124
  21950344.794   -19349862.48049 -15062567.91049  21950344.4334   21950349.7744
  20227854.886   -28673951.02649 -22251935.92349  20227854.4884   20227860.9434
 96 12  9 20 42 29.9990000  0  7  4 29 16 19 22 18 14
  24323985.378    -6851702.83149  -5325588.07949  24323986.4154   24323991.4714
  20642214.655   -20090153.81249 -15649906.94149  20642214.6424   20642219.6344
  21119178.444   -24603310.85849 -18872234.16249  21119178.0274   21119184.9334
  23119316.186   -10368612.37949  -7807223.52549  23119315.8114   23119322.9024
  21014600.189   -26355429.46149 -20329969.28449  21014599.4164   21014605.9564
  21936796.360   -19421059.84849 -15118046.35849  21936795.6724   21936801.4684
  20234946.547   -28636683.74549 -22222896.48849  20234946.2884   20234952.6674
 96 12  9 20 42 59.9990000  0  7  4 29 16 19 22 18 14
  24323304.582    -6855281.22049  -5328376.47749  24323304.0274   24323311.3574
  20644112.694   -20080179.86949 -15642135.03649  20644112.6884   20644117.8304
  21108429.577   -24659796.72049 -18916249.11749  21108428.8494   21108435.8094
  23104296.225   -10447542.85249  -7868727.76449  23104295.1294   23104303.0414
  21019064.910   -26331967.52949 -20311687.26049  21019063.9554   21019070.5614
  21923245.577   -19492269.32349 -15173534.22549  21923246.0134   21923250.8854
  20242121.649   -28598978.46449 -22193515.75949  20242121.6414   20242127.6384
 96 12  9 20 43 29.9990000  0  7  4 29 16 19 22 18 14
  24322690.127    -6858509.54649  -5330892.05949  24322689.8724   24322697.0594
  20646035.629   -20070074.48449 -15634260.70949  20646035.3174   20646040.7134
  21097740.172   -24715969.60849 -18960020.19449  21097739.6294   21097746.6764
  23089293.380   -10526382.33849  -7930161.09449  23089292.4054   23089300.6364
  21023622.239   -26308018.34249 -20293025.56349  21023621.0404   21023627.5624
  21909688.628   -19563512.08949 -15229048.04049  21909688.2884   21909693.8584
  20249381.581   -28560827.42849 -22163787.69449  20249381.7154   20249387.5214
 96 12  9 20 43 59.9990000  0  7  4 29 16 19 22 18 14
  24322172.442    -6861229.55649  -5333011.56749  24322173.0904   24322179.1874
  20648013.411   -20059681.10849 -15626161.98749  20648013.6184   20648018.6214
  21087143.838   -24771653.63349 -19003410.34749  21087143.6144   21087150.7164
  23074337.162   -10604976.40949  -7991403.20849  23074337.7984   23074345.5034
  21028300.458   -26283434.10949 -20273869.02149  21028300.0814   21028305.9044
  21896150.926   -19634652.64149 -15284482.21149  21896150.1114   21896156.4794
  20256756.109   -28522074.12449 -22133590.32449  20256755.8604   20256762.1844
 96 12  9 20 44 29.9990000  0  7  4 29 16 19 22 18 14
  24321721.966    -6863597.17949  -5334856.47649  24321722.3224   24321728.8014
  20650016.962   -20049152.56049 -15617957.92549  20650016.8314   20650022.3074
  21076609.480   -24827012.71249 -19046547.29549  21076609.4774   21076616.4764
  23059395.050   -10683498.45149  -8052589.19149  23059395.3334   23059402.9514
  21033070.710   -26258366.87449 -20254336.10649  21033069.7194   21033076.1404
  21882602.990   -19705846.72349 -15339958.09349  21882602.9994   21882608.2994
  20264214.150   -28482881.53649 -22103050.65049  20264214.2164   20264220.5834
 96 12  9 20 44 59.9990000  0  7  4 29 16 19 22 18 14
  24321390.489    -6865339.37649  -5336214.02849  24321390.8124   24321397.0214
  20652095.370   -20038229.93849 -15609446.79749  20652095.5924   20652100.8284
  21066186.640   -24881785.68949 -19089227.53449  21066186.3534   21066192.9894
  23044514.797   -10761696.53049  -8113522.72449  23044514.7744   23044522.1824
  21037979.220   -26232572.11449 -20234236.29149  21037978.0414   21037984.2744
  21869094.419   -19776834.60949 -15395273.30549  21869094.0814   21869100.0444
  20271801.753   -28443008.53049 -22071980.78649  20271801.5144   20271807.7784
 96 12  9 20 45 29.9990000  0  7  4 29 16 19 22 18 14
  24321105.758    -6866836.48349  -5337380.59349  24321105.8594   24321111.0664
  20654172.871   -20027313.10849 -15600940.19149  20654173.2434   20654178.1184
  21055805.398   -24936340.17249 -19131737.52249  21055805.1694   21055811.4004
  23029621.860   -10839959.82949  -8174507.06549  23029621.1154   23029629.3944
  21042950.090   -26206449.62349 -20213881.10749  21042949.4994   21042955.4014
  21855554.139   -19847989.90349 -15450718.97349  21855553.9554   21855559.2734
  20279441.155   -28402862.83249 -22040698.43849  20279440.9454   20279447.7384
 96 12  9 20 45 59.9990000  0  7  4 29 16 19 22 18 14
  24320880.411    -6868020.58449  -5338303.28749  24320880.1454   24320886.1334
  20656260.995   -20016340.19649 -15592389.87549  20656261.2384   20656266.1944
  21045480.145   -24990600.86149 -19174018.57149  21045479.9874   21045485.9064
  23014728.244   -10918225.45849  -8235493.25549  23014728.0254   23014735.4674
  21047999.209   -26179916.38049 -20193205.85049  21047998.6944   21048005.2484
  21841999.837   -19919218.26649 -15506221.56049  21842000.0084   21842005.9564
  20287140.965   -28362399.82349 -22009168.82849  20287141.0844   20287147.8214
 96 12  9 20 46 29.9990000  0  7  4 29 16 19 22 18 14
  24320732.657    -6868796.65049  -5338908.05649  24320733.0974   24320739.7124
  20658378.323   -20005213.74549 -15583719.91849  20658378.3724   20658383.2664
  21035228.733   -25044473.12949 -19215996.95149  21035228.0754   21035234.5024
  22999854.178   -10996390.08549  -8296400.73349  22999854.0624   22999860.9854
  21053148.432   -26152856.81549 -20172120.47949  21053148.1994   21053154.1504
  21828452.030   -19990413.15549 -15561698.08949  21828451.1884   21828457.4674
  20294921.679   -28321512.57549 -21977308.64149  20294922.0184   20294928.2514
 96 12  9 20 46 59.9990000  0  7  4 29 16 19 22 18 14
  24320654.304    -6869208.77549  -5339229.20649  24320654.3114   24320660.9534
  20660515.230   -19993983.91349 -15574969.40749  20660515.0534   20660520.2154
  21025044.442   -25097991.59349 -19257699.64149  21025043.7954   21025050.4164
  22984993.026   -11074486.45249  -8357255.02549  22984992.3014   22984998.6154
  21058388.069   -26125323.03649 -20150665.58049  21058387.7324   21058393.2854
  21814902.199   -20061617.56749 -15617182.02749  21814901.5284   21814907.9484
  20302777.445   -28280231.00549 -21945141.19649  20302777.5704   20302784.2424
